Wetterdaten: Mittwoch, 24.05.2017
Datum Zeit Temp. A. Pool Temp. Feuchte A. Luftdruck Regen Wind Richtung Richtung Sonnenschein ET UV Solar Taupunkt Windchill Windben Empfang
24.05.2017 00:00 17,2 C 21,7 C 68 % 1016,4 hPa 0,0 l/m 7,5 km/h (2 Bft) S-SW 202 0 min 0,000 mm 0,0 UV-I 0 W/m 11,2 C 16,7 C 11,3 km/h (2 Bft) 94,00 %
24.05.2017 00:02 17,2 C 21,7 C 68 % 1016,5 hPa 0,0 l/m 7,8 km/h (2 Bft) SW 217 0 min 0,000 mm 0,0 UV-I 0 W/m 11,2 C 16,5 C 11,3 km/h (2 Bft) 97,06 %
24.05.2017 00:04 17,2 C 21,7 C 67 % 1016,5 hPa 0,0 l/m 8,7 km/h (2 Bft) SW 234 0 min 0,000 mm 0,0 UV-I 0 W/m 11,0 C 16,1 C 12,9 km/h (3 Bft) 96,00 %
24.05.2017 00:06 17,2 C 21,7 C 68 % 1016,4 hPa 0,0 l/m 7,0 km/h (2 Bft) W-SW 247 0 min 0,000 mm 0,0 UV-I 0 W/m 11,2 C 16,9 C 11,3 km/h (2 Bft) 97,96 %
24.05.2017 00:08 17,1 C 21,7 C 68 % 1016,4 hPa 0,0 l/m 6,9 km/h (2 Bft) S-SW 212 0 min 0,000 mm 0,0 UV-I 0 W/m 11,1 C 16,9 C 12,9 km/h (3 Bft) 91,67 %
24.05.2017 00:10 17,1 C 21,7 C 68 % 1016,4 hPa 0,0 l/m 6,8 km/h (2 Bft) S-SW 201 0 min 0,000 mm 0,0 UV-I 0 W/m 11,1 C 16,9 C 11,3 km/h (2 Bft) 97,37 %
24.05.2017 00:12 17,1 C 21,7 C 68 % 1016,4 hPa 0,0 l/m 9,5 km/h (2 Bft) SW 236 0 min 0,000 mm 0,0 UV-I 0 W/m 11,1 C 15,6 C 14,5 km/h (3 Bft) 93,22 %
24.05.2017 00:14 17,1 C 21,7 C 68 % 1016,4 hPa 0,0 l/m 7,3 km/h (2 Bft) SW 223 0 min 0,000 mm 0,0 UV-I 0 W/m 11,1 C 16,6 C 11,3 km/h (2 Bft) 97,37 %
24.05.2017 00:16 17,1 C 21,7 C 68 % 1016,4 hPa 0,0 l/m 8,2 km/h (2 Bft) W-SW 242 0 min 0,000 mm 0,0 UV-I 0 W/m 11,1 C 16,2 C 11,3 km/h (2 Bft) 98,21 %
24.05.2017 00:18 17,1 C 21,7 C 68 % 1016,4 hPa 0,0 l/m 7,8 km/h (2 Bft) SW 226 0 min 0,000 mm 0,0 UV-I 0 W/m 11,1 C 16,4 C 12,9 km/h (3 Bft) 97,56 %
24.05.2017 00:20 17,1 C 21,7 C 68 % 1016,4 hPa 0,0 l/m 9,2 km/h (2 Bft) W-SW 240 0 min 0,000 mm 0,0 UV-I 0 W/m 11,1 C 15,8 C 14,5 km/h (3 Bft) 94,34 %
24.05.2017 00:22 17,1 C 21,7 C 68 % 1016,4 hPa 0,0 l/m 7,9 km/h (2 Bft) SW 216 0 min 0,000 mm 0,0 UV-I 0 W/m 11,1 C 16,4 C 11,3 km/h (2 Bft) 97,37 %
24.05.2017 00:24 17,0 C 21,7 C 69 % 1016,4 hPa 0,0 l/m 7,6 km/h (2 Bft) W-SW 242 0 min 0,000 mm 0,0 UV-I 0 W/m 11,3 C 16,4 C 11,3 km/h (2 Bft) 96,23 %
24.05.2017 00:26 16,9 C 21,7 C 69 % 1016,4 hPa 0,0 l/m 8,5 km/h (2 Bft) W-SW 248 0 min 0,000 mm 0,0 UV-I 0 W/m 11,2 C 15,9 C 12,9 km/h (3 Bft) 97,37 %
24.05.2017 00:28 16,9 C 21,7 C 69 % 1016,4 hPa 0,0 l/m 9,0 km/h (2 Bft) S-SW 202 0 min 0,000 mm 0,0 UV-I 0 W/m 11,2 C 15,6 C 14,5 km/h (3 Bft) 94,64 %
24.05.2017 00:30 16,9 C 21,7 C 69 % 1016,4 hPa 0,0 l/m 8,3 km/h (2 Bft) SW 223 0 min 0,000 mm 0,0 UV-I 0 W/m 11,2 C 16,0 C 11,3 km/h (2 Bft) 100,00 %
24.05.2017 00:32 16,9 C 21,7 C 69 % 1016,4 hPa 0,0 l/m 8,9 km/h (2 Bft) S-SW 205 0 min 0,000 mm 0,0 UV-I 0 W/m 11,2 C 15,7 C 14,5 km/h (3 Bft) 98,11 %
24.05.2017 00:34 16,9 C 21,7 C 69 % 1016,4 hPa 0,0 l/m 8,0 km/h (2 Bft) S-SW 205 0 min 0,000 mm 0,0 UV-I 0 W/m 11,2 C 16,1 C 11,3 km/h (2 Bft) 97,87 %
24.05.2017 00:36 16,9 C 21,7 C 68 % 1016,3 hPa 0,0 l/m 8,7 km/h (2 Bft) SW 220 0 min 0,000 mm 0,0 UV-I 0 W/m 11,0 C 15,8 C 12,9 km/h (3 Bft) 97,56 %
24.05.2017 00:38 16,9 C 21,7 C 69 % 1016,3 hPa 0,0 l/m 7,6 km/h (2 Bft) S 184 0 min 0,000 mm 0,0 UV-I 0 W/m 11,2 C 16,3 C 12,9 km/h (3 Bft) 100,00 %
24.05.2017 00:40 16,9 C 21,7 C 68 % 1016,3 hPa 0,0 l/m 8,6 km/h (2 Bft) SW 233 0 min 0,000 mm 0,0 UV-I 0 W/m 11,0 C 15,8 C 12,9 km/h (3 Bft) 100,00 %
24.05.2017 00:42 16,9 C 21,7 C 68 % 1016,2 hPa 0,0 l/m 9,4 km/h (2 Bft) SW 231 0 min 0,000 mm 0,0 UV-I 0 W/m 11,0 C 15,5 C 16,1 km/h (3 Bft) 100,00 %
24.05.2017 00:44 16,9 C 21,7 C 68 % 1016,2 hPa 0,0 l/m 9,4 km/h (2 Bft) W-SW 243 0 min 0,000 mm 0,0 UV-I 0 W/m 11,0 C 15,5 C 14,5 km/h (3 Bft) 100,00 %
24.05.2017 00:46 16,9 C 21,7 C 68 % 1016,2 hPa 0,0 l/m 9,5 km/h (2 Bft) SW 225 0 min 0,000 mm 0,0 UV-I 0 W/m 11,0 C 15,4 C 12,9 km/h (3 Bft) 97,92 %
24.05.2017 00:48 16,9 C 21,7 C 69 % 1016,2 hPa 0,0 l/m 7,2 km/h (2 Bft) SW 223 0 min 0,000 mm 0,0 UV-I 0 W/m 11,2 C 16,5 C 12,9 km/h (3 Bft) 100,00 %
24.05.2017 00:50 16,9 C 21,7 C 69 % 1016,2 hPa 0,0 l/m 8,9 km/h (2 Bft) SW 219 0 min 0,000 mm 0,0 UV-I 0 W/m 11,2 C 15,7 C 14,5 km/h (3 Bft) 96,23 %
24.05.2017 00:52 16,9 C 21,7 C 69 % 1016,2 hPa 0,0 l/m 8,0 km/h (2 Bft) W-SW 250 0 min 0,000 mm 0,0 UV-I 0 W/m 11,2 C 16,1 C 12,9 km/h (3 Bft) 100,00 %
24.05.2017 00:54 16,8 C 21,7 C 69 % 1016,2 hPa 0,0 l/m 7,8 km/h (2 Bft) S-SW 209 0 min 0,000 mm 0,0 UV-I 0 W/m 11,1 C 16,1 C 12,9 km/h (3 Bft) 94,74 %
24.05.2017 00:56 16,8 C 21,7 C 69 % 1016,2 hPa 0,0 l/m 8,7 km/h (2 Bft) S-SW 197 0 min 0,000 mm 0,0 UV-I 0 W/m 11,1 C 15,7 C 12,9 km/h (3 Bft) 98,11 %
24.05.2017 00:58 16,8 C 21,7 C 69 % 1016,1 hPa 0,0 l/m 8,5 km/h (2 Bft) S-SW 210 0 min 0,000 mm 0,0 UV-I 0 W/m 11,1 C 15,8 C 12,9 km/h (3 Bft) 97,87 %
24.05.2017 01:00 16,8 C 21,7 C 69 % 1016,1 hPa 0,0 l/m 7,8 km/h (2 Bft) SW 233 0 min 0,051 mm 0,0 UV-I 0 W/m 11,1 C 16,1 C 11,3 km/h (2 Bft) 97,87 %
24.05.2017 01:02 16,7 C 21,7 C 69 % 1016,1 hPa 0,0 l/m 9,3 km/h (2 Bft) SW 225 0 min 0,000 mm 0,0 UV-I 0 W/m 11,0 C 15,3 C 16,1 km/h (3 Bft) 100,00 %
24.05.2017 01:04 16,7 C 21,7 C 69 % 1016,1 hPa 0,0 l/m 11,2 km/h (2 Bft) SW 231 0 min 0,000 mm 0,0 UV-I 0 W/m 11,0 C 14,5 C 17,7 km/h (3 Bft) 97,37 %
24.05.2017 01:06 16,7 C 21,7 C 69 % 1016,1 hPa 0,0 l/m 10,9 km/h (2 Bft) W-SW 242 0 min 0,000 mm 0,0 UV-I 0 W/m 11,0 C 14,6 C 16,1 km/h (3 Bft) 100,00 %
24.05.2017 01:08 16,8 C 21,7 C 69 % 1016,1 hPa 0,0 l/m 12,1 km/h (2 Bft) SW 229 0 min 0,000 mm 0,0 UV-I 0 W/m 11,1 C 14,3 C 19,3 km/h (3 Bft) 98,11 %
24.05.2017 01:10 16,8 C 21,7 C 69 % 1016,1 hPa 0,0 l/m 13,5 km/h (3 Bft) W-SW 246 0 min 0,000 mm 0,0 UV-I 0 W/m 11,1 C 13,8 C 20,9 km/h (4 Bft) 97,37 %
24.05.2017 01:12 16,8 C 21,7 C 69 % 1016,1 hPa 0,0 l/m 14,1 km/h (3 Bft) W-SW 240 0 min 0,000 mm 0,0 UV-I 0 W/m 11,1 C 13,6 C 20,9 km/h (4 Bft) 100,00 %
24.05.2017 01:14 16,8 C 21,7 C 70 % 1016,1 hPa 0,0 l/m 13,6 km/h (3 Bft) W-SW 251 0 min 0,000 mm 0,0 UV-I 0 W/m 11,3 C 13,8 C 19,3 km/h (3 Bft) 97,37 %
24.05.2017 01:16 16,8 C 21,7 C 70 % 1016,0 hPa 0,0 l/m 14,4 km/h (3 Bft) W-SW 242 0 min 0,000 mm 0,0 UV-I 0 W/m 11,3 C 13,6 C 19,3 km/h (3 Bft) 96,00 %
24.05.2017 01:18 16,8 C 21,7 C 69 % 1016,0 hPa 0,0 l/m 13,2 km/h (3 Bft) S-SW 204 0 min 0,000 mm 0,0 UV-I 0 W/m 11,1 C 13,9 C 22,5 km/h (4 Bft) 97,37 %
24.05.2017 01:20 16,8 C 21,7 C 69 % 1016,0 hPa 0,0 l/m 14,6 km/h (3 Bft) W-SW 248 0 min 0,000 mm 0,0 UV-I 0 W/m 11,1 C 13,5 C 19,3 km/h (3 Bft) 98,11 %
24.05.2017 01:22 16,9 C 21,7 C 69 % 1016,0 hPa 0,0 l/m 12,1 km/h (2 Bft) S-SW 205 0 min 0,000 mm 0,0 UV-I 0 W/m 11,2 C 14,4 C 22,5 km/h (4 Bft) 100,00 %
24.05.2017 01:24 16,9 C 21,7 C 70 % 1015,9 hPa 0,0 l/m 13,8 km/h (3 Bft) W 261 0 min 0,000 mm 0,0 UV-I 0 W/m 11,4 C 13,9 C 20,9 km/h (4 Bft) 100,00 %
24.05.2017 01:26 16,9 C 21,7 C 69 % 1015,9 hPa 0,0 l/m 15,5 km/h (3 Bft) W-SW 237 0 min 0,000 mm 0,0 UV-I 0 W/m 11,2 C 13,3 C 24,1 km/h (4 Bft) 100,00 %
24.05.2017 01:28 17,0 C 21,7 C 69 % 1015,8 hPa 0,0 l/m 15,3 km/h (3 Bft) SW 227 0 min 0,000 mm 0,0 UV-I 0 W/m 11,3 C 13,5 C 20,9 km/h (4 Bft) 100,00 %
24.05.2017 01:30 17,1 C 21,7 C 69 % 1015,8 hPa 0,0 l/m 16,7 km/h (3 Bft) SW 230 0 min 0,000 mm 0,0 UV-I 0 W/m 11,4 C 13,3 C 24,1 km/h (4 Bft) 100,00 %
24.05.2017 01:32 17,1 C 21,7 C 69 % 1015,8 hPa 0,0 l/m 15,2 km/h (3 Bft) SW 234 0 min 0,000 mm 0,0 UV-I 0 W/m 11,4 C 13,7 C 24,1 km/h (4 Bft) 98,00 %
24.05.2017 01:34 17,1 C 21,7 C 69 % 1015,7 hPa 0,0 l/m 14,7 km/h (3 Bft) SW 223 0 min 0,000 mm 0,0 UV-I 0 W/m 11,4 C 13,8 C 19,3 km/h (3 Bft) 97,87 %
24.05.2017 01:36 17,1 C 21,7 C 69 % 1015,7 hPa 0,0 l/m 15,9 km/h (3 Bft) SW 224 0 min 0,000 mm 0,0 UV-I 0 W/m 11,4 C 13,5 C 25,7 km/h (4 Bft) 98,11 %
24.05.2017 01:38 17,1 C 21,7 C 70 % 1015,7 hPa 0,0 l/m 18,9 km/h (3 Bft) SW 229 0 min 0,000 mm 0,0 UV-I 0 W/m 11,6 C 12,7 C 24,1 km/h (4 Bft) 100,00 %
24.05.2017 01:40 17,1 C 21,7 C 69 % 1015,7 hPa 0,0 l/m 12,4 km/h (3 Bft) SW 230 0 min 0,000 mm 0,0 UV-I 0 W/m 11,4 C 14,6 C 19,3 km/h (3 Bft) 98,00 %
24.05.2017 01:42 17,1 C 21,7 C 70 % 1015,6 hPa 0,0 l/m 13,6 km/h (3 Bft) S-SW 212 0 min 0,000 mm 0,0 UV-I 0 W/m 11,6 C 14,2 C 20,9 km/h (4 Bft) 97,73 %
24.05.2017 01:44 17,1 C 21,1 C 70 % 1015,7 hPa 0,0 l/m 14,0 km/h (3 Bft) SW 223 0 min 0,000 mm 0,0 UV-I 0 W/m 11,6 C 14,0 C 20,9 km/h (4 Bft) 98,11 %
24.05.2017 01:46 17,1 C 21,7 C 70 % 1015,7 hPa 0,0 l/m 15,2 km/h (3 Bft) SW 221 0 min 0,000 mm 0,0 UV-I 0 W/m 11,6 C 13,7 C 20,9 km/h (4 Bft) 95,12 %
24.05.2017 01:48 17,1 C 21,1 C 70 % 1015,6 hPa 0,0 l/m 13,5 km/h (3 Bft) W-SW 248 0 min 0,000 mm 0,0 UV-I 0 W/m 11,6 C 14,2 C 20,9 km/h (4 Bft) 100,00 %
24.05.2017 01:50 17,1 C 21,1 C 70 % 1015,6 hPa 0,0 l/m 15,5 km/h (3 Bft) W-SW 244 0 min 0,000 mm 0,0 UV-I 0 W/m 11,6 C 13,6 C 24,1 km/h (4 Bft) 95,12 %
24.05.2017 01:52 17,1 C 21,1 C 70 % 1015,7 hPa 0,0 l/m 13,6 km/h (3 Bft) W-SW 241 0 min 0,000 mm 0,0 UV-I 0 W/m 11,6 C 14,2 C 24,1 km/h (4 Bft) 100,00 %
24.05.2017 01:54 17,1 C 21,1 C 70 % 1015,7 hPa 0,0 l/m 15,6 km/h (3 Bft) W-SW 245 0 min 0,000 mm 0,0 UV-I 0 W/m 11,6 C 13,6 C 20,9 km/h (4 Bft) 97,73 %
24.05.2017 01:56 17,1 C 21,1 C 70 % 1015,6 hPa 0,0 l/m 13,2 km/h (3 Bft) S-SW 204 0 min 0,000 mm 0,0 UV-I 0 W/m 11,6 C 14,3 C 19,3 km/h (3 Bft) 97,56 %
24.05.2017 01:58 17,1 C 21,1 C 70 % 1015,6 hPa 0,0 l/m 17,4 km/h (3 Bft) SW 232 0 min 0,000 mm 0,0 UV-I 0 W/m 11,6 C 13,1 C 22,5 km/h (4 Bft) 98,00 %
24.05.2017 02:00 17,1 C 21,1 C 70 % 1015,6 hPa 0,0 l/m 14,7 km/h (3 Bft) SW 223 0 min 0,051 mm 0,0 UV-I 0 W/m 11,6 C 13,8 C 20,9 km/h (4 Bft) 95,45 %
24.05.2017 02:02 17,1 C 21,1 C 70 % 1015,5 hPa 0,0 l/m 15,2 km/h (3 Bft) SW 235 0 min 0,000 mm 0,0 UV-I 0 W/m 11,6 C 13,7 C 20,9 km/h (4 Bft) 98,00 %
24.05.2017 02:04 17,0 C 21,1 C 70 % 1015,6 hPa 0,0 l/m 15,4 km/h (3 Bft) SW 227 0 min 0,000 mm 0,0 UV-I 0 W/m 11,5 C 13,5 C 24,1 km/h (4 Bft) 92,86 %
24.05.2017 02:06 16,9 C 21,1 C 71 % 1015,5 hPa 0,0 l/m 14,3 km/h (3 Bft) W-SW 239 0 min 0,000 mm 0,0 UV-I 0 W/m 11,6 C 13,7 C 20,9 km/h (4 Bft) 96,30 %
24.05.2017 02:08 16,9 C 21,1 C 71 % 1015,5 hPa 0,0 l/m 14,0 km/h (3 Bft) SW 232 0 min 0,000 mm 0,0 UV-I 0 W/m 11,6 C 13,8 C 20,9 km/h (4 Bft) 97,37 %
24.05.2017 02:10 16,9 C 21,1 C 71 % 1015,5 hPa 0,0 l/m 14,6 km/h (3 Bft) SW 230 0 min 0,000 mm 0,0 UV-I 0 W/m 11,6 C 13,6 C 19,3 km/h (3 Bft) 96,23 %
24.05.2017 02:12 16,8 C 21,1 C 71 % 1015,5 hPa 0,0 l/m 15,3 km/h (3 Bft) SW 236 0 min 0,000 mm 0,0 UV-I 0 W/m 11,5 C 13,3 C 19,3 km/h (3 Bft) 97,73 %
24.05.2017 02:14 16,8 C 21,1 C 71 % 1015,5 hPa 0,0 l/m 12,1 km/h (2 Bft) SW 229 0 min 0,000 mm 0,0 UV-I 0 W/m 11,5 C 14,3 C 19,3 km/h (3 Bft) 97,87 %
24.05.2017 02:16 16,8 C 21,1 C 71 % 1015,4 hPa 0,0 l/m 12,4 km/h (3 Bft) W 266 0 min 0,000 mm 0,0 UV-I 0 W/m 11,5 C 14,2 C 17,7 km/h (3 Bft) 98,11 %
24.05.2017 02:18 16,7 C 21,1 C 72 % 1015,4 hPa 0,0 l/m 10,5 km/h (2 Bft) SW 229 0 min 0,000 mm 0,0 UV-I 0 W/m 11,6 C 14,8 C 14,5 km/h (3 Bft) 97,73 %
24.05.2017 02:20 16,7 C 21,1 C 72 % 1015,5 hPa 0,0 l/m 12,7 km/h (3 Bft) W-SW 239 0 min 0,000 mm 0,0 UV-I 0 W/m 11,6 C 14,0 C 22,5 km/h (4 Bft) 94,00 %
24.05.2017 02:22 16,7 C 21,1 C 72 % 1015,5 hPa 0,0 l/m 13,2 km/h (3 Bft) SW 230 0 min 0,000 mm 0,0 UV-I 0 W/m 11,6 C 13,8 C 17,7 km/h (3 Bft) 93,18 %
24.05.2017 02:24 16,7 C 21,1 C 72 % 1015,5 hPa 0,0 l/m 9,7 km/h (2 Bft) W-SW 250 0 min 0,000 mm 0,0 UV-I 0 W/m 11,6 C 15,1 C 14,5 km/h (3 Bft) 96,15 %
24.05.2017 02:26 16,6 C 21,1 C 72 % 1015,5 hPa 0,0 l/m 12,4 km/h (3 Bft) SW 234 0 min 0,000 mm 0,0 UV-I 0 W/m 11,5 C 14,0 C 20,9 km/h (4 Bft) 97,06 %
24.05.2017 02:28 16,6 C 21,1 C 72 % 1015,5 hPa 0,0 l/m 17,5 km/h (3 Bft) S-SW 204 0 min 0,000 mm 0,0 UV-I 0 W/m 11,5 C 12,4 C 29,0 km/h (5 Bft) 97,56 %
24.05.2017 02:30 16,7 C 21,1 C 72 % 1015,4 hPa 0,0 l/m 12,1 km/h (2 Bft) SW 234 0 min 0,000 mm 0,0 UV-I 0 W/m 11,6 C 14,2 C 22,5 km/h (4 Bft) 96,43 %
24.05.2017 02:32 16,7 C 21,1 C 72 % 1015,5 hPa 0,0 l/m 13,4 km/h (3 Bft) W-SW 242 0 min 0,000 mm 0,0 UV-I 0 W/m 11,6 C 13,8 C 19,3 km/h (3 Bft) 100,00 %
24.05.2017 02:34 16,7 C 21,1 C 72 % 1015,4 hPa 0,0 l/m 11,1 km/h (2 Bft) W-SW 249 0 min 0,000 mm 0,0 UV-I 0 W/m 11,6 C 14,6 C 17,7 km/h (3 Bft) 98,21 %
24.05.2017 02:36 16,7 C 21,1 C 72 % 1015,4 hPa 0,0 l/m 14,6 km/h (3 Bft) SW 233 0 min 0,000 mm 0,0 UV-I 0 W/m 11,6 C 13,4 C 22,5 km/h (4 Bft) 97,37 %
24.05.2017 02:38 16,7 C 21,1 C 72 % 1015,4 hPa 0,0 l/m 14,6 km/h (3 Bft) W-SW 242 0 min 0,000 mm 0,0 UV-I 0 W/m 11,6 C 13,4 C 19,3 km/h (3 Bft) 100,00 %
24.05.2017 02:40 16,7 C 21,1 C 72 % 1015,4 hPa 0,0 l/m 17,5 km/h (3 Bft) W-SW 237 0 min 0,000 mm 0,0 UV-I 0 W/m 11,6 C 12,6 C 29,0 km/h (5 Bft) 94,83 %
24.05.2017 02:42 16,8 C 21,1 C 72 % 1015,3 hPa 0,0 l/m 14,7 km/h (3 Bft) SW 236 0 min 0,000 mm 0,0 UV-I 0 W/m 11,7 C 13,5 C 24,1 km/h (4 Bft) 97,62 %
24.05.2017 02:44 16,8 C 21,1 C 72 % 1015,4 hPa 0,0 l/m 16,1 km/h (3 Bft) W 277 0 min 0,000 mm 0,0 UV-I 0 W/m 11,7 C 13,1 C 20,9 km/h (4 Bft) 96,23 %
24.05.2017 02:46 16,8 C 21,1 C 72 % 1015,4 hPa 0,0 l/m 14,8 km/h (3 Bft) SW 231 0 min 0,000 mm 0,0 UV-I 0 W/m 11,7 C 13,4 C 22,5 km/h (4 Bft) 97,37 %
24.05.2017 02:48 16,8 C 21,1 C 72 % 1015,4 hPa 0,0 l/m 12,1 km/h (2 Bft) W-SW 246 0 min 0,000 mm 0,0 UV-I 0 W/m 11,7 C 14,3 C 19,3 km/h (3 Bft) 96,23 %
24.05.2017 02:50 16,8 C 21,1 C 72 % 1015,3 hPa 0,0 l/m 15,2 km/h (3 Bft) SW 217 0 min 0,000 mm 0,0 UV-I 0 W/m 11,7 C 13,3 C 22,5 km/h (4 Bft) 95,45 %
24.05.2017 02:52 16,9 C 21,1 C 71 % 1015,3 hPa 0,0 l/m 15,4 km/h (3 Bft) W 265 0 min 0,000 mm 0,0 UV-I 0 W/m 11,6 C 13,4 C 24,1 km/h (4 Bft) 94,64 %
24.05.2017 02:54 16,9 C 21,1 C 71 % 1015,3 hPa 0,0 l/m 11,7 km/h (2 Bft) SW 231 0 min 0,000 mm 0,0 UV-I 0 W/m 11,6 C 14,6 C 19,3 km/h (3 Bft) 95,45 %
24.05.2017 02:56 16,9 C 21,1 C 71 % 1015,3 hPa 0,0 l/m 16,9 km/h (3 Bft) W-SW 248 0 min 0,000 mm 0,0 UV-I 0 W/m 11,6 C 13,0 C 24,1 km/h (4 Bft) 97,56 %
24.05.2017 02:58 16,9 C 21,1 C 71 % 1015,3 hPa 0,0 l/m 12,5 km/h (3 Bft) W-SW 247 0 min 0,000 mm 0,0 UV-I 0 W/m 11,6 C 14,3 C 16,1 km/h (3 Bft) 95,74 %
24.05.2017 03:00 16,9 C 21,1 C 71 % 1015,3 hPa 0,0 l/m 10,0 km/h (2 Bft) SW 227 0 min 0,050 mm 0,0 UV-I 0 W/m 11,6 C 15,2 C 14,5 km/h (3 Bft) 96,00 %
24.05.2017 03:02 16,8 C 21,1 C 71 % 1015,3 hPa 0,0 l/m 11,2 km/h (2 Bft) SW 230 0 min 0,000 mm 0,0 UV-I 0 W/m 11,5 C 14,6 C 16,1 km/h (3 Bft) 98,00 %
24.05.2017 03:04 16,8 C 21,1 C 72 % 1015,3 hPa 0,0 l/m 12,5 km/h (3 Bft) SW 220 0 min 0,000 mm 0,0 UV-I 0 W/m 11,7 C 14,2 C 20,9 km/h (4 Bft) 97,56 %
24.05.2017 03:06 16,8 C 21,1 C 72 % 1015,3 hPa 0,0 l/m 11,8 km/h (2 Bft) SW 220 0 min 0,000 mm 0,0 UV-I 0 W/m 11,7 C 14,4 C 17,7 km/h (3 Bft) 98,11 %
24.05.2017 03:08 16,7 C 21,1 C 72 % 1015,3 hPa 0,0 l/m 11,2 km/h (2 Bft) S-SW 213 0 min 0,000 mm 0,0 UV-I 0 W/m 11,6 C 14,5 C 16,1 km/h (3 Bft) 94,74 %
24.05.2017 03:10 16,7 C 21,1 C 73 % 1015,3 hPa 0,0 l/m 11,7 km/h (2 Bft) W-SW 251 0 min 0,000 mm 0,0 UV-I 0 W/m 11,8 C 14,3 C 16,1 km/h (3 Bft) 95,74 %
24.05.2017 03:12 16,6 C 21,1 C 73 % 1015,3 hPa 0,0 l/m 10,1 km/h (2 Bft) SW 229 0 min 0,000 mm 0,0 UV-I 0 W/m 11,7 C 14,8 C 14,5 km/h (3 Bft) 98,00 %
24.05.2017 03:14 16,5 C 21,1 C 74 % 1015,4 hPa 0,0 l/m 11,0 km/h (2 Bft) W-SW 240 0 min 0,000 mm 0,0 UV-I 0 W/m 11,8 C 14,4 C 17,7 km/h (3 Bft) 93,62 %
24.05.2017 03:16 16,4 C 21,1 C 74 % 1015,3 hPa 0,0 l/m 8,4 km/h (2 Bft) SW 231 0 min 0,000 mm 0,0 UV-I 0 W/m 11,8 C 15,4 C 11,3 km/h (2 Bft) 97,62 %
24.05.2017 03:18 16,4 C 21,1 C 74 % 1015,4 hPa 0,0 l/m 11,9 km/h (2 Bft) W-SW 242 0 min 0,000 mm 0,0 UV-I 0 W/m 11,8 C 13,9 C 17,7 km/h (3 Bft) 95,12 %
24.05.2017 03:20 16,4 C 21,1 C 74 % 1015,3 hPa 0,0 l/m 11,7 km/h (2 Bft) W-SW 248 0 min 0,000 mm 0,0 UV-I 0 W/m 11,8 C 14,0 C 17,7 km/h (3 Bft) 94,64 %
24.05.2017 03:22 16,3 C 21,1 C 74 % 1015,3 hPa 0,0 l/m 8,9 km/h (2 Bft) SW 218 0 min 0,000 mm 0,0 UV-I 0 W/m 11,7 C 15,0 C 12,9 km/h (3 Bft) 96,36 %
24.05.2017 03:24 16,3 C 21,1 C 74 % 1015,3 hPa 0,0 l/m 10,7 km/h (2 Bft) SW 225 0 min 0,000 mm 0,0 UV-I 0 W/m 11,7 C 14,3 C 16,1 km/h (3 Bft) 95,24 %
24.05.2017 03:26 16,3 C 21,1 C 74 % 1015,2 hPa 0,0 l/m 10,3 km/h (2 Bft) SW 234 0 min 0,000 mm 0,0 UV-I 0 W/m 11,7 C 14,4 C 14,5 km/h (3 Bft) 98,00 %
24.05.2017 03:28 16,3 C 21,1 C 75 % 1015,3 hPa 0,0 l/m 9,7 km/h (2 Bft) SW 228 0 min 0,000 mm 0,0 UV-I 0 W/m 11,9 C 14,7 C 16,1 km/h (3 Bft) 98,00 %
24.05.2017 03:30 16,3 C 21,1 C 75 % 1015,3 hPa 0,0 l/m 11,2 km/h (2 Bft) SW 236 0 min 0,000 mm 0,0 UV-I 0 W/m 11,9 C 14,1 C 17,7 km/h (3 Bft) 95,74 %
24.05.2017 03:32 16,3 C 21,1 C 75 % 1015,3 hPa 0,0 l/m 13,7 km/h (3 Bft) W-SW 257 0 min 0,000 mm 0,0 UV-I 0 W/m 11,9 C 13,2 C 19,3 km/h (3 Bft) 92,11 %
24.05.2017 03:34 16,3 C 21,1 C 75 % 1015,3 hPa 0,0 l/m 14,6 km/h (3 Bft) W 265 0 min 0,000 mm 0,0 UV-I 0 W/m 11,9 C 12,9 C 20,9 km/h (4 Bft) 98,11 %
24.05.2017 03:36 16,3 C 21,1 C 75 % 1015,3 hPa 0,0 l/m 13,7 km/h (3 Bft) SW 219 0 min 0,000 mm 0,0 UV-I 0 W/m 11,9 C 13,2 C 24,1 km/h (4 Bft) 95,45 %
24.05.2017 03:38 16,3 C 21,1 C 75 % 1015,3 hPa 0,0 l/m 12,2 km/h (2 Bft) S-SW 211 0 min 0,000 mm 0,0 UV-I 0 W/m 11,9 C 13,7 C 19,3 km/h (3 Bft) 97,56 %
24.05.2017 03:40 16,3 C 21,1 C 75 % 1015,3 hPa 0,0 l/m 12,4 km/h (3 Bft) W 261 0 min 0,000 mm 0,0 UV-I 0 W/m 11,9 C 13,6 C 20,9 km/h (4 Bft) 94,64 %
24.05.2017 03:42 16,3 C 21,1 C 75 % 1015,3 hPa 0,0 l/m 12,6 km/h (3 Bft) SW 215 0 min 0,000 mm 0,0 UV-I 0 W/m 11,9 C 13,6 C 17,7 km/h (3 Bft) 97,37 %
24.05.2017 03:44 16,3 C 21,1 C 75 % 1015,3 hPa 0,0 l/m 11,2 km/h (2 Bft) W-SW 240 0 min 0,000 mm 0,0 UV-I 0 W/m 11,9 C 14,1 C 19,3 km/h (3 Bft) 98,00 %
24.05.2017 03:46 16,3 C 21,1 C 75 % 1015,3 hPa 0,0 l/m 12,8 km/h (3 Bft) W-SW 250 0 min 0,000 mm 0,0 UV-I 0 W/m 11,9 C 13,5 C 19,3 km/h (3 Bft) 94,00 %
24.05.2017 03:48 16,3 C 21,1 C 75 % 1015,3 hPa 0,0 l/m 12,7 km/h (3 Bft) W-SW 248 0 min 0,000 mm 0,0 UV-I 0 W/m 11,9 C 13,5 C 20,9 km/h (4 Bft) 100,00 %
24.05.2017 03:50 16,3 C 21,1 C 75 % 1015,3 hPa 0,0 l/m 11,7 km/h (2 Bft) SW 215 0 min 0,000 mm 0,0 UV-I 0 W/m 11,9 C 13,9 C 19,3 km/h (3 Bft) 98,21 %
24.05.2017 03:52 16,3 C 21,1 C 75 % 1015,3 hPa 0,0 l/m 13,2 km/h (3 Bft) W-SW 252 0 min 0,000 mm 0,0 UV-I 0 W/m 11,9 C 13,3 C 19,3 km/h (3 Bft) 100,00 %
24.05.2017 03:54 16,4 C 21,1 C 75 % 1015,3 hPa 0,0 l/m 13,8 km/h (3 Bft) S-SW 210 0 min 0,000 mm 0,0 UV-I 0 W/m 12,0 C 13,3 C 22,5 km/h (4 Bft) 94,64 %
24.05.2017 03:56 16,4 C 21,1 C 75 % 1015,3 hPa 0,0 l/m 13,0 km/h (3 Bft) SW 235 0 min 0,000 mm 0,0 UV-I 0 W/m 12,0 C 13,5 C 19,3 km/h (3 Bft) 100,00 %
24.05.2017 03:58 16,4 C 21,1 C 75 % 1015,3 hPa 0,0 l/m 11,2 km/h (2 Bft) SW 232 0 min 0,000 mm 0,0 UV-I 0 W/m 12,0 C 14,2 C 17,7 km/h (3 Bft) 96,15 %
24.05.2017 04:00 16,4 C 21,1 C 75 % 1015,3 hPa 0,0 l/m 11,6 km/h (2 Bft) W 264 0 min 0,051 mm 0,0 UV-I 0 W/m 12,0 C 14,0 C 19,3 km/h (3 Bft) 98,00 %
24.05.2017 04:02 16,4 C 21,1 C 74 % 1015,3 hPa 0,0 l/m 13,0 km/h (3 Bft) S-SW 209 0 min 0,000 mm 0,0 UV-I 0 W/m 11,8 C 13,5 C 16,1 km/h (3 Bft) 96,43 %
24.05.2017 04:04 16,4 C 21,1 C 74 % 1015,3 hPa 0,0 l/m 14,7 km/h (3 Bft) SW 222 0 min 0,000 mm 0,0 UV-I 0 W/m 11,8 C 13,0 C 22,5 km/h (4 Bft) 97,78 %
24.05.2017 04:06 16,5 C 21,1 C 74 % 1015,4 hPa 0,0 l/m 13,5 km/h (3 Bft) W-SW 238 0 min 0,000 mm 0,0 UV-I 0 W/m 11,8 C 13,5 C 17,7 km/h (3 Bft) 97,56 %
24.05.2017 04:08 16,5 C 21,1 C 74 % 1015,3 hPa 0,0 l/m 12,8 km/h (3 Bft) W-SW 242 0 min 0,000 mm 0,0 UV-I 0 W/m 11,8 C 13,7 C 19,3 km/h (3 Bft) 96,00 %
24.05.2017 04:10 16,5 C 21,1 C 74 % 1015,3 hPa 0,0 l/m 14,0 km/h (3 Bft) SW 233 0 min 0,000 mm 0,0 UV-I 0 W/m 11,8 C 13,3 C 24,1 km/h (4 Bft) 94,34 %
24.05.2017 04:12 16,6 C 21,1 C 74 % 1015,3 hPa 0,0 l/m 12,3 km/h (3 Bft) SW 223 0 min 0,000 mm 0,0 UV-I 0 W/m 11,9 C 14,0 C 16,1 km/h (3 Bft) 95,12 %
24.05.2017 04:14 16,5 C 21,1 C 74 % 1015,3 hPa 0,0 l/m 14,7 km/h (3 Bft) W-SW 238 0 min 0,000 mm 0,0 UV-I 0 W/m 11,8 C 13,1 C 22,5 km/h (4 Bft) 98,11 %
24.05.2017 04:16 16,6 C 21,1 C 74 % 1015,3 hPa 0,0 l/m 14,4 km/h (3 Bft) W-SW 254 0 min 0,000 mm 0,0 UV-I 0 W/m 11,9 C 13,3 C 20,9 km/h (4 Bft) 94,74 %
24.05.2017 04:18 16,5 C 21,1 C 76 % 1015,3 hPa 0,0 l/m 12,9 km/h (3 Bft) W-SW 257 0 min 0,000 mm 0,0 UV-I 0 W/m 12,3 C 13,7 C 19,3 km/h (3 Bft) 97,73 %
24.05.2017 04:20 16,4 C 21,1 C 77 % 1015,3 hPa 0,0 l/m 12,4 km/h (3 Bft) SW 233 0 min 0,000 mm 0,0 UV-I 0 W/m 12,4 C 13,7 C 17,7 km/h (3 Bft) 96,23 %
24.05.2017 04:22 16,3 C 21,1 C 77 % 1015,3 hPa 0,0 l/m 12,7 km/h (3 Bft) W-SW 246 0 min 0,000 mm 0,0 UV-I 0 W/m 12,3 C 13,5 C 17,7 km/h (3 Bft) 96,23 %
24.05.2017 04:24 16,2 C 21,1 C 78 % 1015,4 hPa 0,0 l/m 12,8 km/h (3 Bft) SW 219 0 min 0,000 mm 0,0 UV-I 0 W/m 12,4 C 13,4 C 17,7 km/h (3 Bft) 97,37 %
24.05.2017 04:26 16,2 C 21,1 C 78 % 1015,3 hPa 0,0 l/m 12,6 km/h (3 Bft) W-SW 244 0 min 0,000 mm 0,0 UV-I 0 W/m 12,4 C 13,4 C 19,3 km/h (3 Bft) 94,00 %
24.05.2017 04:28 16,1 C 21,1 C 78 % 1015,3 hPa 0,0 l/m 10,5 km/h (2 Bft) W-SW 241 0 min 0,000 mm 0,0 UV-I 0 W/m 12,3 C 14,1 C 16,1 km/h (3 Bft) 96,23 %
24.05.2017 04:30 16,1 C 21,1 C 78 % 1015,3 hPa 0,0 l/m 12,9 km/h (3 Bft) SW 235 0 min 0,000 mm 0,0 UV-I 0 W/m 12,3 C 13,2 C 19,3 km/h (3 Bft) 97,56 %
24.05.2017 04:32 16,0 C 21,1 C 78 % 1015,3 hPa 0,0 l/m 11,7 km/h (2 Bft) SW 217 0 min 0,000 mm 0,0 UV-I 0 W/m 12,2 C 13,5 C 17,7 km/h (3 Bft) 97,56 %
24.05.2017 04:34 16,0 C 21,1 C 78 % 1015,3 hPa 0,0 l/m 11,4 km/h (2 Bft) W-SW 252 0 min 0,000 mm 0,0 UV-I 0 W/m 12,2 C 13,7 C 16,1 km/h (3 Bft) 98,21 %
24.05.2017 04:36 16,0 C 21,1 C 78 % 1015,3 hPa 0,0 l/m 11,5 km/h (2 Bft) W-SW 251 0 min 0,000 mm 0,0 UV-I 0 W/m 12,2 C 13,6 C 16,1 km/h (3 Bft) 97,56 %
24.05.2017 04:38 16,0 C 21,1 C 78 % 1015,3 hPa 0,0 l/m 12,3 km/h (3 Bft) SW 232 0 min 0,000 mm 0,0 UV-I 0 W/m 12,2 C 13,3 C 16,1 km/h (3 Bft) 95,24 %
24.05.2017 04:40 15,9 C 21,1 C 78 % 1015,3 hPa 0,0 l/m 9,5 km/h (2 Bft) W-SW 250 0 min 0,000 mm 0,0 UV-I 0 W/m 12,1 C 14,3 C 16,1 km/h (3 Bft) 98,11 %
24.05.2017 04:42 15,9 C 21,1 C 78 % 1015,2 hPa 0,0 l/m 11,0 km/h (2 Bft) W-SW 254 0 min 0,000 mm 0,0 UV-I 0 W/m 12,1 C 13,7 C 16,1 km/h (3 Bft) 98,11 %
24.05.2017 04:44 15,9 C 21,1 C 78 % 1015,3 hPa 0,0 l/m 7,9 km/h (2 Bft) SW 219 0 min 0,000 mm 0,0 UV-I 0 W/m 12,1 C 15,1 C 12,9 km/h (3 Bft) 95,74 %
24.05.2017 04:46 15,9 C 21,1 C 78 % 1015,3 hPa 0,0 l/m 10,2 km/h (2 Bft) SW 227 0 min 0,000 mm 0,0 UV-I 0 W/m 12,1 C 14,0 C 16,1 km/h (3 Bft) 100,00 %
24.05.2017 04:48 15,9 C 21,1 C 78 % 1015,3 hPa 0,0 l/m 10,0 km/h (2 Bft) SW 222 0 min 0,000 mm 0,0 UV-I 0 W/m 12,1 C 14,1 C 16,1 km/h (3 Bft) 100,00 %
24.05.2017 04:50 15,9 C 21,1 C 79 % 1015,3 hPa 0,0 l/m 10,3 km/h (2 Bft) W-SW 239 0 min 0,000 mm 0,0 UV-I 0 W/m 12,3 C 14,0 C 16,1 km/h (3 Bft) 100,00 %
24.05.2017 04:52 15,9 C 21,1 C 79 % 1015,3 hPa 0,0 l/m 8,9 km/h (2 Bft) SW 223 0 min 0,000 mm 0,0 UV-I 0 W/m 12,3 C 14,6 C 12,9 km/h (3 Bft) 98,11 %
24.05.2017 04:54 15,8 C 21,1 C 79 % 1015,3 hPa 0,0 l/m 9,2 km/h (2 Bft) SW 235 0 min 0,000 mm 0,0 UV-I 0 W/m 12,2 C 14,4 C 11,3 km/h (2 Bft) 100,00 %
24.05.2017 04:56 15,8 C 21,1 C 79 % 1015,3 hPa 0,0 l/m 11,4 km/h (2 Bft) SW 219 0 min 0,000 mm 0,0 UV-I 0 W/m 12,2 C 13,4 C 16,1 km/h (3 Bft) 100,00 %
24.05.2017 04:58 15,8 C 21,1 C 79 % 1015,3 hPa 0,0 l/m 10,1 km/h (2 Bft) S-SW 211 0 min 0,000 mm 0,0 UV-I 0 W/m 12,2 C 14,0 C 14,5 km/h (3 Bft) 100,00 %
24.05.2017 05:00 15,8 C 21,1 C 79 % 1015,3 hPa 0,0 l/m 9,4 km/h (2 Bft) SW 236 0 min 0,051 mm 0,0 UV-I 0 W/m 12,2 C 14,3 C 12,9 km/h (3 Bft) 100,00 %
24.05.2017 05:02 15,8 C 21,1 C 79 % 1015,4 hPa 0,0 l/m 9,7 km/h (2 Bft) W-SW 241 0 min 0,000 mm 0,0 UV-I 0 W/m 12,2 C 14,1 C 14,5 km/h (3 Bft) 100,00 %
24.05.2017 05:04 15,8 C 21,1 C 79 % 1015,3 hPa 0,0 l/m 9,3 km/h (2 Bft) SW 232 0 min 0,000 mm 0,0 UV-I 0 W/m 12,2 C 14,3 C 14,5 km/h (3 Bft) 98,00 %
24.05.2017 05:06 15,8 C 21,1 C 79 % 1015,3 hPa 0,0 l/m 10,8 km/h (2 Bft) S-SW 207 0 min 0,000 mm 0,0 UV-I 0 W/m 12,2 C 13,7 C 16,1 km/h (3 Bft) 100,00 %
24.05.2017 05:08 15,8 C 21,1 C 79 % 1015,3 hPa 0,0 l/m 10,2 km/h (2 Bft) W 264 0 min 0,000 mm 0,0 UV-I 0 W/m 12,2 C 13,9 C 16,1 km/h (3 Bft) 97,73 %
24.05.2017 05:10 15,8 C 21,1 C 79 % 1015,3 hPa 0,0 l/m 9,5 km/h (2 Bft) W-SW 244 0 min 0,000 mm 0,0 UV-I 0 W/m 12,2 C 14,2 C 14,5 km/h (3 Bft) 98,00 %
24.05.2017 05:12 15,8 C 21,1 C 79 % 1015,3 hPa 0,0 l/m 10,6 km/h (2 Bft) SW 231 0 min 0,000 mm 0,0 UV-I 0 W/m 12,2 C 13,7 C 12,9 km/h (3 Bft) 97,37 %
24.05.2017 05:14 15,8 C 21,1 C 79 % 1015,3 hPa 0,0 l/m 10,3 km/h (2 Bft) SW 235 0 min 0,000 mm 0,0 UV-I 0 W/m 12,2 C 13,9 C 17,7 km/h (3 Bft) 98,11 %
24.05.2017 05:16 15,8 C 21,1 C 79 % 1015,3 hPa 0,0 l/m 11,4 km/h (2 Bft) SW 234 0 min 0,000 mm 0,0 UV-I 4 W/m 12,2 C 13,4 C 17,7 km/h (3 Bft) 100,00 %
24.05.2017 05:18 15,8 C 21,1 C 79 % 1015,3 hPa 0,0 l/m 13,0 km/h (3 Bft) W-SW 242 0 min 0,000 mm 0,0 UV-I 5 W/m 12,2 C 12,8 C 19,3 km/h (3 Bft) 98,18 %
24.05.2017 05:20 15,8 C 21,1 C 78 % 1015,3 hPa 0,0 l/m 13,0 km/h (3 Bft) W-SW 250 0 min 0,000 mm 0,0 UV-I 5 W/m 12,0 C 12,8 C 19,3 km/h (3 Bft) 100,00 %
24.05.2017 05:22 15,8 C 21,1 C 78 % 1015,3 hPa 0,0 l/m 10,6 km/h (2 Bft) S-SW 209 0 min 0,000 mm 0,0 UV-I 5 W/m 12,0 C 13,7 C 16,1 km/h (3 Bft) 96,00 %
24.05.2017 05:24 15,8 C 21,1 C 79 % 1015,3 hPa 0,0 l/m 12,1 km/h (2 Bft) W-SW 248 0 min 0,000 mm 0,0 UV-I 5 W/m 12,2 C 13,2 C 16,1 km/h (3 Bft) 98,00 %
24.05.2017 05:26 15,9 C 21,1 C 79 % 1015,4 hPa 0,0 l/m 11,1 km/h (2 Bft) SW 221 0 min 0,000 mm 0,0 UV-I 7 W/m 12,3 C 13,7 C 14,5 km/h (3 Bft) 100,00 %
24.05.2017 05:28 15,8 C 21,1 C 79 % 1015,5 hPa 0,0 l/m 10,5 km/h (2 Bft) W-SW 242 0 min 0,000 mm 0,0 UV-I 7 W/m 12,2 C 13,8 C 14,5 km/h (3 Bft) 98,11 %
24.05.2017 05:30 15,8 C 21,1 C 79 % 1015,5 hPa 0,0 l/m 8,2 km/h (2 Bft) W-SW 244 0 min 0,000 mm 0,0 UV-I 7 W/m 12,2 C 14,8 C 11,3 km/h (2 Bft) 100,00 %
24.05.2017 05:32 15,8 C 21,1 C 79 % 1015,6 hPa 0,0 l/m 10,4 km/h (2 Bft) W 263 0 min 0,000 mm 0,0 UV-I 7 W/m 12,2 C 13,8 C 12,9 km/h (3 Bft) 97,56 %
24.05.2017 05:34 15,8 C 21,1 C 79 % 1015,6 hPa 0,0 l/m 9,6 km/h (2 Bft) SW 234 0 min 0,000 mm 0,0 UV-I 8 W/m 12,2 C 14,2 C 14,5 km/h (3 Bft) 98,11 %
24.05.2017 05:36 15,8 C 21,1 C 78 % 1015,6 hPa 0,0 l/m 10,9 km/h (2 Bft) W-SW 257 0 min 0,000 mm 0,0 UV-I 8 W/m 12,0 C 13,6 C 16,1 km/h (3 Bft) 97,56 %
24.05.2017 05:38 15,8 C 21,1 C 78 % 1015,6 hPa 0,0 l/m 10,4 km/h (2 Bft) S-SW 213 0 min 0,000 mm 0,0 UV-I 7 W/m 12,0 C 13,8 C 16,1 km/h (3 Bft) 96,23 %
24.05.2017 05:40 15,9 C 21,1 C 78 % 1015,6 hPa 0,0 l/m 9,7 km/h (2 Bft) SW 229 0 min 0,000 mm 0,0 UV-I 7 W/m 12,1 C 14,2 C 12,9 km/h (3 Bft) 100,00 %
24.05.2017 05:42 15,9 C 21,1 C 78 % 1015,5 hPa 0,0 l/m 10,0 km/h (2 Bft) W-SW 244 0 min 0,000 mm 0,0 UV-I 7 W/m 12,1 C 14,1 C 14,5 km/h (3 Bft) 100,00 %
24.05.2017 05:44 15,9 C 21,1 C 78 % 1015,6 hPa 0,0 l/m 9,8 km/h (2 Bft) W-SW 237 0 min 0,000 mm 0,0 UV-I 7 W/m 12,1 C 14,2 C 14,5 km/h (3 Bft) 97,87 %
24.05.2017 05:46 15,9 C 21,1 C 78 % 1015,6 hPa 0,0 l/m 9,1 km/h (2 Bft) W-NW 294 0 min 0,000 mm 0,0 UV-I 7 W/m 12,1 C 14,5 C 14,5 km/h (3 Bft) 100,00 %
24.05.2017 05:48 16,0 C 21,1 C 78 % 1015,6 hPa 0,0 l/m 10,5 km/h (2 Bft) W-SW 241 0 min 0,000 mm 0,0 UV-I 7 W/m 12,2 C 14,0 C 16,1 km/h (3 Bft) 95,12 %
24.05.2017 05:50 16,0 C 21,1 C 78 % 1015,6 hPa 0,0 l/m 9,7 km/h (2 Bft) S-SW 194 0 min 0,000 mm 0,0 UV-I 8 W/m 12,2 C 14,4 C 14,5 km/h (3 Bft) 98,31 %
24.05.2017 05:52 16,0 C 21,1 C 78 % 1015,6 hPa 0,0 l/m 8,7 km/h (2 Bft) W 268 0 min 0,000 mm 0,0 UV-I 9 W/m 12,2 C 14,8 C 14,5 km/h (3 Bft) 100,00 %
24.05.2017 05:54 16,0 C 21,1 C 78 % 1015,7 hPa 0,0 l/m 8,5 km/h (2 Bft) W-SW 249 0 min 0,000 mm 0,0 UV-I 8 W/m 12,2 C 14,9 C 12,9 km/h (3 Bft) 97,87 %
24.05.2017 05:56 16,1 C 21,1 C 78 % 1015,8 hPa 0,0 l/m 10,1 km/h (2 Bft) W-SW 250 0 min 0,000 mm 0,0 UV-I 7 W/m 12,3 C 14,3 C 14,5 km/h (3 Bft) 98,00 %
24.05.2017 05:58 16,1 C 21,1 C 78 % 1015,9 hPa 0,0 l/m 11,0 km/h (2 Bft) W 261 0 min 0,000 mm 0,0 UV-I 5 W/m 12,3 C 13,9 C 16,1 km/h (3 Bft) 100,00 %
24.05.2017 06:00 16,1 C 21,1 C 78 % 1016,0 hPa 0,0 l/m 8,8 km/h (2 Bft) W-SW 251 0 min 0,025 mm 0,0 UV-I 5 W/m 12,3 C 14,9 C 12,9 km/h (3 Bft) 96,61 %
24.05.2017 06:02 16,1 C 21,1 C 78 % 1016,0 hPa 0,0 l/m 7,4 km/h (2 Bft) W-SW 247 0 min 0,000 mm 0,0 UV-I 6 W/m 12,3 C 15,6 C 12,9 km/h (3 Bft) 97,62 %
24.05.2017 06:04 16,1 C 21,1 C 79 % 1015,9 hPa 0,0 l/m 8,5 km/h (2 Bft) SW 234 0 min 0,000 mm 0,0 UV-I 7 W/m 12,5 C 15,0 C 14,5 km/h (3 Bft) 98,11 %
24.05.2017 06:06 16,1 C 21,1 C 79 % 1015,9 hPa 0,0 l/m 9,4 km/h (2 Bft) W-SW 250 0 min 0,000 mm 0,0 UV-I 8 W/m 12,5 C 14,6 C 14,5 km/h (3 Bft) 94,74 %
24.05.2017 06:08 16,0 C 21,1 C 80 % 1016,0 hPa 0,0 l/m 9,7 km/h (2 Bft) W-SW 245 0 min 0,000 mm 0,0 UV-I 9 W/m 12,5 C 14,4 C 14,5 km/h (3 Bft) 96,43 %
24.05.2017 06:10 15,9 C 21,1 C 80 % 1016,1 hPa 0,2 l/m 9,0 km/h (2 Bft) SW 234 0 min 0,000 mm 0,0 UV-I 10 W/m 12,5 C 14,6 C 14,5 km/h (3 Bft) 97,73 %
24.05.2017 06:12 15,9 C 21,1 C 81 % 1015,9 hPa 0,0 l/m 13,4 km/h (3 Bft) W 266 0 min 0,000 mm 0,0 UV-I 11 W/m 12,6 C 12,8 C 20,9 km/h (4 Bft) 97,73 %
24.05.2017 06:14 15,8 C 21,1 C 82 % 1015,8 hPa 0,2 l/m 10,1 km/h (2 Bft) W-SW 245 0 min 0,000 mm 0,0 UV-I 15 W/m 12,7 C 14,0 C 14,5 km/h (3 Bft) 95,12 %
24.05.2017 06:16 15,7 C 21,1 C 83 % 1015,8 hPa 0,0 l/m 5,0 km/h (1 Bft) W-SW 241 0 min 0,000 mm 0,0 UV-I 19 W/m 12,8 C 15,7 C 9,7 km/h (2 Bft) 90,57 %
24.05.2017 06:18 15,6 C 21,1 C 84 % 1015,7 hPa 0,0 l/m 5,8 km/h (2 Bft) W 279 0 min 0,000 mm 0,0 UV-I 23 W/m 12,9 C 15,6 C 11,3 km/h (2 Bft) 96,00 %
24.05.2017 06:20 15,4 C 21,1 C 85 % 1015,8 hPa 0,0 l/m 6,0 km/h (2 Bft) W 261 0 min 0,000 mm 0,0 UV-I 27 W/m 12,9 C 15,4 C 9,7 km/h (2 Bft) 97,73 %
24.05.2017 06:22 15,3 C 21,1 C 86 % 1015,8 hPa 0,0 l/m 6,0 km/h (2 Bft) W-SW 248 0 min 0,000 mm 0,0 UV-I 33 W/m 13,0 C 15,3 C 8,0 km/h (2 Bft) 97,87 %
24.05.2017 06:24 15,3 C 21,1 C 86 % 1015,8 hPa 0,0 l/m 6,8 km/h (2 Bft) W-SW 256 0 min 0,000 mm 0,0 UV-I 39 W/m 13,0 C 15,1 C 9,7 km/h (2 Bft) 98,00 %
24.05.2017 06:26 15,3 C 21,1 C 86 % 1015,8 hPa 0,0 l/m 8,3 km/h (2 Bft) W-SW 242 0 min 0,000 mm 0,0 UV-I 41 W/m 13,0 C 14,3 C 12,9 km/h (3 Bft) 94,74 %
24.05.2017 06:28 15,3 C 21,1 C 87 % 1015,9 hPa 0,0 l/m 9,1 km/h (2 Bft) W-SW 255 0 min 0,000 mm 0,0 UV-I 43 W/m 13,1 C 13,9 C 14,5 km/h (3 Bft) 98,11 %
24.05.2017 06:30 15,2 C 21,1 C 86 % 1015,9 hPa 0,0 l/m 8,0 km/h (2 Bft) W-SW 239 0 min 0,000 mm 0,0 UV-I 44 W/m 12,9 C 14,3 C 14,5 km/h (3 Bft) 97,73 %
24.05.2017 06:32 15,2 C 21,1 C 86 % 1015,9 hPa 0,0 l/m 9,4 km/h (2 Bft) W-SW 256 0 min 0,000 mm 0,0 UV-I 44 W/m 12,9 C 13,6 C 12,9 km/h (3 Bft) 98,00 %
24.05.2017 06:34 15,2 C 21,1 C 86 % 1016,0 hPa 0,0 l/m 8,0 km/h (2 Bft) SW 225 0 min 0,000 mm 0,0 UV-I 36 W/m 12,9 C 14,3 C 12,9 km/h (3 Bft) 97,62 %
24.05.2017 06:36 15,2 C 21,1 C 87 % 1016,1 hPa 0,0 l/m 9,9 km/h (2 Bft) W-SW 253 0 min 0,000 mm 0,0 UV-I 23 W/m 13,0 C 13,4 C 14,5 km/h (3 Bft) 97,96 %
24.05.2017 06:38 15,2 C 21,1 C 87 % 1016,3 hPa 0,0 l/m 11,9 km/h (2 Bft) W-SW 257 0 min 0,000 mm 0,0 UV-I 16 W/m 13,0 C 12,5 C 16,1 km/h (3 Bft) 97,62 %
24.05.2017 06:40 15,1 C 21,1 C 87 % 1016,3 hPa 0,0 l/m 12,7 km/h (3 Bft) W-SW 254 0 min 0,000 mm 0,0 UV-I 13 W/m 13,0 C 12,1 C 17,7 km/h (3 Bft) 98,00 %
24.05.2017 06:42 15,1 C 21,1 C 88 % 1016,2 hPa 0,0 l/m 8,7 km/h (2 Bft) W 259 0 min 0,000 mm 0,0 UV-I 12 W/m 13,1 C 13,8 C 14,5 km/h (3 Bft) 98,11 %
24.05.2017 06:44 15,1 C 21,1 C 87 % 1016,2 hPa 0,0 l/m 7,6 km/h (2 Bft) W-SW 249 0 min 0,000 mm 0,0 UV-I 13 W/m 13,0 C 14,4 C 12,9 km/h (3 Bft) 97,56 %
24.05.2017 06:46 15,1 C 21,1 C 88 % 1016,3 hPa 0,0 l/m 9,7 km/h (2 Bft) W 266 0 min 0,000 mm 0,0 UV-I 16 W/m 13,1 C 13,4 C 14,5 km/h (3 Bft) 98,00 %
24.05.2017 06:48 15,1 C 21,1 C 88 % 1016,3 hPa 0,0 l/m 6,8 km/h (2 Bft) W-SW 248 0 min 0,000 mm 0,0 UV-I 20 W/m 13,1 C 14,9 C 11,3 km/h (2 Bft) 97,56 %
24.05.2017 06:50 15,1 C 21,1 C 88 % 1016,2 hPa 0,2 l/m 6,3 km/h (2 Bft) SW 229 0 min 0,000 mm 0,0 UV-I 26 W/m 13,1 C 15,1 C 9,7 km/h (2 Bft) 94,34 %
24.05.2017 06:52 15,0 C 21,1 C 89 % 1016,2 hPa 0,0 l/m 6,9 km/h (2 Bft) SW 228 0 min 0,000 mm 0,0 UV-I 26 W/m 13,2 C 14,7 C 9,7 km/h (2 Bft) 100,00 %
24.05.2017 06:54 15,0 C 21,1 C 89 % 1016,2 hPa 0,0 l/m 7,4 km/h (2 Bft) W-SW 244 0 min 0,000 mm 0,0 UV-I 29 W/m 13,2 C 14,4 C 12,9 km/h (3 Bft) 92,45 %
24.05.2017 06:56 14,9 C 21,1 C 89 % 1016,2 hPa 0,0 l/m 10,4 km/h (2 Bft) SW 234 0 min 0,000 mm 0,0 UV-I 34 W/m 13,1 C 12,8 C 16,1 km/h (3 Bft) 96,00 %
24.05.2017 06:58 15,0 C 21,1 C 90 % 1016,3 hPa 0,0 l/m 10,8 km/h (2 Bft) SW 233 0 min 0,000 mm 0,0 UV-I 38 W/m 13,4 C 12,8 C 16,1 km/h (3 Bft) 97,37 %
24.05.2017 07:00 15,0 C 21,1 C 90 % 1016,3 hPa 0,0 l/m 10,6 km/h (2 Bft) SW 236 0 min 0,026 mm 0,0 UV-I 40 W/m 13,4 C 12,9 C 16,1 km/h (3 Bft) 92,00 %
24.05.2017 07:02 15,0 C 21,1 C 90 % 1016,3 hPa 0,0 l/m 10,4 km/h (2 Bft) W-SW 250 0 min 0,000 mm 0,0 UV-I 43 W/m 13,4 C 12,9 C 14,5 km/h (3 Bft) 95,12 %
24.05.2017 07:04 15,0 C 21,1 C 90 % 1016,2 hPa 0,0 l/m 10,9 km/h (2 Bft) S 183 0 min 0,000 mm 0,0 UV-I 48 W/m 13,4 C 12,7 C 14,5 km/h (3 Bft) 94,00 %
24.05.2017 07:06 15,0 C 21,1 C 90 % 1016,2 hPa 0,0 l/m 12,4 km/h (3 Bft) W-SW 248 0 min 0,000 mm 0,0 UV-I 46 W/m 13,4 C 12,1 C 16,1 km/h (3 Bft) 92,86 %
24.05.2017 07:08 15,1 C 21,1 C 90 % 1016,2 hPa 0,0 l/m 11,2 km/h (2 Bft) SW 221 0 min 0,000 mm 0,0 UV-I 41 W/m 13,5 C 12,7 C 16,1 km/h (3 Bft) 94,74 %
24.05.2017 07:10 15,1 C 21,1 C 89 % 1016,3 hPa 0,0 l/m 10,0 km/h (2 Bft) W-SW 250 0 min 0,000 mm 0,0 UV-I 31 W/m 13,3 C 13,2 C 12,9 km/h (3 Bft) 94,34 %
24.05.2017 07:12 15,2 C 21,1 C 89 % 1016,3 hPa 0,0 l/m 9,4 km/h (2 Bft) SW 230 0 min 0,000 mm 0,0 UV-I 33 W/m 13,4 C 13,6 C 14,5 km/h (3 Bft) 92,68 %
24.05.2017 07:14 15,2 C 21,1 C 89 % 1016,3 hPa 0,0 l/m 11,9 km/h (2 Bft) SW 220 0 min 0,000 mm 0,0 UV-I 42 W/m 13,4 C 12,5 C 17,7 km/h (3 Bft) 94,34 %
24.05.2017 07:16 15,2 C 21,1 C 89 % 1016,4 hPa 0,0 l/m 10,5 km/h (2 Bft) SW 219 0 min 0,000 mm 0,0 UV-I 54 W/m 13,4 C 13,1 C 17,7 km/h (3 Bft) 95,24 %
24.05.2017 07:18 15,2 C 21,1 C 89 % 1016,4 hPa 0,0 l/m 9,3 km/h (2 Bft) SW 217 0 min 0,000 mm 0,0 UV-I 69 W/m 13,4 C 13,7 C 12,9 km/h (3 Bft) 95,45 %
24.05.2017 07:20 15,2 C 21,1 C 89 % 1016,4 hPa 0,0 l/m 6,9 km/h (2 Bft) W-SW 245 0 min 0,000 mm 0,0 UV-I 82 W/m 13,4 C 14,9 C 9,7 km/h (2 Bft) 96,00 %
24.05.2017 07:22 15,3 C 21,1 C 89 % 1016,4 hPa 0,0 l/m 7,8 km/h (2 Bft) SW 233 0 min 0,000 mm 0,0 UV-I 76 W/m 13,5 C 14,5 C 12,9 km/h (3 Bft) 98,00 %
24.05.2017 07:24 15,3 C 20,6 C 89 % 1016,4 hPa 0,0 l/m 7,5 km/h (2 Bft) S-SW 211 0 min 0,000 mm 0,0 UV-I 57 W/m 13,5 C 14,7 C 11,3 km/h (2 Bft) 95,12 %
24.05.2017 07:26 15,3 C 20,6 C 89 % 1016,5 hPa 0,0 l/m 7,9 km/h (2 Bft) SW 223 0 min 0,000 mm 0,0 UV-I 52 W/m 13,5 C 14,5 C 12,9 km/h (3 Bft) 97,73 %
24.05.2017 07:28 15,3 C 20,6 C 89 % 1016,5 hPa 0,0 l/m 8,0 km/h (2 Bft) SW 229 0 min 0,000 mm 0,0 UV-I 56 W/m 13,5 C 14,4 C 16,1 km/h (3 Bft) 92,86 %
24.05.2017 07:30 15,3 C 20,6 C 89 % 1016,4 hPa 0,0 l/m 9,3 km/h (2 Bft) SW 226 0 min 0,000 mm 0,0 UV-I 66 W/m 13,5 C 13,8 C 12,9 km/h (3 Bft) 94,00 %
24.05.2017 07:32 15,3 C 21,1 C 89 % 1016,6 hPa 0,0 l/m 9,1 km/h (2 Bft) W-SW 245 0 min 0,000 mm 0,0 UV-I 85 W/m 13,5 C 13,9 C 12,9 km/h (3 Bft) 95,45 %
24.05.2017 07:34 15,4 C 20,6 C 88 % 1016,6 hPa 0,0 l/m 9,2 km/h (2 Bft) SW 232 0 min 0,000 mm 0,0 UV-I 91 W/m 13,4 C 13,9 C 14,5 km/h (3 Bft) 92,68 %
24.05.2017 07:36 15,4 C 20,6 C 88 % 1016,6 hPa 0,0 l/m 11,1 km/h (2 Bft) W-SW 243 0 min 0,000 mm 0,0 UV-I 87 W/m 13,4 C 13,1 C 14,5 km/h (3 Bft) 95,12 %
24.05.2017 07:38 15,5 C 20,6 C 88 % 1016,6 hPa 0,0 l/m 8,5 km/h (2 Bft) SW 221 0 min 0,000 mm 0,0 UV-I 77 W/m 13,5 C 14,4 C 14,5 km/h (3 Bft) 100,00 %
24.05.2017 07:40 15,5 C 20,6 C 88 % 1016,6 hPa 0,0 l/m 12,1 km/h (2 Bft) SW 233 0 min 0,000 mm 0,0 UV-I 64 W/m 13,5 C 12,8 C 16,1 km/h (3 Bft) 97,37 %
24.05.2017 07:42 15,5 C 20,6 C 88 % 1016,6 hPa 0,0 l/m 8,9 km/h (2 Bft) W-SW 248 0 min 0,000 mm 0,0 UV-I 58 W/m 13,5 C 14,2 C 14,5 km/h (3 Bft) 94,34 %
24.05.2017 07:44 15,6 C 20,6 C 88 % 1016,6 hPa 0,0 l/m 11,5 km/h (2 Bft) SW 234 0 min 0,000 mm 0,0 UV-I 58 W/m 13,6 C 13,2 C 16,1 km/h (3 Bft) 97,56 %
24.05.2017 07:46 15,6 C 20,6 C 88 % 1016,7 hPa 0,0 l/m 10,9 km/h (2 Bft) W-SW 240 0 min 0,000 mm 0,0 UV-I 59 W/m 13,6 C 13,4 C 14,5 km/h (3 Bft) 98,21 %
24.05.2017 07:48 15,6 C 20,6 C 88 % 1016,6 hPa 0,0 l/m 9,0 km/h (2 Bft) W-SW 244 0 min 0,000 mm 0,0 UV-I 66 W/m 13,6 C 14,2 C 16,1 km/h (3 Bft) 90,24 %
24.05.2017 07:50 15,7 C 20,6 C 87 % 1016,6 hPa 0,0 l/m 9,8 km/h (2 Bft) SW 231 0 min 0,000 mm 0,0 UV-I 80 W/m 13,5 C 14,0 C 14,5 km/h (3 Bft) 96,00 %
24.05.2017 07:52 15,7 C 20,6 C 87 % 1016,6 hPa 0,0 l/m 11,1 km/h (2 Bft) SW 219 0 min 0,000 mm 0,0 UV-I 84 W/m 13,5 C 13,4 C 16,1 km/h (3 Bft) 98,00 %
24.05.2017 07:54 15,7 C 20,6 C 87 % 1016,7 hPa 0,0 l/m 10,4 km/h (2 Bft) SW 224 0 min 0,000 mm 0,0 UV-I 84 W/m 13,5 C 13,7 C 16,1 km/h (3 Bft) 100,00 %
24.05.2017 07:56 15,8 C 20,6 C 87 % 1016,7 hPa 0,0 l/m 10,3 km/h (2 Bft) W-SW 246 0 min 0,000 mm 0,0 UV-I 94 W/m 13,6 C 13,9 C 14,5 km/h (3 Bft) 97,56 %
24.05.2017 07:58 15,8 C 20,6 C 87 % 1016,8 hPa 0,0 l/m 10,1 km/h (2 Bft) SW 215 0 min 0,000 mm 0,0 UV-I 121 W/m 13,6 C 14,0 C 14,5 km/h (3 Bft) 96,23 %
24.05.2017 08:00 15,8 C 21,1 C 87 % 1016,7 hPa 0,0 l/m 8,2 km/h (2 Bft) SW 227 0 min 0,051 mm 0,0 UV-I 146 W/m 13,6 C 14,8 C 12,9 km/h (3 Bft) 98,31 %
24.05.2017 08:02 15,9 C 20,6 C 87 % 1016,7 hPa 0,0 l/m 11,5 km/h (2 Bft) W-SW 238 0 min 0,000 mm 0,3 UV-I 164 W/m 13,7 C 13,5 C 19,3 km/h (3 Bft) 97,37 %
24.05.2017 08:04 16,0 C 21,1 C 86 % 1016,8 hPa 0,0 l/m 10,4 km/h (2 Bft) SW 217 0 min 0,000 mm 0,5 UV-I 183 W/m 13,7 C 14,1 C 16,1 km/h (3 Bft) 98,00 %
24.05.2017 08:06 16,1 C 21,1 C 86 % 1016,8 hPa 0,0 l/m 9,9 km/h (2 Bft) W 259 0 min 0,000 mm 0,5 UV-I 191 W/m 13,8 C 14,4 C 16,1 km/h (3 Bft) 92,11 %
24.05.2017 08:08 16,2 C 21,1 C 86 % 1016,9 hPa 0,0 l/m 11,5 km/h (2 Bft) W-SW 237 0 min 0,000 mm 0,6 UV-I 215 W/m 13,9 C 13,8 C 17,7 km/h (3 Bft) 98,21 %
24.05.2017 08:10 16,3 C 21,1 C 85 % 1016,9 hPa 0,0 l/m 11,8 km/h (2 Bft) SW 232 2 min 0,000 mm 0,7 UV-I 252 W/m 13,8 C 13,8 C 17,7 km/h (3 Bft) 96,00 %
24.05.2017 08:12 16,4 C 21,1 C 85 % 1016,8 hPa 0,0 l/m 10,2 km/h (2 Bft) W-SW 258 2 min 0,000 mm 0,7 UV-I 290 W/m 13,9 C 14,6 C 17,7 km/h (3 Bft) 94,74 %
24.05.2017 08:14 16,5 C 21,1 C 85 % 1016,9 hPa 0,0 l/m 9,5 km/h (2 Bft) W 264 2 min 0,000 mm 0,7 UV-I 264 W/m 14,0 C 15,0 C 17,7 km/h (3 Bft) 94,34 %
24.05.2017 08:16 16,6 C 21,1 C 84 % 1016,9 hPa 0,0 l/m 13,3 km/h (3 Bft) W-SW 258 0 min 0,000 mm 0,7 UV-I 220 W/m 13,9 C 13,7 C 19,3 km/h (3 Bft) 97,56 %
24.05.2017 08:18 16,7 C 21,1 C 84 % 1017,0 hPa 0,0 l/m 12,8 km/h (3 Bft) SW 235 0 min 0,000 mm 0,7 UV-I 200 W/m 14,0 C 14,0 C 22,5 km/h (4 Bft) 98,00 %
24.05.2017 08:20 16,7 C 21,1 C 83 % 1017,0 hPa 0,0 l/m 12,7 km/h (3 Bft) W 265 0 min 0,000 mm 0,7 UV-I 212 W/m 13,8 C 14,0 C 17,7 km/h (3 Bft) 96,00 %
24.05.2017 08:22 16,7 C 21,1 C 83 % 1017,0 hPa 0,0 l/m 12,8 km/h (3 Bft) W-SW 254 0 min 0,000 mm 0,6 UV-I 207 W/m 13,8 C 14,0 C 24,1 km/h (4 Bft) 94,74 %
24.05.2017 08:24 16,8 C 20,6 C 83 % 1017,0 hPa 0,0 l/m 10,9 km/h (2 Bft) W 277 0 min 0,000 mm 0,6 UV-I 188 W/m 13,9 C 14,8 C 19,3 km/h (3 Bft) 93,18 %
24.05.2017 08:26 16,8 C 21,1 C 83 % 1017,1 hPa 0,0 l/m 7,6 km/h (2 Bft) W-SW 250 0 min 0,000 mm 0,6 UV-I 171 W/m 13,9 C 16,2 C 12,9 km/h (3 Bft) 98,11 %
24.05.2017 08:28 16,9 C 21,1 C 82 % 1017,1 hPa 0,0 l/m 12,5 km/h (3 Bft) W-SW 238 0 min 0,000 mm 0,6 UV-I 181 W/m 13,8 C 14,3 C 19,3 km/h (3 Bft) 98,21 %
24.05.2017 08:30 16,9 C 20,6 C 82 % 1017,1 hPa 0,0 l/m 13,4 km/h (3 Bft) S-SW 198 0 min 0,000 mm 0,6 UV-I 179 W/m 13,8 C 14,0 C 19,3 km/h (3 Bft) 93,18 %
24.05.2017 08:32 16,9 C 21,1 C 82 % 1017,1 hPa 0,0 l/m 10,3 km/h (2 Bft) W-SW 237 0 min 0,000 mm 0,7 UV-I 198 W/m 13,8 C 15,1 C 24,1 km/h (4 Bft) 97,44 %
24.05.2017 08:34 17,0 C 21,1 C 81 % 1017,1 hPa 0,0 l/m 14,8 km/h (3 Bft) W 260 0 min 0,000 mm 0,7 UV-I 244 W/m 13,7 C 13,7 C 22,5 km/h (4 Bft) 94,00 %
24.05.2017 08:36 17,1 C 21,1 C 81 % 1017,1 hPa 0,0 l/m 9,9 km/h (2 Bft) W-SW 247 0 min 0,000 mm 0,8 UV-I 265 W/m 13,8 C 15,5 C 16,1 km/h (3 Bft) 100,00 %
24.05.2017 08:38 17,2 C 21,1 C 81 % 1017,1 hPa 0,0 l/m 13,0 km/h (3 Bft) W-SW 252 2 min 0,000 mm 0,9 UV-I 288 W/m 13,9 C 14,5 C 19,3 km/h (3 Bft) 97,56 %
24.05.2017 08:40 17,3 C 21,1 C 81 % 1017,2 hPa 0,0 l/m 12,1 km/h (2 Bft) W-SW 250 2 min 0,000 mm 0,8 UV-I 312 W/m 14,0 C 14,9 C 19,3 km/h (3 Bft) 96,23 %
24.05.2017 08:42 17,4 C 20,6 C 81 % 1017,2 hPa 0,0 l/m 12,5 km/h (3 Bft) SW 232 0 min 0,000 mm 0,6 UV-I 221 W/m 14,1 C 14,9 C 19,3 km/h (3 Bft) 97,56 %
24.05.2017 08:44 17,4 C 21,1 C 80 % 1017,2 hPa 0,0 l/m 13,1 km/h (3 Bft) W 266 0 min 0,000 mm 0,7 UV-I 227 W/m 13,9 C 14,7 C 19,3 km/h (3 Bft) 100,00 %
24.05.2017 08:46 17,4 C 21,1 C 80 % 1017,2 hPa 0,0 l/m 9,9 km/h (2 Bft) W-SW 252 0 min 0,000 mm 0,8 UV-I 250 W/m 13,9 C 15,8 C 19,3 km/h (3 Bft) 100,00 %
24.05.2017 08:48 17,4 C 21,1 C 79 % 1017,2 hPa 0,0 l/m 16,0 km/h (3 Bft) W 261 0 min 0,000 mm 0,6 UV-I 231 W/m 13,7 C 13,8 C 24,1 km/h (4 Bft) 100,00 %
24.05.2017 08:50 17,4 C 20,6 C 79 % 1017,2 hPa 0,0 l/m 13,0 km/h (3 Bft) W-SW 247 0 min 0,000 mm 0,6 UV-I 175 W/m 13,7 C 14,7 C 19,3 km/h (3 Bft) 100,00 %
24.05.2017 08:52 17,4 C 20,6 C 77 % 1017,2 hPa 0,0 l/m 20,2 km/h (4 Bft) W-SW 256 0 min 0,000 mm 0,7 UV-I 185 W/m 13,3 C 12,8 C 30,6 km/h (5 Bft) 100,00 %
24.05.2017 08:54 17,4 C 21,1 C 77 % 1017,2 hPa 0,0 l/m 13,7 km/h (3 Bft) W 261 0 min 0,000 mm 0,7 UV-I 223 W/m 13,3 C 14,5 C 22,5 km/h (4 Bft) 100,00 %
24.05.2017 08:56 17,4 C 20,6 C 77 % 1017,2 hPa 0,0 l/m 14,1 km/h (3 Bft) W-SW 244 0 min 0,000 mm 0,7 UV-I 189 W/m 13,3 C 14,4 C 24,1 km/h (4 Bft) 100,00 %
24.05.2017 08:58 17,4 C 20,6 C 77 % 1017,2 hPa 0,0 l/m 15,3 km/h (3 Bft) W-SW 248 0 min 0,000 mm 0,7 UV-I 192 W/m 13,3 C 14,0 C 24,1 km/h (4 Bft) 100,00 %
24.05.2017 09:00 17,3 C 20,6 C 77 % 1017,1 hPa 0,0 l/m 17,5 km/h (3 Bft) W 271 0 min 0,152 mm 0,6 UV-I 170 W/m 13,2 C 13,3 C 25,7 km/h (4 Bft) 98,11 %
24.05.2017 09:02 17,3 C 20,6 C 77 % 1017,2 hPa 0,0 l/m 15,9 km/h (3 Bft) W 266 0 min 0,000 mm 0,6 UV-I 169 W/m 13,2 C 13,7 C 25,7 km/h (4 Bft) 98,00 %
24.05.2017 09:04 17,3 C 20,6 C 77 % 1017,1 hPa 0,0 l/m 15,3 km/h (3 Bft) W 264 0 min 0,000 mm 0,6 UV-I 175 W/m 13,2 C 13,9 C 27,4 km/h (4 Bft) 100,00 %
24.05.2017 09:06 17,3 C 20,6 C 77 % 1017,1 hPa 0,0 l/m 16,6 km/h (3 Bft) W-SW 254 0 min 0,000 mm 0,8 UV-I 206 W/m 13,2 C 13,5 C 24,1 km/h (4 Bft) 97,14 %
24.05.2017 09:08 17,4 C 20,6 C 77 % 1017,1 hPa 0,0 l/m 15,4 km/h (3 Bft) S-SW 211 0 min 0,000 mm 0,9 UV-I 249 W/m 13,3 C 14,0 C 22,5 km/h (4 Bft) 100,00 %
24.05.2017 09:10 17,4 C 20,6 C 77 % 1017,1 hPa 0,0 l/m 14,1 km/h (3 Bft) N-NO 26 0 min 0,000 mm 0,9 UV-I 262 W/m 13,3 C 14,4 C 24,1 km/h (4 Bft) 98,11 %
24.05.2017 09:12 17,5 C 20,6 C 76 % 1017,1 hPa 0,0 l/m 13,4 km/h (3 Bft) W 277 0 min 0,000 mm 1,1 UV-I 281 W/m 13,2 C 14,7 C 29,0 km/h (5 Bft) 97,73 %
24.05.2017 09:14 17,6 C 21,1 C 76 % 1017,2 hPa 0,0 l/m 14,5 km/h (3 Bft) W-SW 246 2 min 0,000 mm 1,5 UV-I 393 W/m 13,3 C 14,5 C 20,9 km/h (4 Bft) 100,00 %
24.05.2017 09:16 17,7 C 21,1 C 76 % 1017,3 hPa 0,0 l/m 20,3 km/h (4 Bft) W 278 2 min 0,000 mm 1,6 UV-I 575 W/m 13,4 C 13,2 C 29,0 km/h (5 Bft) 100,00 %
24.05.2017 09:18 17,8 C 21,1 C 76 % 1017,2 hPa 0,0 l/m 14,0 km/h (3 Bft) W-SW 241 2 min 0,000 mm 1,4 UV-I 568 W/m 13,5 C 14,9 C 24,1 km/h (4 Bft) 97,87 %
24.05.2017 09:20 18,0 C 21,1 C 75 % 1017,3 hPa 0,0 l/m 15,0 km/h (3 Bft) SW 233 2 min 0,000 mm 1,2 UV-I 483 W/m 13,5 C 14,8 C 24,1 km/h (4 Bft) 100,00 %
24.05.2017 09:22 18,1 C 21,1 C 75 % 1017,4 hPa 0,0 l/m 16,5 km/h (3 Bft) W-SW 258 2 min 0,000 mm 1,3 UV-I 344 W/m 13,6 C 14,6 C 29,0 km/h (5 Bft) 97,56 %
24.05.2017 09:24 18,1 C 21,1 C 74 % 1017,2 hPa 0,0 l/m 18,3 km/h (3 Bft) W 280 2 min 0,000 mm 1,6 UV-I 429 W/m 13,4 C 14,1 C 32,2 km/h (5 Bft) 96,23 %
24.05.2017 09:26 18,1 C 21,1 C 73 % 1017,2 hPa 0,0 l/m 18,3 km/h (3 Bft) W-SW 258 2 min 0,000 mm 1,7 UV-I 563 W/m 13,2 C 14,1 C 25,7 km/h (4 Bft) 97,56 %
24.05.2017 09:28 18,1 C 21,1 C 74 % 1017,3 hPa 0,0 l/m 14,1 km/h (3 Bft) W-SW 242 2 min 0,000 mm 1,4 UV-I 442 W/m 13,4 C 15,2 C 24,1 km/h (4 Bft) 100,00 %
24.05.2017 09:30 18,1 C 21,1 C 74 % 1017,2 hPa 0,0 l/m 17,7 km/h (3 Bft) S-SW 210 0 min 0,000 mm 1,3 UV-I 303 W/m 13,4 C 14,3 C 25,7 km/h (4 Bft) 98,21 %
24.05.2017 09:32 18,1 C 21,1 C 75 % 1017,2 hPa 0,0 l/m 13,3 km/h (3 Bft) W 280 0 min 0,000 mm 1,4 UV-I 340 W/m 13,6 C 15,4 C 24,1 km/h (4 Bft) 100,00 %
24.05.2017 09:34 18,1 C 21,1 C 74 % 1017,3 hPa 0,0 l/m 17,0 km/h (3 Bft) W 273 2 min 0,000 mm 1,4 UV-I 365 W/m 13,4 C 14,4 C 33,8 km/h (5 Bft) 100,00 %
24.05.2017 09:36 18,1 C 21,1 C 74 % 1017,3 hPa 0,0 l/m 16,1 km/h (3 Bft) W-SW 245 0 min 0,000 mm 1,5 UV-I 340 W/m 13,4 C 14,7 C 22,5 km/h (4 Bft) 100,00 %
24.05.2017 09:38 18,1 C 21,1 C 74 % 1017,3 hPa 0,0 l/m 19,4 km/h (3 Bft) W 275 2 min 0,000 mm 1,6 UV-I 359 W/m 13,4 C 13,9 C 29,0 km/h (5 Bft) 97,73 %
24.05.2017 09:40 18,1 C 21,1 C 75 % 1017,3 hPa 0,0 l/m 13,4 km/h (3 Bft) W 269 2 min 0,000 mm 1,8 UV-I 427 W/m 13,6 C 15,4 C 24,1 km/h (4 Bft) 100,00 %
24.05.2017 09:42 18,2 C 21,1 C 75 % 1017,2 hPa 0,0 l/m 12,5 km/h (3 Bft) W 280 2 min 0,000 mm 1,9 UV-I 429 W/m 13,7 C 15,8 C 20,9 km/h (4 Bft) 97,73 %
24.05.2017 09:44 18,3 C 21,1 C 74 % 1017,3 hPa 0,0 l/m 11,2 km/h (2 Bft) W-SW 250 2 min 0,000 mm 2,0 UV-I 533 W/m 13,6 C 16,3 C 16,1 km/h (3 Bft) 100,00 %
24.05.2017 09:46 18,4 C 21,1 C 74 % 1017,2 hPa 0,0 l/m 12,5 km/h (3 Bft) SW 230 2 min 0,000 mm 2,1 UV-I 578 W/m 13,7 C 16,0 C 20,9 km/h (4 Bft) 96,23 %
24.05.2017 09:48 18,6 C 21,1 C 74 % 1017,2 hPa 0,0 l/m 15,5 km/h (3 Bft) NW 311 2 min 0,000 mm 2,2 UV-I 638 W/m 13,9 C 15,4 C 29,0 km/h (5 Bft) 98,00 %
24.05.2017 09:50 18,7 C 21,1 C 72 % 1017,3 hPa 0,0 l/m 19,0 km/h (3 Bft) W-SW 252 2 min 0,000 mm 2,0 UV-I 617 W/m 13,5 C 14,7 C 29,0 km/h (5 Bft) 100,00 %
24.05.2017 09:52 18,7 C 21,1 C 72 % 1017,3 hPa 0,0 l/m 12,4 km/h (3 Bft) W 259 2 min 0,000 mm 1,9 UV-I 512 W/m 13,5 C 16,4 C 19,3 km/h (3 Bft) 96,00 %
24.05.2017 09:54 18,7 C 21,1 C 73 % 1017,2 hPa 0,0 l/m 19,3 km/h (3 Bft) W-SW 257 2 min 0,000 mm 1,8 UV-I 464 W/m 13,8 C 14,7 C 29,0 km/h (5 Bft) 100,00 %
24.05.2017 09:56 18,6 C 21,1 C 72 % 1017,3 hPa 0,0 l/m 19,1 km/h (3 Bft) W 266 2 min 0,000 mm 1,8 UV-I 400 W/m 13,4 C 14,6 C 30,6 km/h (5 Bft) 100,00 %
24.05.2017 09:58 18,5 C 21,1 C 72 % 1017,3 hPa 0,0 l/m 17,8 km/h (3 Bft) W-NW 296 0 min 0,000 mm 1,7 UV-I 344 W/m 13,4 C 14,7 C 30,6 km/h (5 Bft) 96,00 %
24.05.2017 10:00 18,4 C 21,1 C 71 % 1017,3 hPa 0,0 l/m 15,3 km/h (3 Bft) W-SW 244 0 min 0,000 mm 2,0 UV-I 347 W/m 13,0 C 15,2 C 29,0 km/h (5 Bft) 97,37 %
24.05.2017 10:02 18,5 C 21,1 C 73 % 1017,3 hPa 0,0 l/m 11,6 km/h (2 Bft) W 260 2 min 0,279 mm 2,5 UV-I 677 W/m 13,6 C 16,4 C 25,7 km/h (4 Bft) 95,74 %
24.05.2017 10:04 18,7 C 21,1 C 72 % 1017,4 hPa 0,0 l/m 20,0 km/h (4 Bft) W 259 2 min 0,000 mm 2,2 UV-I 589 W/m 13,5 C 14,5 C 38,6 km/h (5 Bft) 98,11 %
24.05.2017 10:06 18,7 C 21,1 C 71 % 1017,3 hPa 0,0 l/m 21,4 km/h (4 Bft) W 263 2 min 0,000 mm 2,3 UV-I 491 W/m 13,3 C 14,3 C 35,4 km/h (5 Bft) 97,37 %
24.05.2017 10:08 18,7 C 21,1 C 71 % 1017,3 hPa 0,0 l/m 20,9 km/h (4 Bft) SW 232 2 min 0,000 mm 2,6 UV-I 619 W/m 13,3 C 14,3 C 33,8 km/h (5 Bft) 97,37 %
24.05.2017 10:10 18,8 C 21,1 C 70 % 1017,2 hPa 0,0 l/m 17,8 km/h (3 Bft) W 276 2 min 0,000 mm 2,4 UV-I 709 W/m 13,2 C 15,1 C 32,2 km/h (5 Bft) 98,53 %
24.05.2017 10:12 18,9 C 21,1 C 69 % 1017,3 hPa 0,0 l/m 16,8 km/h (3 Bft) SW 224 2 min 0,000 mm 2,3 UV-I 575 W/m 13,1 C 15,5 C 27,4 km/h (4 Bft) 97,56 %
24.05.2017 10:14 18,9 C 21,1 C 69 % 1017,4 hPa 0,0 l/m 24,3 km/h (4 Bft) W 268 2 min 0,000 mm 2,3 UV-I 596 W/m 13,1 C 14,0 C 43,5 km/h (6 Bft) 95,74 %
24.05.2017 10:16 18,8 C 21,1 C 68 % 1017,3 hPa 0,0 l/m 21,3 km/h (4 Bft) W 277 2 min 0,000 mm 2,3 UV-I 687 W/m 12,8 C 14,4 C 35,4 km/h (5 Bft) 96,00 %
24.05.2017 10:18 18,7 C 21,1 C 69 % 1017,3 hPa 0,0 l/m 21,9 km/h (4 Bft) W-SW 249 0 min 0,000 mm 1,9 UV-I 376 W/m 12,9 C 14,2 C 38,6 km/h (5 Bft) 95,74 %
24.05.2017 10:20 18,6 C 21,1 C 69 % 1017,3 hPa 0,0 l/m 20,1 km/h (4 Bft) W-SW 254 0 min 0,000 mm 2,2 UV-I 359 W/m 12,8 C 14,4 C 27,4 km/h (4 Bft) 98,00 %
24.05.2017 10:22 18,6 C 21,1 C 70 % 1017,3 hPa 0,0 l/m 19,2 km/h (3 Bft) W 275 2 min 0,000 mm 2,5 UV-I 569 W/m 13,0 C 14,6 C 29,0 km/h (5 Bft) 97,37 %
24.05.2017 10:24 18,6 C 21,1 C 70 % 1017,3 hPa 0,0 l/m 13,8 km/h (3 Bft) W-SW 253 2 min 0,000 mm 2,3 UV-I 689 W/m 13,0 C 15,9 C 22,5 km/h (4 Bft) 93,18 %
24.05.2017 10:26 18,6 C 21,1 C 70 % 1017,3 hPa 0,0 l/m 15,9 km/h (3 Bft) W 271 2 min 0,000 mm 2,5 UV-I 568 W/m 13,0 C 15,3 C 25,7 km/h (4 Bft) 98,11 %
24.05.2017 10:28 18,7 C 21,1 C 69 % 1017,3 hPa 0,0 l/m 14,2 km/h (3 Bft) W-SW 246 2 min 0,000 mm 2,7 UV-I 555 W/m 12,9 C 15,9 C 25,7 km/h (4 Bft) 93,18 %
24.05.2017 10:30 18,7 C 21,1 C 68 % 1017,3 hPa 0,0 l/m 13,0 km/h (3 Bft) W 272 2 min 0,000 mm 2,4 UV-I 652 W/m 12,7 C 16,2 C 22,5 km/h (4 Bft) 96,00 %
24.05.2017 10:32 18,7 C 21,1 C 67 % 1017,3 hPa 0,0 l/m 16,1 km/h (3 Bft) W-SW 242 2 min 0,000 mm 2,3 UV-I 477 W/m 12,4 C 15,4 C 27,4 km/h (4 Bft) 96,00 %
24.05.2017 10:34 18,7 C 21,1 C 67 % 1017,3 hPa 0,0 l/m 11,4 km/h (2 Bft) W-SW 246 2 min 0,000 mm 2,2 UV-I 467 W/m 12,4 C 16,7 C 22,5 km/h (4 Bft) 95,24 %
24.05.2017 10:36 18,6 C 21,1 C 67 % 1017,4 hPa 0,0 l/m 15,3 km/h (3 Bft) SW 223 2 min 0,000 mm 2,1 UV-I 464 W/m 12,3 C 15,5 C 24,1 km/h (4 Bft) 97,73 %
24.05.2017 10:38 18,7 C 21,1 C 68 % 1017,4 hPa 0,0 l/m 13,3 km/h (3 Bft) SW 222 0 min 0,000 mm 2,0 UV-I 402 W/m 12,7 C 16,1 C 24,1 km/h (4 Bft) 95,45 %
24.05.2017 10:40 18,7 C 21,1 C 67 % 1017,4 hPa 0,0 l/m 10,7 km/h (2 Bft) W 267 2 min 0,000 mm 2,3 UV-I 475 W/m 12,4 C 17,0 C 25,7 km/h (4 Bft) 98,21 %
24.05.2017 10:42 18,7 C 21,1 C 67 % 1017,4 hPa 0,0 l/m 13,4 km/h (3 Bft) W 277 2 min 0,000 mm 2,6 UV-I 557 W/m 12,4 C 16,1 C 25,7 km/h (4 Bft) 97,73 %
24.05.2017 10:44 18,7 C 21,1 C 66 % 1017,4 hPa 0,0 l/m 17,0 km/h (3 Bft) W 265 2 min 0,000 mm 2,4 UV-I 482 W/m 12,2 C 15,2 C 29,0 km/h (5 Bft) 97,73 %
24.05.2017 10:46 18,7 C 21,1 C 65 % 1017,5 hPa 0,0 l/m 16,3 km/h (3 Bft) W 275 2 min 0,000 mm 2,2 UV-I 460 W/m 12,0 C 15,3 C 29,0 km/h (5 Bft) 97,87 %
24.05.2017 10:48 18,6 C 21,1 C 65 % 1017,4 hPa 0,0 l/m 19,0 km/h (3 Bft) W 273 2 min 0,000 mm 2,1 UV-I 428 W/m 11,9 C 14,6 C 27,4 km/h (4 Bft) 96,43 %
24.05.2017 10:50 18,5 C 21,1 C 65 % 1017,4 hPa 0,0 l/m 14,7 km/h (3 Bft) W-SW 242 0 min 0,000 mm 2,0 UV-I 402 W/m 11,8 C 15,5 C 24,1 km/h (4 Bft) 97,56 %
24.05.2017 10:52 18,4 C 21,1 C 64 % 1017,4 hPa 0,0 l/m 15,7 km/h (3 Bft) W-SW 247 0 min 0,000 mm 2,1 UV-I 398 W/m 11,5 C 15,1 C 22,5 km/h (4 Bft) 98,00 %
24.05.2017 10:54 18,4 C 21,1 C 65 % 1017,3 hPa 0,0 l/m 13,2 km/h (3 Bft) W-SW 247 2 min 0,000 mm 2,3 UV-I 438 W/m 11,7 C 15,8 C 24,1 km/h (4 Bft) 97,56 %
24.05.2017 10:56 18,4 C 21,1 C 67 % 1017,3 hPa 0,0 l/m 12,5 km/h (3 Bft) W-SW 247 2 min 0,000 mm 2,6 UV-I 528 W/m 12,2 C 16,0 C 17,7 km/h (3 Bft) 97,87 %
24.05.2017 10:58 18,5 C 21,1 C 65 % 1017,3 hPa 0,0 l/m 13,8 km/h (3 Bft) W-SW 240 2 min 0,000 mm 2,7 UV-I 508 W/m 11,8 C 15,8 C 20,9 km/h (4 Bft) 98,11 %
24.05.2017 11:00 18,6 C 21,1 C 65 % 1017,4 hPa 0,0 l/m 13,3 km/h (3 Bft) W-SW 257 2 min 0,000 mm 2,8 UV-I 497 W/m 11,9 C 16,0 C 20,9 km/h (4 Bft) 95,45 %
24.05.2017 11:02 18,7 C 21,1 C 65 % 1017,4 hPa 0,0 l/m 18,1 km/h (3 Bft) W-NW 287 2 min 0,356 mm 2,6 UV-I 488 W/m 12,0 C 14,9 C 25,7 km/h (4 Bft) 97,73 %
24.05.2017 11:04 18,7 C 21,1 C 65 % 1017,5 hPa 0,0 l/m 10,2 km/h (2 Bft) W-SW 249 2 min 0,000 mm 3,1 UV-I 636 W/m 12,0 C 17,1 C 29,0 km/h (5 Bft) 98,11 %
24.05.2017 11:06 18,8 C 21,1 C 65 % 1017,4 hPa 0,0 l/m 13,7 km/h (3 Bft) W-SW 250 2 min 0,000 mm 2,8 UV-I 559 W/m 12,1 C 16,1 C 25,7 km/h (4 Bft) 96,30 %
24.05.2017 11:08 18,8 C 21,1 C 63 % 1017,4 hPa 0,0 l/m 15,4 km/h (3 Bft) W-SW 244 2 min 0,000 mm 2,8 UV-I 536 W/m 11,6 C 15,7 C 22,5 km/h (4 Bft) 98,21 %
24.05.2017 11:10 18,8 C 21,1 C 63 % 1017,5 hPa 0,0 l/m 20,8 km/h (4 Bft) W-NW 286 2 min 0,000 mm 3,0 UV-I 513 W/m 11,6 C 14,5 C 30,6 km/h (5 Bft) 97,87 %
24.05.2017 11:12 18,7 C 21,1 C 61 % 1017,5 hPa 0,0 l/m 18,7 km/h (3 Bft) W-SW 242 2 min 0,000 mm 3,2 UV-I 541 W/m 11,0 C 14,8 C 32,2 km/h (5 Bft) 96,23 %
24.05.2017 11:14 18,7 C 21,1 C 62 % 1017,5 hPa 0,0 l/m 16,2 km/h (3 Bft) W 273 2 min 0,000 mm 2,7 UV-I 562 W/m 11,3 C 15,4 C 37,0 km/h (5 Bft) 97,37 %
24.05.2017 11:15 18,7 C 21,1 C 62 % 1017,5 hPa 0,0 l/m 19,3 km/h (3 Bft) W-SW 247 1 min 0,000 mm 2,5 UV-I 506 W/m 11,3 C 14,7 C 37,0 km/h (5 Bft) 97,37 %
24.05.2017 11:18 18,5 C 21,1 C 61 % 1017,5 hPa 0,0 l/m 18,7 km/h (3 Bft) N 10 3 min 0,000 mm 2,3 UV-I 458 W/m 10,8 C 14,5 C 33,8 km/h (5 Bft) 96,04 %
24.05.2017 11:20 18,4 C 21,1 C 62 % 1017,5 hPa 0,0 l/m 14,8 km/h (3 Bft) W 259 2 min 0,000 mm 2,7 UV-I 517 W/m 11,0 C 15,4 C 24,1 km/h (4 Bft) 94,34 %
24.05.2017 11:22 18,4 C 21,1 C 63 % 1017,5 hPa 0,0 l/m 22,6 km/h (4 Bft) N 350 2 min 0,000 mm 2,8 UV-I 544 W/m 11,2 C 13,6 C 32,2 km/h (5 Bft) 92,68 %
24.05.2017 11:24 18,4 C 21,1 C 62 % 1017,6 hPa 0,0 l/m 16,1 km/h (3 Bft) W-SW 252 0 min 0,000 mm 2,4 UV-I 449 W/m 11,0 C 15,0 C 24,1 km/h (4 Bft) 94,34 %
24.05.2017 11:26 18,4 C 21,1 C 63 % 1017,6 hPa 0,0 l/m 18,7 km/h (3 Bft) W-SW 248 0 min 0,000 mm 2,1 UV-I 363 W/m 11,2 C 14,4 C 37,0 km/h (5 Bft) 97,56 %
24.05.2017 11:28 18,3 C 21,1 C 62 % 1017,5 hPa 0,0 l/m 14,1 km/h (3 Bft) W-SW 252 0 min 0,000 mm 2,5 UV-I 416 W/m 10,9 C 15,4 C 20,9 km/h (4 Bft) 98,00 %
24.05.2017 11:30 18,3 C 21,1 C 64 % 1017,7 hPa 0,0 l/m 12,1 km/h (2 Bft) W 260 2 min 0,000 mm 3,3 UV-I 587 W/m 11,4 C 16,0 C 17,7 km/h (3 Bft) 96,00 %
24.05.2017 11:32 18,3 C 21,1 C 63 % 1017,6 hPa 0,0 l/m 16,2 km/h (3 Bft) W 263 2 min 0,000 mm 3,1 UV-I 567 W/m 11,1 C 14,9 C 24,1 km/h (4 Bft) 97,87 %
24.05.2017 11:34 18,4 C 21,1 C 64 % 1017,6 hPa 0,0 l/m 17,0 km/h (3 Bft) SW 230 2 min 0,000 mm 3,1 UV-I 460 W/m 11,5 C 14,8 C 29,0 km/h (5 Bft) 97,56 %
24.05.2017 11:36 18,6 C 21,1 C 63 % 1017,6 hPa 0,0 l/m 15,4 km/h (3 Bft) W 273 2 min 0,000 mm 4,3 UV-I 724 W/m 11,4 C 15,4 C 22,5 km/h (4 Bft) 100,00 %
24.05.2017 11:38 18,7 C 21,1 C 63 % 1017,6 hPa 0,0 l/m 14,6 km/h (3 Bft) SW 222 2 min 0,000 mm 3,0 UV-I 612 W/m 11,5 C 15,8 C 29,0 km/h (5 Bft) 98,11 %
24.05.2017 11:40 18,7 C 21,1 C 62 % 1017,5 hPa 0,0 l/m 15,9 km/h (3 Bft) W-NW 283 2 min 0,000 mm 3,1 UV-I 482 W/m 11,3 C 15,4 C 32,2 km/h (5 Bft) 98,00 %
24.05.2017 11:42 18,6 C 21,1 C 62 % 1017,5 hPa 0,0 l/m 13,5 km/h (3 Bft) W-SW 257 0 min 0,000 mm 2,6 UV-I 441 W/m 11,2 C 16,0 C 22,5 km/h (4 Bft) 100,00 %
24.05.2017 11:44 18,4 C 21,1 C 62 % 1017,6 hPa 0,0 l/m 16,0 km/h (3 Bft) W-SW 241 0 min 0,000 mm 2,1 UV-I 370 W/m 11,0 C 15,1 C 24,1 km/h (4 Bft) 100,00 %
24.05.2017 11:46 18,3 C 21,1 C 63 % 1017,6 hPa 0,0 l/m 13,2 km/h (3 Bft) W-NW 296 0 min 0,000 mm 2,2 UV-I 394 W/m 11,1 C 15,7 C 22,5 km/h (4 Bft) 97,56 %
24.05.2017 11:48 18,2 C 21,1 C 63 % 1017,5 hPa 0,0 l/m 13,1 km/h (3 Bft) W 281 0 min 0,000 mm 2,4 UV-I 449 W/m 11,0 C 15,6 C 24,1 km/h (4 Bft) 93,18 %
24.05.2017 11:50 18,2 C 21,1 C 63 % 1017,7 hPa 0,0 l/m 14,7 km/h (3 Bft) W-SW 254 2 min 0,000 mm 2,5 UV-I 494 W/m 11,0 C 15,2 C 29,0 km/h (5 Bft) 94,92 %
24.05.2017 11:52 18,2 C 21,1 C 62 % 1017,8 hPa 0,0 l/m 12,9 km/h (3 Bft) W-NW 290 0 min 0,000 mm 2,3 UV-I 434 W/m 10,8 C 15,7 C 27,4 km/h (4 Bft) 94,29 %
24.05.2017 11:54 18,1 C 21,1 C 62 % 1017,6 hPa 0,0 l/m 15,7 km/h (3 Bft) W-SW 250 0 min 0,000 mm 2,0 UV-I 353 W/m 10,7 C 14,8 C 27,4 km/h (4 Bft) 98,21 %
24.05.2017 11:56 18,1 C 21,1 C 64 % 1017,6 hPa 0,0 l/m 13,6 km/h (3 Bft) W-SW 241 0 min 0,000 mm 1,6 UV-I 294 W/m 11,2 C 15,3 C 27,4 km/h (4 Bft) 98,00 %
24.05.2017 11:58 17,9 C 21,1 C 63 % 1017,6 hPa 0,0 l/m 13,5 km/h (3 Bft) SW 219 0 min 0,000 mm 1,3 UV-I 256 W/m 10,8 C 15,1 C 20,9 km/h (4 Bft) 97,37 %
24.05.2017 12:00 17,8 C 21,1 C 63 % 1017,7 hPa 0,0 l/m 11,6 km/h (2 Bft) SW 226 0 min 0,356 mm 1,3 UV-I 244 W/m 10,7 C 15,6 C 19,3 km/h (3 Bft) 95,56 %
24.05.2017 12:02 17,7 C 21,1 C 64 % 1017,6 hPa 0,0 l/m 13,9 km/h (3 Bft) W-SW 241 0 min 0,000 mm 1,3 UV-I 243 W/m 10,8 C 14,8 C 27,4 km/h (4 Bft) 96,30 %
24.05.2017 12:04 17,7 C 21,1 C 64 % 1017,7 hPa 0,0 l/m 13,5 km/h (3 Bft) NW 319 0 min 0,000 mm 1,2 UV-I 235 W/m 10,8 C 14,9 C 24,1 km/h (4 Bft) 96,00 %
24.05.2017 12:06 17,6 C 21,1 C 63 % 1017,6 hPa 0,0 l/m 14,7 km/h (3 Bft) W 273 0 min 0,000 mm 1,2 UV-I 233 W/m 10,5 C 14,4 C 29,0 km/h (5 Bft) 92,68 %
24.05.2017 12:08 17,5 C 21,1 C 64 % 1017,7 hPa 0,0 l/m 11,7 km/h (2 Bft) W-SW 241 0 min 0,000 mm 1,3 UV-I 247 W/m 10,6 C 15,3 C 19,3 km/h (3 Bft) 92,00 %
24.05.2017 12:10 17,5 C 21,1 C 65 % 1017,7 hPa 0,0 l/m 9,3 km/h (2 Bft) W 264 0 min 0,000 mm 1,5 UV-I 265 W/m 10,8 C 16,2 C 24,1 km/h (4 Bft) 95,12 %
24.05.2017 12:12 17,6 C 21,1 C 65 % 1017,7 hPa 0,0 l/m 10,8 km/h (2 Bft) W-SW 255 0 min 0,000 mm 1,5 UV-I 267 W/m 10,9 C 15,7 C 19,3 km/h (3 Bft) 95,56 %
24.05.2017 12:14 17,6 C 21,1 C 65 % 1017,7 hPa 0,0 l/m 15,1 km/h (3 Bft) W-NW 287 0 min 0,000 mm 1,5 UV-I 254 W/m 10,9 C 14,3 C 22,5 km/h (4 Bft) 86,54 %
24.05.2017 12:16 17,6 C 21,1 C 65 % 1017,7 hPa 0,0 l/m 9,9 km/h (2 Bft) W-NW 297 0 min 0,000 mm 1,3 UV-I 237 W/m 10,9 C 16,0 C 19,3 km/h (3 Bft) 93,62 %
24.05.2017 12:18 17,6 C 21,1 C 66 % 1017,7 hPa 0,0 l/m 11,2 km/h (2 Bft) W-SW 244 0 min 0,000 mm 1,3 UV-I 227 W/m 11,2 C 15,5 C 27,4 km/h (4 Bft) 90,00 %
24.05.2017 12:20 17,5 C 21,1 C 64 % 1017,7 hPa 0,0 l/m 9,2 km/h (2 Bft) SW 226 0 min 0,000 mm 1,3 UV-I 234 W/m 10,6 C 16,2 C 19,3 km/h (3 Bft) 97,56 %
24.05.2017 12:22 17,5 C 21,1 C 65 % 1017,8 hPa 0,0 l/m 10,4 km/h (2 Bft) SW 233 0 min 0,000 mm 1,4 UV-I 243 W/m 10,8 C 15,7 C 16,1 km/h (3 Bft) 93,33 %
24.05.2017 12:24 17,5 C 21,1 C 66 % 1017,8 hPa 0,0 l/m 8,7 km/h (2 Bft) W-NW 286 0 min 0,000 mm 1,5 UV-I 261 W/m 11,1 C 16,4 C 19,3 km/h (3 Bft) 100,00 %
24.05.2017 12:26 17,5 C 21,1 C 65 % 1017,8 hPa 0,0 l/m 10,3 km/h (2 Bft) N-NO 18 0 min 0,000 mm 1,7 UV-I 284 W/m 10,8 C 15,8 C 22,5 km/h (4 Bft) 100,00 %
24.05.2017 12:28 17,5 C 21,1 C 66 % 1017,8 hPa 0,0 l/m 6,5 km/h (2 Bft) W-NW 292 0 min 0,000 mm 1,7 UV-I 300 W/m 11,1 C 17,5 C 14,5 km/h (3 Bft) 97,87 %
24.05.2017 12:30 17,6 C 21,1 C 65 % 1017,7 hPa 0,0 l/m 8,1 km/h (2 Bft) W 263 0 min 0,000 mm 1,7 UV-I 301 W/m 10,9 C 16,8 C 16,1 km/h (3 Bft) 94,74 %
24.05.2017 12:32 17,6 C 21,1 C 66 % 1017,8 hPa 0,0 l/m 11,3 km/h (2 Bft) SW 232 0 min 0,000 mm 1,8 UV-I 318 W/m 11,2 C 15,5 C 19,3 km/h (3 Bft) 94,34 %
24.05.2017 12:34 17,7 C 21,1 C 65 % 1017,9 hPa 0,0 l/m 11,5 km/h (2 Bft) W-SW 245 0 min 0,000 mm 2,0 UV-I 339 W/m 11,0 C 15,6 C 27,4 km/h (4 Bft) 98,21 %
24.05.2017 12:36 17,7 C 21,1 C 65 % 1017,8 hPa 0,0 l/m 12,6 km/h (3 Bft) W-SW 248 0 min 0,000 mm 2,1 UV-I 361 W/m 11,0 C 15,2 C 22,5 km/h (4 Bft) 95,12 %
24.05.2017 12:38 17,8 C 21,1 C 64 % 1017,8 hPa 0,0 l/m 9,9 km/h (2 Bft) W 267 0 min 0,000 mm 2,2 UV-I 392 W/m 10,9 C 16,2 C 17,7 km/h (3 Bft) 94,34 %
24.05.2017 12:40 17,8 C 21,1 C 64 % 1017,8 hPa 0,0 l/m 13,1 km/h (3 Bft) W-NW 285 0 min 0,000 mm 2,5 UV-I 420 W/m 10,9 C 15,1 C 19,3 km/h (3 Bft) 100,00 %
24.05.2017 12:42 17,9 C 21,1 C 64 % 1017,7 hPa 0,0 l/m 15,4 km/h (3 Bft) W-SW 257 0 min 0,000 mm 2,4 UV-I 415 W/m 11,0 C 14,6 C 27,4 km/h (4 Bft) 98,00 %
24.05.2017 12:44 17,9 C 21,1 C 64 % 1017,7 hPa 0,0 l/m 15,3 km/h (3 Bft) SW 225 0 min 0,000 mm 2,0 UV-I 334 W/m 11,0 C 14,6 C 25,7 km/h (4 Bft) 97,37 %
24.05.2017 12:46 18,0 C 21,1 C 64 % 1017,8 hPa 0,0 l/m 16,3 km/h (3 Bft) W 263 0 min 0,000 mm 2,3 UV-I 402 W/m 11,1 C 14,5 C 25,7 km/h (4 Bft) 96,00 %
24.05.2017 12:48 18,1 C 21,1 C 64 % 1017,7 hPa 0,0 l/m 14,9 km/h (3 Bft) W 261 0 min 0,000 mm 2,6 UV-I 443 W/m 11,2 C 15,0 C 30,6 km/h (5 Bft) 97,87 %
24.05.2017 12:50 18,1 C 21,1 C 65 % 1017,8 hPa 0,0 l/m 10,5 km/h (2 Bft) W 270 0 min 0,000 mm 2,3 UV-I 398 W/m 11,4 C 16,4 C 22,5 km/h (4 Bft) 100,00 %
24.05.2017 12:52 18,2 C 21,1 C 65 % 1017,8 hPa 0,0 l/m 10,7 km/h (2 Bft) N 11 0 min 0,000 mm 2,0 UV-I 325 W/m 11,5 C 16,4 C 19,3 km/h (3 Bft) 94,87 %
24.05.2017 12:54 18,1 C 21,1 C 64 % 1017,7 hPa 0,0 l/m 11,9 km/h (2 Bft) W 279 0 min 0,000 mm 2,3 UV-I 366 W/m 11,2 C 15,9 C 17,7 km/h (3 Bft) 94,00 %
24.05.2017 12:56 18,0 C 21,1 C 64 % 1017,7 hPa 0,0 l/m 9,3 km/h (2 Bft) W 280 0 min 0,000 mm 2,7 UV-I 425 W/m 11,1 C 16,7 C 24,1 km/h (4 Bft) 100,00 %
24.05.2017 12:58 18,0 C 21,1 C 64 % 1017,7 hPa 0,0 l/m 14,0 km/h (3 Bft) W 267 0 min 0,000 mm 2,6 UV-I 391 W/m 11,1 C 15,1 C 22,5 km/h (4 Bft) 97,73 %
24.05.2017 13:00 17,9 C 21,1 C 65 % 1017,7 hPa 0,0 l/m 15,2 km/h (3 Bft) N 349 0 min 0,228 mm 2,5 UV-I 376 W/m 11,2 C 14,7 C 29,0 km/h (5 Bft) 100,00 %
24.05.2017 13:02 17,8 C 21,1 C 64 % 1017,6 hPa 0,0 l/m 15,2 km/h (3 Bft) SW 225 0 min 0,000 mm 2,7 UV-I 408 W/m 10,9 C 14,5 C 27,4 km/h (4 Bft) 100,00 %
24.05.2017 13:04 17,8 C 21,1 C 65 % 1017,7 hPa 0,0 l/m 11,4 km/h (2 Bft) W-SW 248 0 min 0,000 mm 2,8 UV-I 431 W/m 11,1 C 15,7 C 20,9 km/h (4 Bft) 96,00 %
24.05.2017 13:06 17,8 C 21,1 C 65 % 1017,8 hPa 0,0 l/m 11,5 km/h (2 Bft) W-SW 244 0 min 0,000 mm 2,8 UV-I 422 W/m 11,1 C 15,7 C 20,9 km/h (4 Bft) 97,73 %
24.05.2017 13:08 17,9 C 21,1 C 65 % 1017,7 hPa 0,0 l/m 11,9 km/h (2 Bft) SW 231 0 min 0,000 mm 2,6 UV-I 400 W/m 11,2 C 15,6 C 25,7 km/h (4 Bft) 100,00 %
24.05.2017 13:10 17,9 C 21,1 C 65 % 1017,7 hPa 0,0 l/m 12,9 km/h (3 Bft) W-SW 243 0 min 0,000 mm 2,6 UV-I 397 W/m 11,2 C 15,3 C 24,1 km/h (4 Bft) 100,00 %
24.05.2017 13:12 17,9 C 21,1 C 66 % 1017,7 hPa 0,0 l/m 13,6 km/h (3 Bft) S 182 0 min 0,000 mm 3,4 UV-I 439 W/m 11,5 C 15,1 C 20,9 km/h (4 Bft) 96,43 %
24.05.2017 13:14 18,2 C 21,1 C 66 % 1017,8 hPa 0,0 l/m 13,7 km/h (3 Bft) W 271 0 min 0,000 mm 3,5 UV-I 465 W/m 11,7 C 15,4 C 19,3 km/h (3 Bft) 100,00 %
24.05.2017 13:16 18,3 C 21,1 C 64 % 1017,8 hPa 0,0 l/m 19,3 km/h (3 Bft) SW 236 2 min 0,000 mm 2,8 UV-I 486 W/m 11,4 C 14,2 C 32,2 km/h (5 Bft) 100,00 %
24.05.2017 13:18 18,2 C 21,1 C 63 % 1017,8 hPa 0,0 l/m 15,1 km/h (3 Bft) W 267 0 min 0,000 mm 2,8 UV-I 440 W/m 11,0 C 15,0 C 20,9 km/h (4 Bft) 98,21 %
24.05.2017 13:20 18,3 C 21,1 C 64 % 1017,7 hPa 0,0 l/m 14,4 km/h (3 Bft) W-SW 253 2 min 0,000 mm 3,6 UV-I 593 W/m 11,4 C 15,4 C 24,1 km/h (4 Bft) 98,00 %
24.05.2017 13:22 18,4 C 21,1 C 64 % 1017,6 hPa 0,0 l/m 17,7 km/h (3 Bft) W-NW 289 2 min 0,000 mm 4,1 UV-I 638 W/m 11,5 C 14,6 C 32,2 km/h (5 Bft) 96,00 %
24.05.2017 13:24 18,6 C 21,1 C 63 % 1017,5 hPa 0,0 l/m 19,0 km/h (3 Bft) N 350 2 min 0,000 mm 5,2 UV-I 671 W/m 11,4 C 14,6 C 32,2 km/h (5 Bft) 100,00 %
24.05.2017 13:26 18,7 C 21,1 C 62 % 1017,5 hPa 0,0 l/m 18,5 km/h (3 Bft) W-SW 247 2 min 0,000 mm 4,2 UV-I 799 W/m 11,3 C 14,8 C 33,8 km/h (5 Bft) 100,00 %
24.05.2017 13:28 18,7 C 21,1 C 62 % 1017,6 hPa 0,0 l/m 19,0 km/h (3 Bft) W 261 2 min 0,000 mm 3,5 UV-I 581 W/m 11,3 C 14,7 C 27,4 km/h (4 Bft) 100,00 %
24.05.2017 13:30 18,7 C 21,1 C 61 % 1017,6 hPa 0,0 l/m 24,2 km/h (4 Bft) W-SW 240 2 min 0,000 mm 3,4 UV-I 609 W/m 11,0 C 13,8 C 30,6 km/h (5 Bft) 100,00 %
24.05.2017 13:32 18,7 C 21,1 C 63 % 1017,6 hPa 0,0 l/m 13,2 km/h (3 Bft) SW 223 2 min 0,000 mm 3,2 UV-I 548 W/m 11,5 C 16,2 C 24,1 km/h (4 Bft) 100,00 %
24.05.2017 13:34 18,6 C 21,1 C 61 % 1017,6 hPa 0,0 l/m 22,0 km/h (4 Bft) W-SW 240 2 min 0,000 mm 3,0 UV-I 491 W/m 10,9 C 14,0 C 37,0 km/h (5 Bft) 92,86 %
24.05.2017 13:36 18,6 C 21,1 C 62 % 1017,6 hPa 0,0 l/m 16,7 km/h (3 Bft) W 276 2 min 0,000 mm 3,1 UV-I 490 W/m 11,2 C 15,1 C 25,7 km/h (4 Bft) 97,56 %
24.05.2017 13:38 18,6 C 21,1 C 62 % 1017,6 hPa 0,0 l/m 15,8 km/h (3 Bft) W-SW 251 2 min 0,000 mm 2,9 UV-I 604 W/m 11,2 C 15,3 C 25,7 km/h (4 Bft) 96,43 %
24.05.2017 13:40 18,7 C 21,1 C 62 % 1017,6 hPa 0,0 l/m 18,1 km/h (3 Bft) W 269 0 min 0,000 mm 2,7 UV-I 459 W/m 11,3 C 14,9 C 25,7 km/h (4 Bft) 100,00 %
24.05.2017 13:42 18,7 C 21,1 C 60 % 1017,6 hPa 0,0 l/m 21,5 km/h (4 Bft) W 261 0 min 0,000 mm 2,5 UV-I 422 W/m 10,8 C 14,2 C 37,0 km/h (5 Bft) 98,00 %
24.05.2017 13:44 18,6 C 21,1 C 58 % 1017,7 hPa 0,0 l/m 22,9 km/h (4 Bft) W-SW 256 0 min 0,000 mm 2,4 UV-I 424 W/m 10,2 C 13,8 C 43,5 km/h (6 Bft) 100,00 %
24.05.2017 13:46 18,4 C 21,1 C 57 % 1017,7 hPa 0,0 l/m 22,1 km/h (4 Bft) W 259 0 min 0,000 mm 2,4 UV-I 403 W/m 9,7 C 13,7 C 32,2 km/h (5 Bft) 94,34 %
24.05.2017 13:48 18,3 C 21,1 C 57 % 1017,8 hPa 0,0 l/m 19,2 km/h (3 Bft) W-SW 251 0 min 0,000 mm 2,7 UV-I 470 W/m 9,6 C 14,2 C 33,8 km/h (5 Bft) 95,12 %
24.05.2017 13:50 18,4 C 21,1 C 57 % 1017,8 hPa 0,0 l/m 20,6 km/h (4 Bft) W-SW 247 2 min 0,000 mm 3,5 UV-I 501 W/m 9,7 C 14,0 C 29,0 km/h (5 Bft) 95,45 %
24.05.2017 13:53 18,4 C 21,1 C 57 % 1017,9 hPa 0,0 l/m 24,1 km/h (4 Bft) W 273 0 min 0,000 mm 2,9 UV-I 457 W/m 9,7 C 13,4 C 38,6 km/h (5 Bft) 94,94 %
24.05.2017 13:54 18,4 C 21,1 C 57 % 1017,9 hPa 0,0 l/m 23,0 km/h (4 Bft) SW 227 0 min 0,000 mm 2,3 UV-I 377 W/m 9,7 C 13,6 C 29,0 km/h (5 Bft) 100,00 %
24.05.2017 13:56 18,3 C 21,1 C 58 % 1017,7 hPa 0,0 l/m 20,9 km/h (4 Bft) W 267 0 min 0,000 mm 2,2 UV-I 375 W/m 9,9 C 13,8 C 30,6 km/h (5 Bft) 93,62 %
24.05.2017 13:58 18,2 C 21,1 C 60 % 1017,7 hPa 0,0 l/m 19,1 km/h (3 Bft) SW 229 0 min 0,000 mm 2,1 UV-I 342 W/m 10,3 C 14,1 C 32,2 km/h (5 Bft) 96,88 %
24.05.2017 14:00 18,1 C 21,1 C 60 % 1017,8 hPa 0,0 l/m 30,7 km/h (5 Bft) W-SW 238 0 min 0,381 mm 2,1 UV-I 346 W/m 10,2 C 12,0 C 40,2 km/h (6 Bft) 94,92 %
24.05.2017 14:02 18,0 C 21,1 C 60 % 1017,7 hPa 0,0 l/m 22,8 km/h (4 Bft) W-SW 244 0 min 0,000 mm 2,2 UV-I 385 W/m 10,1 C 13,1 C 33,8 km/h (5 Bft) 97,56 %
24.05.2017 14:04 17,9 C 21,1 C 61 % 1017,6 hPa 0,0 l/m 16,5 km/h (3 Bft) SW 217 0 min 0,000 mm 2,2 UV-I 372 W/m 10,3 C 14,3 C 22,5 km/h (4 Bft) 98,00 %
24.05.2017 14:06 17,9 C 21,1 C 62 % 1017,6 hPa 0,0 l/m 14,0 km/h (3 Bft) W-SW 256 0 min 0,000 mm 2,0 UV-I 342 W/m 10,5 C 15,0 C 24,1 km/h (4 Bft) 92,68 %
24.05.2017 14:08 17,9 C 21,1 C 62 % 1017,6 hPa 0,0 l/m 18,8 km/h (3 Bft) S-SW 207 0 min 0,000 mm 2,1 UV-I 348 W/m 10,5 C 13,8 C 27,4 km/h (4 Bft) 98,04 %
24.05.2017 14:10 17,8 C 21,1 C 60 % 1017,9 hPa 0,0 l/m 17,7 km/h (3 Bft) W-SW 246 0 min 0,000 mm 2,3 UV-I 380 W/m 9,9 C 13,9 C 24,1 km/h (4 Bft) 95,12 %
24.05.2017 14:12 17,8 C 21,1 C 60 % 1017,6 hPa 0,0 l/m 21,7 km/h (4 Bft) W-SW 242 0 min 0,000 mm 2,6 UV-I 419 W/m 9,9 C 13,0 C 37,0 km/h (5 Bft) 94,64 %
24.05.2017 14:14 17,8 C 21,1 C 59 % 1017,6 hPa 0,0 l/m 20,8 km/h (4 Bft) W 265 0 min 0,000 mm 2,6 UV-I 412 W/m 9,7 C 13,2 C 32,2 km/h (5 Bft) 97,56 %
24.05.2017 14:16 17,8 C 21,1 C 60 % 1017,6 hPa 0,0 l/m 17,6 km/h (3 Bft) W 262 0 min 0,000 mm 2,6 UV-I 407 W/m 9,9 C 13,9 C 22,5 km/h (4 Bft) 96,00 %
24.05.2017 14:18 17,8 C 21,1 C 59 % 1017,6 hPa 0,0 l/m 17,5 km/h (3 Bft) W-SW 253 0 min 0,000 mm 3,0 UV-I 460 W/m 9,7 C 13,9 C 33,8 km/h (5 Bft) 96,00 %
24.05.2017 14:20 17,9 C 21,1 C 59 % 1017,5 hPa 0,0 l/m 19,3 km/h (3 Bft) W-NW 289 2 min 0,000 mm 4,3 UV-I 524 W/m 9,8 C 13,6 C 32,2 km/h (5 Bft) 100,00 %
24.05.2017 14:22 18,2 C 21,1 C 58 % 1017,6 hPa 0,0 l/m 22,8 km/h (4 Bft) W-NW 282 2 min 0,000 mm 4,5 UV-I 969 W/m 9,8 C 13,3 C 33,8 km/h (5 Bft) 98,11 %
24.05.2017 14:24 18,3 C 21,1 C 57 % 1017,5 hPa 0,0 l/m 17,4 km/h (3 Bft) SW 234 2 min 0,000 mm 3,9 UV-I 979 W/m 9,6 C 14,6 C 29,0 km/h (5 Bft) 100,00 %
24.05.2017 14:26 18,4 C 21,1 C 55 % 1017,5 hPa 0,0 l/m 30,7 km/h (5 Bft) W 265 2 min 0,000 mm 4,0 UV-I 979 W/m 9,2 C 12,4 C 41,8 km/h (6 Bft) 96,00 %
24.05.2017 14:28 18,6 C 21,1 C 56 % 1017,6 hPa 0,0 l/m 24,6 km/h (4 Bft) W 263 2 min 0,000 mm 4,8 UV-I 820 W/m 9,6 C 13,6 C 45,1 km/h (6 Bft) 96,00 %
24.05.2017 14:30 18,6 C 21,1 C 57 % 1017,6 hPa 0,0 l/m 19,8 km/h (3 Bft) W-NW 283 2 min 0,000 mm 4,3 UV-I 696 W/m 9,9 C 14,4 C 37,0 km/h (5 Bft) 97,37 %
24.05.2017 14:32 18,7 C 21,1 C 56 % 1017,6 hPa 0,0 l/m 25,1 km/h (4 Bft) W-SW 237 2 min 0,000 mm 4,5 UV-I 776 W/m 9,7 C 13,6 C 38,6 km/h (5 Bft) 98,11 %
24.05.2017 14:34 18,8 C 21,1 C 55 % 1017,5 hPa 0,0 l/m 24,1 km/h (4 Bft) W-SW 252 2 min 0,000 mm 4,3 UV-I 831 W/m 9,6 C 13,9 C 35,4 km/h (5 Bft) 95,45 %
24.05.2017 14:36 18,9 C 21,1 C 55 % 1017,4 hPa 0,0 l/m 22,3 km/h (4 Bft) W-SW 257 2 min 0,000 mm 5,0 UV-I 1035 W/m 9,7 C 14,3 C 40,2 km/h (6 Bft) 98,11 %
24.05.2017 14:38 19,1 C 21,1 C 53 % 1017,5 hPa 0,0 l/m 19,6 km/h (3 Bft) W-SW 242 2 min 0,000 mm 4,7 UV-I 1093 W/m 9,3 C 15,1 C 37,0 km/h (5 Bft) 97,37 %
24.05.2017 14:40 19,1 C 21,1 C 52 % 1017,5 hPa 0,0 l/m 21,6 km/h (4 Bft) W-SW 243 2 min 0,000 mm 4,4 UV-I 1062 W/m 9,0 C 14,7 C 35,4 km/h (5 Bft) 97,87 %
24.05.2017 14:42 19,2 C 21,1 C 52 % 1017,4 hPa 0,0 l/m 17,5 km/h (3 Bft) W 279 2 min 0,000 mm 3,5 UV-I 1062 W/m 9,1 C 15,7 C 30,6 km/h (5 Bft) 97,87 %
24.05.2017 14:44 19,1 C 21,1 C 51 % 1017,5 hPa 0,0 l/m 19,4 km/h (3 Bft) SW 234 2 min 0,000 mm 3,2 UV-I 1062 W/m 8,7 C 15,2 C 29,0 km/h (5 Bft) 97,87 %
24.05.2017 14:46 18,9 C 21,1 C 52 % 1017,5 hPa 0,0 l/m 20,7 km/h (4 Bft) W 279 2 min 0,000 mm 4,3 UV-I 1062 W/m 8,8 C 14,6 C 27,4 km/h (4 Bft) 96,23 %
24.05.2017 14:48 18,9 C 21,1 C 52 % 1017,5 hPa 0,0 l/m 12,5 km/h (3 Bft) W-SW 252 2 min 0,000 mm 4,4 UV-I 1067 W/m 8,8 C 16,6 C 24,1 km/h (4 Bft) 95,45 %
24.05.2017 14:50 19,2 C 21,1 C 53 % 1017,5 hPa 0,0 l/m 12,8 km/h (3 Bft) W 266 2 min 0,000 mm 5,0 UV-I 1122 W/m 9,4 C 16,9 C 24,1 km/h (4 Bft) 97,62 %
24.05.2017 14:52 19,4 C 21,1 C 51 % 1017,6 hPa 0,0 l/m 14,6 km/h (3 Bft) W-NW 286 2 min 0,000 mm 3,8 UV-I 1127 W/m 9,0 C 16,6 C 25,7 km/h (4 Bft) 98,11 %
24.05.2017 14:54 19,4 C 21,1 C 50 % 1017,6 hPa 0,0 l/m 19,0 km/h (3 Bft) W-SW 248 2 min 0,000 mm 4,6 UV-I 1107 W/m 8,7 C 15,6 C 32,2 km/h (5 Bft) 96,15 %
24.05.2017 14:56 19,5 C 21,1 C 52 % 1017,6 hPa 0,0 l/m 14,0 km/h (3 Bft) W 270 2 min 0,000 mm 4,7 UV-I 1046 W/m 9,4 C 16,9 C 20,9 km/h (4 Bft) 97,22 %
24.05.2017 14:58 19,7 C 21,7 C 51 % 1017,5 hPa 0,0 l/m 15,6 km/h (3 Bft) W 267 2 min 0,000 mm 4,8 UV-I 1085 W/m 9,3 C 16,7 C 27,4 km/h (4 Bft) 98,00 %
24.05.2017 15:00 19,7 C 21,7 C 48 % 1017,5 hPa 0,0 l/m 17,9 km/h (3 Bft) W 263 2 min 0,508 mm 4,1 UV-I 900 W/m 8,4 C 16,2 C 30,6 km/h (5 Bft) 98,11 %
24.05.2017 15:02 19,7 C 21,7 C 50 % 1017,4 hPa 0,0 l/m 13,2 km/h (3 Bft) W 265 2 min 0,000 mm 4,2 UV-I 809 W/m 9,0 C 17,3 C 22,5 km/h (4 Bft) 97,56 %
24.05.2017 15:04 19,6 C 21,7 C 48 % 1017,4 hPa 0,0 l/m 14,0 km/h (3 Bft) W 275 2 min 0,000 mm 4,1 UV-I 723 W/m 8,3 C 17,0 C 19,3 km/h (3 Bft) 94,00 %
24.05.2017 15:06 19,6 C 21,7 C 48 % 1017,4 hPa 0,0 l/m 15,7 km/h (3 Bft) W 271 2 min 0,000 mm 4,3 UV-I 897 W/m 8,3 C 16,6 C 22,5 km/h (4 Bft) 95,74 %
24.05.2017 15:08 19,6 C 21,7 C 48 % 1017,5 hPa 0,0 l/m 19,1 km/h (3 Bft) W-SW 252 2 min 0,000 mm 4,1 UV-I 861 W/m 8,3 C 15,9 C 27,4 km/h (4 Bft) 95,74 %
24.05.2017 15:10 19,6 C 21,7 C 49 % 1017,5 hPa 0,0 l/m 17,4 km/h (3 Bft) W-SW 243 2 min 0,000 mm 4,1 UV-I 838 W/m 8,6 C 16,2 C 29,0 km/h (5 Bft) 97,73 %
24.05.2017 15:12 19,6 C 21,7 C 48 % 1017,5 hPa 0,0 l/m 15,4 km/h (3 Bft) W 280 2 min 0,000 mm 4,3 UV-I 932 W/m 8,3 C 16,7 C 32,2 km/h (5 Bft) 96,23 %
24.05.2017 15:14 19,7 C 21,7 C 46 % 1017,5 hPa 0,0 l/m 19,8 km/h (3 Bft) W 263 2 min 0,000 mm 4,4 UV-I 1010 W/m 7,8 C 15,9 C 35,4 km/h (5 Bft) 97,56 %
24.05.2017 15:16 19,7 C 21,7 C 48 % 1017,4 hPa 0,0 l/m 16,6 km/h (3 Bft) SW 233 2 min 0,000 mm 4,4 UV-I 1002 W/m 8,4 C 16,5 C 22,5 km/h (4 Bft) 96,23 %
24.05.2017 15:18 19,8 C 21,7 C 48 % 1017,4 hPa 0,0 l/m 11,2 km/h (2 Bft) W-SW 250 2 min 0,000 mm 4,1 UV-I 1005 W/m 8,5 C 18,0 C 17,7 km/h (3 Bft) 94,74 %
24.05.2017 15:20 20,0 C 21,7 C 46 % 1017,4 hPa 0,0 l/m 12,1 km/h (2 Bft) W-NW 288 2 min 0,000 mm 4,0 UV-I 914 W/m 8,0 C 18,0 C 27,4 km/h (4 Bft) 97,87 %
24.05.2017 15:22 20,2 C 21,7 C 47 % 1017,4 hPa 0,0 l/m 12,3 km/h (3 Bft) W-SW 246 2 min 0,000 mm 3,9 UV-I 865 W/m 8,5 C 18,2 C 22,5 km/h (4 Bft) 98,21 %
24.05.2017 15:24 20,2 C 21,7 C 47 % 1017,5 hPa 0,0 l/m 12,3 km/h (3 Bft) W-SW 242 2 min 0,000 mm 3,2 UV-I 856 W/m 8,5 C 18,2 C 27,4 km/h (4 Bft) 97,37 %
24.05.2017 15:26 19,9 C 21,7 C 46 % 1017,4 hPa 0,0 l/m 15,4 km/h (3 Bft) W 262 2 min 0,000 mm 3,7 UV-I 859 W/m 7,9 C 17,0 C 37,0 km/h (5 Bft) 98,00 %
24.05.2017 15:28 19,8 C 21,7 C 45 % 1017,4 hPa 0,0 l/m 12,2 km/h (2 Bft) SW 235 2 min 0,000 mm 3,7 UV-I 875 W/m 7,5 C 17,7 C 29,0 km/h (5 Bft) 100,00 %
24.05.2017 15:30 19,6 C 21,7 C 45 % 1017,4 hPa 0,0 l/m 16,1 km/h (3 Bft) W-NW 284 2 min 0,000 mm 3,4 UV-I 778 W/m 7,3 C 16,5 C 27,4 km/h (4 Bft) 96,43 %
24.05.2017 15:32 19,5 C 21,7 C 45 % 1017,6 hPa 0,0 l/m 9,8 km/h (2 Bft) W 267 2 min 0,000 mm 3,1 UV-I 768 W/m 7,2 C 18,2 C 14,5 km/h (3 Bft) 95,74 %
24.05.2017 15:34 19,6 C 21,7 C 45 % 1017,5 hPa 0,0 l/m 16,9 km/h (3 Bft) W 267 2 min 0,000 mm 3,4 UV-I 768 W/m 7,3 C 16,3 C 38,6 km/h (5 Bft) 96,00 %
24.05.2017 15:36 19,5 C 21,7 C 46 % 1017,5 hPa 0,0 l/m 9,6 km/h (2 Bft) W-SW 240 2 min 0,000 mm 2,4 UV-I 466 W/m 7,6 C 18,2 C 19,3 km/h (3 Bft) 92,68 %
24.05.2017 15:38 19,4 C 21,7 C 46 % 1017,6 hPa 0,0 l/m 13,7 km/h (3 Bft) W-NW 286 2 min 0,000 mm 2,4 UV-I 447 W/m 7,5 C 16,9 C 19,3 km/h (3 Bft) 93,18 %
24.05.2017 15:40 19,2 C 21,7 C 44 % 1017,7 hPa 0,0 l/m 21,2 km/h (4 Bft) W 260 2 min 0,000 mm 2,4 UV-I 506 W/m 6,7 C 14,9 C 35,4 km/h (5 Bft) 94,34 %
24.05.2017 15:42 19,1 C 21,7 C 45 % 1017,5 hPa 0,0 l/m 21,3 km/h (4 Bft) W-SW 247 2 min 0,000 mm 2,2 UV-I 438 W/m 6,9 C 14,8 C 32,2 km/h (5 Bft) 95,12 %
24.05.2017 15:44 18,9 C 21,7 C 45 % 1017,5 hPa 0,0 l/m 22,6 km/h (4 Bft) SW 223 0 min 0,000 mm 2,1 UV-I 398 W/m 6,7 C 14,3 C 40,2 km/h (6 Bft) 96,23 %
24.05.2017 15:46 18,9 C 21,7 C 44 % 1017,7 hPa 0,0 l/m 28,2 km/h (4 Bft) W-SW 238 2 min 0,000 mm 2,2 UV-I 457 W/m 6,4 C 13,4 C 54,7 km/h (7 Bft) 97,56 %
24.05.2017 15:48 18,8 C 21,7 C 44 % 1017,6 hPa 0,0 l/m 21,6 km/h (4 Bft) W-NW 287 2 min 0,000 mm 2,0 UV-I 434 W/m 6,3 C 14,3 C 33,8 km/h (5 Bft) 96,23 %
24.05.2017 15:50 18,8 C 21,7 C 46 % 1017,6 hPa 0,0 l/m 13,1 km/h (3 Bft) N-NW 337 0 min 0,000 mm 1,6 UV-I 299 W/m 6,9 C 16,3 C 22,5 km/h (4 Bft) 98,00 %
24.05.2017 15:52 18,7 C 21,7 C 47 % 1017,5 hPa 0,0 l/m 15,2 km/h (3 Bft) W-NW 292 0 min 0,000 mm 1,6 UV-I 291 W/m 7,2 C 15,6 C 25,7 km/h (4 Bft) 97,14 %
24.05.2017 15:54 18,6 C 21,7 C 46 % 1017,6 hPa 0,0 l/m 21,4 km/h (4 Bft) W-NW 287 0 min 0,000 mm 1,5 UV-I 291 W/m 6,8 C 14,1 C 41,8 km/h (6 Bft) 96,00 %
24.05.2017 15:56 18,4 C 21,7 C 46 % 1017,6 hPa 0,0 l/m 20,4 km/h (4 Bft) W-SW 240 0 min 0,000 mm 1,5 UV-I 286 W/m 6,6 C 14,1 C 29,0 km/h (5 Bft) 95,12 %
24.05.2017 15:58 18,4 C 21,7 C 48 % 1017,6 hPa 0,0 l/m 14,4 km/h (3 Bft) W-SW 244 0 min 0,000 mm 1,5 UV-I 297 W/m 7,2 C 15,5 C 24,1 km/h (4 Bft) 97,62 %
24.05.2017 16:00 18,4 C 21,7 C 47 % 1017,7 hPa 0,0 l/m 10,7 km/h (2 Bft) SW 227 0 min 0,000 mm 1,6 UV-I 316 W/m 6,9 C 16,6 C 17,7 km/h (3 Bft) 96,15 %
24.05.2017 16:02 18,4 C 21,7 C 47 % 1017,7 hPa 0,0 l/m 11,1 km/h (2 Bft) N-NW 329 0 min 0,483 mm 1,6 UV-I 311 W/m 6,9 C 16,5 C 20,9 km/h (4 Bft) 92,45 %
24.05.2017 16:04 18,4 C 21,7 C 48 % 1017,6 hPa 0,0 l/m 11,8 km/h (2 Bft) SW 222 0 min 0,000 mm 1,5 UV-I 303 W/m 7,2 C 16,3 C 29,0 km/h (5 Bft) 93,62 %
24.05.2017 16:06 18,3 C 21,7 C 48 % 1017,7 hPa 0,0 l/m 11,3 km/h (2 Bft) W-NW 286 0 min 0,000 mm 1,5 UV-I 289 W/m 7,1 C 16,3 C 17,7 km/h (3 Bft) 100,00 %
24.05.2017 16:08 18,3 C 21,7 C 47 % 1017,6 hPa 0,0 l/m 10,9 km/h (2 Bft) W 259 0 min 0,000 mm 1,5 UV-I 282 W/m 6,8 C 16,4 C 17,7 km/h (3 Bft) 100,00 %
24.05.2017 16:10 18,3 C 21,7 C 48 % 1017,6 hPa 0,0 l/m 7,1 km/h (2 Bft) NW 315 0 min 0,000 mm 1,5 UV-I 291 W/m 7,1 C 18,0 C 19,3 km/h (3 Bft) 100,00 %
24.05.2017 16:12 18,3 C 21,7 C 48 % 1017,6 hPa 0,0 l/m 10,3 km/h (2 Bft) W 275 0 min 0,000 mm 1,5 UV-I 301 W/m 7,1 C 16,7 C 19,3 km/h (3 Bft) 100,00 %
24.05.2017 16:14 18,4 C 21,7 C 49 % 1017,6 hPa 0,0 l/m 8,4 km/h (2 Bft) W-NW 292 0 min 0,000 mm 1,5 UV-I 298 W/m 7,5 C 17,5 C 17,7 km/h (3 Bft) 100,00 %
24.05.2017 16:16 18,4 C 21,7 C 48 % 1017,6 hPa 0,0 l/m 12,2 km/h (2 Bft) W-NW 302 0 min 0,000 mm 1,3 UV-I 279 W/m 7,2 C 16,1 C 20,9 km/h (4 Bft) 100,00 %
24.05.2017 16:18 18,4 C 21,7 C 48 % 1017,6 hPa 0,0 l/m 13,2 km/h (3 Bft) W-SW 252 0 min 0,000 mm 1,3 UV-I 261 W/m 7,2 C 15,8 C 25,7 km/h (4 Bft) 98,00 %
24.05.2017 16:20 18,4 C 21,7 C 48 % 1017,7 hPa 0,0 l/m 13,9 km/h (3 Bft) W-SW 250 0 min 0,000 mm 1,2 UV-I 242 W/m 7,2 C 15,6 C 24,1 km/h (4 Bft) 97,14 %
24.05.2017 16:22 18,4 C 21,7 C 48 % 1017,6 hPa 0,0 l/m 13,5 km/h (3 Bft) W 273 0 min 0,000 mm 1,1 UV-I 232 W/m 7,2 C 15,7 C 24,1 km/h (4 Bft) 100,00 %
24.05.2017 16:24 18,3 C 21,7 C 49 % 1017,7 hPa 0,0 l/m 20,5 km/h (4 Bft) W-SW 244 0 min 0,000 mm 1,0 UV-I 214 W/m 7,4 C 13,9 C 30,6 km/h (5 Bft) 100,00 %
24.05.2017 16:26 18,3 C 21,7 C 48 % 1017,7 hPa 0,0 l/m 15,3 km/h (3 Bft) W-SW 258 0 min 0,000 mm 0,9 UV-I 196 W/m 7,1 C 15,1 C 24,1 km/h (4 Bft) 97,67 %
24.05.2017 16:29 18,3 C 21,7 C 48 % 1017,7 hPa 0,0 l/m 15,5 km/h (3 Bft) W 267 0 min 0,000 mm 0,9 UV-I 194 W/m 7,1 C 15,1 C 27,4 km/h (4 Bft) 97,56 %
24.05.2017 16:30 18,3 C 21,7 C 49 % 1017,7 hPa 0,0 l/m 12,3 km/h (3 Bft) W-SW 255 0 min 0,000 mm 0,9 UV-I 202 W/m 7,4 C 16,0 C 19,3 km/h (3 Bft) 100,00 %
24.05.2017 16:32 18,3 C 21,7 C 49 % 1017,7 hPa 0,0 l/m 13,3 km/h (3 Bft) W-SW 249 0 min 0,000 mm 1,0 UV-I 207 W/m 7,4 C 15,7 C 19,3 km/h (3 Bft) 100,00 %
24.05.2017 16:34 18,3 C 21,7 C 49 % 1017,6 hPa 0,0 l/m 11,7 km/h (2 Bft) W-SW 258 0 min 0,000 mm 1,0 UV-I 224 W/m 7,4 C 16,2 C 14,5 km/h (3 Bft) 100,00 %
24.05.2017 16:36 18,3 C 21,7 C 48 % 1017,6 hPa 0,0 l/m 10,7 km/h (2 Bft) W-NW 288 0 min 0,000 mm 1,0 UV-I 234 W/m 7,1 C 16,5 C 22,5 km/h (4 Bft) 97,37 %
24.05.2017 16:38 18,4 C 21,7 C 49 % 1017,6 hPa 0,0 l/m 10,3 km/h (2 Bft) W 279 0 min 0,000 mm 1,0 UV-I 215 W/m 7,5 C 16,8 C 25,7 km/h (4 Bft) 100,00 %
24.05.2017 16:40 18,4 C 21,7 C 49 % 1017,6 hPa 0,0 l/m 12,8 km/h (3 Bft) W-SW 240 0 min 0,000 mm 0,8 UV-I 186 W/m 7,5 C 15,9 C 25,7 km/h (4 Bft) 98,11 %
24.05.2017 16:42 18,3 C 21,7 C 49 % 1017,5 hPa 0,0 l/m 15,9 km/h (3 Bft) SW 230 0 min 0,000 mm 0,7 UV-I 151 W/m 7,4 C 15,0 C 25,7 km/h (4 Bft) 97,56 %
24.05.2017 16:44 18,3 C 21,7 C 49 % 1017,5 hPa 0,0 l/m 19,8 km/h (3 Bft) W-SW 257 0 min 0,000 mm 0,6 UV-I 135 W/m 7,4 C 14,1 C 32,2 km/h (5 Bft) 100,00 %
24.05.2017 16:46 18,3 C 21,7 C 50 % 1017,5 hPa 0,0 l/m 6,7 km/h (2 Bft) W 261 0 min 0,000 mm 0,6 UV-I 134 W/m 7,7 C 18,2 C 12,9 km/h (3 Bft) 98,00 %
24.05.2017 16:48 18,2 C 21,7 C 50 % 1017,5 hPa 0,0 l/m 13,0 km/h (3 Bft) NW 313 0 min 0,000 mm 0,6 UV-I 136 W/m 7,6 C 15,6 C 25,7 km/h (4 Bft) 100,00 %
24.05.2017 16:50 18,1 C 21,7 C 50 % 1017,5 hPa 0,0 l/m 9,7 km/h (2 Bft) W-SW 239 0 min 0,000 mm 0,6 UV-I 137 W/m 7,5 C 16,7 C 17,7 km/h (3 Bft) 98,46 %
24.05.2017 16:52 18,1 C 21,7 C 51 % 1017,4 hPa 0,0 l/m 9,6 km/h (2 Bft) W-SW 244 0 min 0,000 mm 0,3 UV-I 114 W/m 7,8 C 16,7 C 17,7 km/h (3 Bft) 97,56 %
24.05.2017 16:54 18,0 C 21,7 C 51 % 1017,5 hPa 0,0 l/m 14,4 km/h (3 Bft) W-SW 257 0 min 0,000 mm 0,0 UV-I 84 W/m 7,7 C 15,0 C 19,3 km/h (3 Bft) 100,00 %
24.05.2017 16:56 18,0 C 21,7 C 51 % 1017,5 hPa 0,0 l/m 17,1 km/h (3 Bft) W-SW 251 0 min 0,000 mm 0,0 UV-I 73 W/m 7,7 C 14,3 C 29,0 km/h (5 Bft) 97,56 %
24.05.2017 16:58 17,9 C 21,7 C 51 % 1017,5 hPa 0,0 l/m 12,7 km/h (3 Bft) W-SW 254 0 min 0,000 mm 0,0 UV-I 67 W/m 7,6 C 15,4 C 17,7 km/h (3 Bft) 97,56 %
24.05.2017 17:00 17,9 C 21,7 C 51 % 1017,5 hPa 0,0 l/m 11,5 km/h (2 Bft) SW 228 0 min 0,000 mm 0,0 UV-I 68 W/m 7,6 C 15,8 C 19,3 km/h (3 Bft) 100,00 %
24.05.2017 17:02 17,9 C 21,7 C 52 % 1017,5 hPa 0,0 l/m 8,9 km/h (2 Bft) W-SW 248 0 min 0,203 mm 0,0 UV-I 66 W/m 7,9 C 16,8 C 19,3 km/h (3 Bft) 96,23 %
24.05.2017 17:04 17,8 C 21,7 C 52 % 1017,5 hPa 0,0 l/m 10,7 km/h (2 Bft) W-SW 244 0 min 0,000 mm 0,0 UV-I 62 W/m 7,8 C 15,9 C 17,7 km/h (3 Bft) 92,11 %
24.05.2017 17:06 17,8 C 21,7 C 52 % 1017,6 hPa 0,0 l/m 13,9 km/h (3 Bft) W 272 0 min 0,000 mm 0,0 UV-I 63 W/m 7,8 C 14,9 C 22,5 km/h (4 Bft) 98,00 %
24.05.2017 17:08 17,8 C 21,7 C 53 % 1017,5 hPa 0,0 l/m 12,0 km/h (2 Bft) W-SW 239 0 min 0,000 mm 0,0 UV-I 64 W/m 8,1 C 15,5 C 17,7 km/h (3 Bft) 96,00 %
24.05.2017 17:10 17,8 C 21,7 C 52 % 1017,6 hPa 0,0 l/m 16,0 km/h (3 Bft) W 263 0 min 0,000 mm 0,0 UV-I 61 W/m 7,8 C 14,3 C 24,1 km/h (4 Bft) 98,00 %
24.05.2017 17:12 17,8 C 21,7 C 53 % 1017,6 hPa 0,0 l/m 18,5 km/h (3 Bft) W 261 0 min 0,000 mm 0,0 UV-I 54 W/m 8,1 C 13,7 C 30,6 km/h (5 Bft) 97,56 %
24.05.2017 17:14 17,7 C 21,7 C 52 % 1017,5 hPa 0,0 l/m 17,7 km/h (3 Bft) W 267 0 min 0,000 mm 0,0 UV-I 53 W/m 7,7 C 13,8 C 22,5 km/h (4 Bft) 97,73 %
24.05.2017 17:16 17,7 C 21,7 C 52 % 1017,5 hPa 0,0 l/m 11,8 km/h (2 Bft) SW 236 0 min 0,000 mm 0,0 UV-I 53 W/m 7,7 C 15,4 C 16,1 km/h (3 Bft) 96,00 %
24.05.2017 17:18 17,7 C 21,7 C 53 % 1017,5 hPa 0,0 l/m 10,0 km/h (2 Bft) W-NW 294 0 min 0,000 mm 0,0 UV-I 54 W/m 8,0 C 16,1 C 14,5 km/h (3 Bft) 100,00 %
24.05.2017 17:20 17,7 C 21,7 C 53 % 1017,4 hPa 0,0 l/m 17,0 km/h (3 Bft) W 263 0 min 0,000 mm 0,0 UV-I 55 W/m 8,0 C 13,9 C 27,4 km/h (4 Bft) 97,87 %
24.05.2017 17:23 17,7 C 21,7 C 53 % 1017,4 hPa 0,0 l/m 12,1 km/h (2 Bft) W 261 0 min 0,000 mm 0,0 UV-I 52 W/m 8,0 C 15,3 C 20,9 km/h (4 Bft) 98,46 %
24.05.2017 17:24 17,7 C 21,7 C 53 % 1017,4 hPa 0,0 l/m 16,5 km/h (3 Bft) W-SW 247 0 min 0,000 mm 0,0 UV-I 56 W/m 8,0 C 14,1 C 20,9 km/h (4 Bft) 100,00 %
24.05.2017 17:26 17,7 C 21,7 C 53 % 1017,3 hPa 0,0 l/m 14,9 km/h (3 Bft) W-SW 247 0 min 0,000 mm 0,0 UV-I 60 W/m 8,0 C 14,5 C 22,5 km/h (4 Bft) 97,62 %
24.05.2017 17:28 17,7 C 21,7 C 54 % 1017,4 hPa 0,0 l/m 11,1 km/h (2 Bft) W 261 0 min 0,000 mm 0,0 UV-I 64 W/m 8,3 C 15,7 C 14,5 km/h (3 Bft) 98,28 %
24.05.2017 17:30 17,6 C 21,7 C 54 % 1017,4 hPa 0,0 l/m 12,5 km/h (3 Bft) W 269 0 min 0,000 mm 0,0 UV-I 69 W/m 8,2 C 15,1 C 20,9 km/h (4 Bft) 97,22 %
24.05.2017 17:32 17,6 C 21,7 C 54 % 1017,4 hPa 0,0 l/m 11,8 km/h (2 Bft) W 267 0 min 0,000 mm 0,0 UV-I 69 W/m 8,2 C 15,3 C 20,9 km/h (4 Bft) 95,74 %
24.05.2017 17:34 17,6 C 21,7 C 54 % 1017,4 hPa 0,0 l/m 11,3 km/h (2 Bft) W 265 0 min 0,000 mm 0,0 UV-I 65 W/m 8,2 C 15,5 C 20,9 km/h (4 Bft) 95,12 %
24.05.2017 17:36 17,6 C 21,7 C 53 % 1017,4 hPa 0,0 l/m 16,0 km/h (3 Bft) W-SW 258 0 min 0,000 mm 0,0 UV-I 63 W/m 7,9 C 14,1 C 22,5 km/h (4 Bft) 93,55 %
24.05.2017 17:38 17,7 C 21,7 C 54 % 1017,4 hPa 0,0 l/m 14,0 km/h (3 Bft) W 259 0 min 0,000 mm 0,0 UV-I 69 W/m 8,3 C 14,8 C 20,9 km/h (4 Bft) 95,12 %
24.05.2017 17:40 17,6 C 21,7 C 54 % 1017,4 hPa 0,0 l/m 15,8 km/h (3 Bft) SW 235 0 min 0,000 mm 0,0 UV-I 69 W/m 8,2 C 14,1 C 22,5 km/h (4 Bft) 96,23 %
24.05.2017 17:43 17,6 C 21,7 C 54 % 1017,4 hPa 0,0 l/m 14,4 km/h (3 Bft) W 263 0 min 0,000 mm 0,0 UV-I 59 W/m 8,2 C 14,5 C 22,5 km/h (4 Bft) 97,01 %
24.05.2017 17:44 17,6 C 21,7 C 54 % 1017,4 hPa 0,0 l/m 14,0 km/h (3 Bft) W-SW 252 0 min 0,000 mm 0,0 UV-I 57 W/m 8,2 C 14,6 C 20,9 km/h (4 Bft) 100,00 %
24.05.2017 17:46 17,6 C 21,7 C 54 % 1017,5 hPa 0,0 l/m 16,1 km/h (3 Bft) W-SW 251 0 min 0,000 mm 0,0 UV-I 59 W/m 8,2 C 14,0 C 29,0 km/h (5 Bft) 97,56 %
24.05.2017 17:48 17,6 C 21,7 C 54 % 1017,4 hPa 0,0 l/m 15,2 km/h (3 Bft) W-SW 245 0 min 0,000 mm 0,0 UV-I 50 W/m 8,2 C 14,3 C 22,5 km/h (4 Bft) 95,74 %
24.05.2017 17:50 17,6 C 21,7 C 54 % 1017,4 hPa 0,0 l/m 13,6 km/h (3 Bft) W-SW 258 0 min 0,000 mm 0,0 UV-I 43 W/m 8,2 C 14,8 C 19,3 km/h (3 Bft) 98,11 %
24.05.2017 17:52 17,6 C 21,7 C 54 % 1017,5 hPa 0,0 l/m 16,7 km/h (3 Bft) W-SW 256 0 min 0,000 mm 0,0 UV-I 45 W/m 8,2 C 13,9 C 30,6 km/h (5 Bft) 97,56 %
24.05.2017 17:54 17,6 C 21,7 C 54 % 1017,5 hPa 0,0 l/m 15,8 km/h (3 Bft) W-SW 254 0 min 0,000 mm 0,0 UV-I 47 W/m 8,2 C 14,1 C 22,5 km/h (4 Bft) 98,11 %
24.05.2017 17:56 17,6 C 21,7 C 54 % 1017,4 hPa 0,0 l/m 13,9 km/h (3 Bft) W-SW 254 0 min 0,000 mm 0,0 UV-I 49 W/m 8,2 C 14,7 C 24,1 km/h (4 Bft) 92,68 %
24.05.2017 17:58 17,5 C 21,1 C 54 % 1017,4 hPa 0,0 l/m 13,4 km/h (3 Bft) W-SW 258 0 min 0,000 mm 0,0 UV-I 49 W/m 8,1 C 14,7 C 19,3 km/h (3 Bft) 97,62 %
24.05.2017 18:00 17,5 C 21,1 C 55 % 1017,4 hPa 0,0 l/m 11,2 km/h (2 Bft) W-SW 245 0 min 0,127 mm 0,0 UV-I 55 W/m 8,4 C 15,4 C 17,7 km/h (3 Bft) 94,55 %
24.05.2017 18:02 17,5 C 21,1 C 54 % 1017,4 hPa 0,0 l/m 14,7 km/h (3 Bft) W-SW 257 0 min 0,000 mm 0,0 UV-I 63 W/m 8,1 C 14,3 C 20,9 km/h (4 Bft) 100,00 %
24.05.2017 18:04 17,4 C 21,1 C 55 % 1017,4 hPa 0,0 l/m 12,8 km/h (3 Bft) W-SW 242 0 min 0,000 mm 0,0 UV-I 68 W/m 8,3 C 14,8 C 22,5 km/h (4 Bft) 100,00 %
24.05.2017 18:06 17,4 C 21,1 C 55 % 1017,4 hPa 0,0 l/m 11,8 km/h (2 Bft) W-SW 242 0 min 0,000 mm 0,0 UV-I 72 W/m 8,3 C 15,1 C 19,3 km/h (3 Bft) 100,00 %
24.05.2017 18:08 17,4 C 21,1 C 55 % 1017,4 hPa 0,0 l/m 11,9 km/h (2 Bft) W-NW 299 0 min 0,000 mm 0,0 UV-I 81 W/m 8,3 C 15,1 C 17,7 km/h (3 Bft) 98,31 %
24.05.2017 18:10 17,4 C 21,1 C 55 % 1017,5 hPa 0,0 l/m 16,9 km/h (3 Bft) W-SW 257 0 min 0,000 mm 0,0 UV-I 77 W/m 8,3 C 13,6 C 25,7 km/h (4 Bft) 100,00 %
24.05.2017 18:12 17,5 C 21,1 C 55 % 1017,4 hPa 0,0 l/m 10,9 km/h (2 Bft) W-SW 254 0 min 0,000 mm 0,0 UV-I 61 W/m 8,4 C 15,5 C 14,5 km/h (3 Bft) 100,00 %
24.05.2017 18:14 17,4 C 21,1 C 55 % 1017,4 hPa 0,0 l/m 12,2 km/h (2 Bft) SW 229 0 min 0,000 mm 0,0 UV-I 51 W/m 8,3 C 15,0 C 25,7 km/h (4 Bft) 100,00 %
24.05.2017 18:16 17,4 C 21,1 C 55 % 1017,5 hPa 0,0 l/m 11,7 km/h (2 Bft) SW 222 0 min 0,000 mm 0,0 UV-I 51 W/m 8,3 C 15,1 C 16,1 km/h (3 Bft) 100,00 %
24.05.2017 18:18 17,4 C 21,1 C 55 % 1017,4 hPa 0,0 l/m 9,8 km/h (2 Bft) W-SW 242 0 min 0,000 mm 0,0 UV-I 54 W/m 8,3 C 15,8 C 16,1 km/h (3 Bft) 100,00 %
24.05.2017 18:20 17,4 C 21,1 C 55 % 1017,5 hPa 0,0 l/m 11,5 km/h (2 Bft) W-SW 248 0 min 0,000 mm 0,0 UV-I 53 W/m 8,3 C 15,2 C 20,9 km/h (4 Bft) 96,23 %
24.05.2017 18:22 17,4 C 21,1 C 55 % 1017,5 hPa 0,0 l/m 11,3 km/h (2 Bft) W 277 0 min 0,000 mm 0,0 UV-I 57 W/m 8,3 C 15,3 C 25,7 km/h (4 Bft) 98,00 %
24.05.2017 18:24 17,4 C 21,1 C 54 % 1017,5 hPa 0,0 l/m 10,9 km/h (2 Bft) W 270 0 min 0,000 mm 0,0 UV-I 61 W/m 8,0 C 15,4 C 19,3 km/h (3 Bft) 100,00 %
24.05.2017 18:26 17,4 C 21,1 C 54 % 1017,5 hPa 0,0 l/m 10,2 km/h (2 Bft) S-SW 210 0 min 0,000 mm 0,0 UV-I 57 W/m 8,0 C 15,7 C 14,5 km/h (3 Bft) 98,11 %
24.05.2017 18:28 17,4 C 21,1 C 54 % 1017,5 hPa 0,0 l/m 9,7 km/h (2 Bft) SW 232 0 min 0,000 mm 0,0 UV-I 56 W/m 8,0 C 15,9 C 19,3 km/h (3 Bft) 95,12 %
24.05.2017 18:30 17,4 C 21,1 C 54 % 1017,5 hPa 0,0 l/m 12,9 km/h (3 Bft) NW 315 0 min 0,000 mm 0,0 UV-I 55 W/m 8,0 C 14,7 C 25,7 km/h (4 Bft) 95,74 %
24.05.2017 18:33 17,4 C 21,1 C 54 % 1017,5 hPa 0,0 l/m 10,0 km/h (2 Bft) W 281 0 min 0,000 mm 0,0 UV-I 49 W/m 8,0 C 15,8 C 24,1 km/h (4 Bft) 97,18 %
24.05.2017 18:34 17,4 C 21,1 C 54 % 1017,5 hPa 0,0 l/m 6,7 km/h (2 Bft) W 268 0 min 0,000 mm 0,0 UV-I 44 W/m 8,0 C 17,3 C 16,1 km/h (3 Bft) 100,00 %
24.05.2017 18:36 17,4 C 21,1 C 54 % 1017,6 hPa 0,0 l/m 11,0 km/h (2 Bft) W-NW 301 0 min 0,000 mm 0,0 UV-I 41 W/m 8,0 C 15,4 C 19,3 km/h (3 Bft) 97,37 %
24.05.2017 18:38 17,4 C 21,1 C 54 % 1017,5 hPa 0,0 l/m 8,9 km/h (2 Bft) W 263 0 min 0,000 mm 0,0 UV-I 47 W/m 8,0 C 16,2 C 14,5 km/h (3 Bft) 92,86 %
24.05.2017 18:40 17,3 C 21,1 C 53 % 1017,5 hPa 0,0 l/m 13,3 km/h (3 Bft) W-SW 249 0 min 0,000 mm 0,0 UV-I 53 W/m 7,6 C 14,5 C 25,7 km/h (4 Bft) 97,37 %
24.05.2017 18:42 17,3 C 21,1 C 53 % 1017,6 hPa 0,0 l/m 11,1 km/h (2 Bft) W-SW 253 0 min 0,000 mm 0,0 UV-I 53 W/m 7,6 C 15,2 C 19,3 km/h (3 Bft) 94,34 %
24.05.2017 18:44 17,3 C 21,1 C 53 % 1017,6 hPa 0,0 l/m 9,5 km/h (2 Bft) W-SW 254 0 min 0,000 mm 0,0 UV-I 52 W/m 7,6 C 15,9 C 17,7 km/h (3 Bft) 100,00 %
24.05.2017 18:46 17,3 C 21,1 C 53 % 1017,7 hPa 0,0 l/m 10,3 km/h (2 Bft) W-SW 258 0 min 0,000 mm 0,0 UV-I 48 W/m 7,6 C 15,5 C 19,3 km/h (3 Bft) 93,33 %
24.05.2017 18:48 17,3 C 21,1 C 54 % 1017,7 hPa 0,0 l/m 10,1 km/h (2 Bft) W 263 0 min 0,000 mm 0,0 UV-I 44 W/m 7,9 C 15,6 C 25,7 km/h (4 Bft) 91,07 %
24.05.2017 18:50 17,3 C 21,1 C 54 % 1017,7 hPa 0,0 l/m 9,0 km/h (2 Bft) W-SW 238 0 min 0,000 mm 0,0 UV-I 43 W/m 7,9 C 16,1 C 24,1 km/h (4 Bft) 96,00 %
24.05.2017 18:52 17,3 C 21,1 C 54 % 1017,7 hPa 0,0 l/m 11,2 km/h (2 Bft) SW 214 0 min 0,000 mm 0,0 UV-I 42 W/m 7,9 C 15,2 C 24,1 km/h (4 Bft) 98,00 %
24.05.2017 18:54 17,3 C 21,1 C 54 % 1017,7 hPa 0,0 l/m 12,6 km/h (3 Bft) W 268 0 min 0,000 mm 0,0 UV-I 40 W/m 7,9 C 14,7 C 24,1 km/h (4 Bft) 97,56 %
24.05.2017 18:56 17,3 C 21,1 C 54 % 1017,7 hPa 0,0 l/m 7,9 km/h (2 Bft) W-SW 252 0 min 0,000 mm 0,0 UV-I 37 W/m 7,9 C 16,6 C 19,3 km/h (3 Bft) 94,00 %
24.05.2017 18:58 17,3 C 21,1 C 54 % 1017,7 hPa 0,0 l/m 10,3 km/h (2 Bft) W 264 0 min 0,000 mm 0,0 UV-I 38 W/m 7,9 C 15,5 C 14,5 km/h (3 Bft) 93,62 %
24.05.2017 19:00 17,2 C 21,1 C 54 % 1017,7 hPa 0,0 l/m 10,3 km/h (2 Bft) W 277 0 min 0,102 mm 0,0 UV-I 40 W/m 7,8 C 15,4 C 17,7 km/h (3 Bft) 95,45 %
24.05.2017 19:02 17,2 C 21,1 C 55 % 1017,7 hPa 0,0 l/m 8,8 km/h (2 Bft) W-SW 255 0 min 0,000 mm 0,0 UV-I 45 W/m 8,1 C 16,0 C 19,3 km/h (3 Bft) 92,68 %
24.05.2017 19:04 17,2 C 21,1 C 55 % 1017,8 hPa 0,0 l/m 8,3 km/h (2 Bft) W 259 0 min 0,000 mm 0,0 UV-I 44 W/m 8,1 C 16,3 C 17,7 km/h (3 Bft) 92,00 %
24.05.2017 19:06 17,2 C 21,1 C 55 % 1017,8 hPa 0,0 l/m 9,2 km/h (2 Bft) W 277 0 min 0,000 mm 0,0 UV-I 40 W/m 8,1 C 15,9 C 19,3 km/h (3 Bft) 98,21 %
24.05.2017 19:08 17,1 C 21,1 C 55 % 1017,8 hPa 0,0 l/m 8,5 km/h (2 Bft) W-SW 238 0 min 0,000 mm 0,0 UV-I 36 W/m 8,0 C 16,1 C 17,7 km/h (3 Bft) 95,45 %
24.05.2017 19:10 17,1 C 21,1 C 55 % 1017,7 hPa 0,0 l/m 14,2 km/h (3 Bft) W-SW 253 0 min 0,000 mm 0,0 UV-I 32 W/m 8,0 C 14,0 C 25,7 km/h (4 Bft) 94,74 %
24.05.2017 19:12 17,1 C 21,1 C 56 % 1017,8 hPa 0,0 l/m 8,9 km/h (2 Bft) SW 217 0 min 0,000 mm 0,0 UV-I 30 W/m 8,3 C 15,9 C 14,5 km/h (3 Bft) 96,43 %
24.05.2017 19:14 17,1 C 21,1 C 56 % 1017,8 hPa 0,0 l/m 11,1 km/h (2 Bft) W-NW 289 0 min 0,000 mm 0,0 UV-I 30 W/m 8,3 C 15,0 C 25,7 km/h (4 Bft) 98,00 %
24.05.2017 19:16 17,0 C 21,1 C 56 % 1017,8 hPa 0,0 l/m 9,5 km/h (2 Bft) W-SW 245 0 min 0,000 mm 0,0 UV-I 26 W/m 8,2 C 15,5 C 16,1 km/h (3 Bft) 95,74 %
24.05.2017 19:18 17,0 C 21,1 C 56 % 1017,8 hPa 0,0 l/m 11,5 km/h (2 Bft) W-SW 244 0 min 0,000 mm 0,0 UV-I 23 W/m 8,2 C 14,8 C 24,1 km/h (4 Bft) 92,68 %
24.05.2017 19:20 17,0 C 21,1 C 56 % 1017,8 hPa 0,0 l/m 9,7 km/h (2 Bft) SW 234 0 min 0,000 mm 0,0 UV-I 21 W/m 8,2 C 15,4 C 19,3 km/h (3 Bft) 96,00 %
24.05.2017 19:22 17,0 C 21,1 C 56 % 1017,8 hPa 0,0 l/m 6,1 km/h (2 Bft) N-NW 338 0 min 0,000 mm 0,0 UV-I 21 W/m 8,2 C 17,0 C 9,7 km/h (2 Bft) 95,24 %
24.05.2017 19:24 16,9 C 21,1 C 56 % 1017,9 hPa 0,0 l/m 9,3 km/h (2 Bft) W 272 0 min 0,000 mm 0,0 UV-I 21 W/m 8,1 C 15,5 C 22,5 km/h (4 Bft) 96,00 %
24.05.2017 19:26 16,9 C 21,1 C 56 % 1017,9 hPa 0,0 l/m 8,3 km/h (2 Bft) W-SW 246 0 min 0,000 mm 0,0 UV-I 22 W/m 8,1 C 16,0 C 14,5 km/h (3 Bft) 97,37 %
24.05.2017 19:28 16,9 C 21,1 C 56 % 1017,9 hPa 0,0 l/m 7,9 km/h (2 Bft) S-SW 207 0 min 0,000 mm 0,0 UV-I 25 W/m 8,1 C 16,1 C 12,9 km/h (3 Bft) 94,34 %
24.05.2017 19:30 16,9 C 21,1 C 56 % 1017,9 hPa 0,0 l/m 7,6 km/h (2 Bft) W-SW 240 0 min 0,000 mm 0,0 UV-I 25 W/m 8,1 C 16,3 C 12,9 km/h (3 Bft) 93,62 %
24.05.2017 19:32 16,9 C 21,1 C 56 % 1017,9 hPa 0,0 l/m 12,5 km/h (3 Bft) W-SW 255 0 min 0,000 mm 0,0 UV-I 23 W/m 8,1 C 14,3 C 17,7 km/h (3 Bft) 97,56 %
24.05.2017 19:34 16,9 C 21,1 C 56 % 1017,8 hPa 0,0 l/m 10,4 km/h (2 Bft) W-SW 248 0 min 0,000 mm 0,0 UV-I 19 W/m 8,1 C 15,1 C 27,4 km/h (4 Bft) 94,92 %
24.05.2017 19:36 16,9 C 21,1 C 57 % 1017,9 hPa 0,0 l/m 9,6 km/h (2 Bft) W-NW 284 0 min 0,000 mm 0,0 UV-I 18 W/m 8,3 C 15,4 C 17,7 km/h (3 Bft) 97,37 %
24.05.2017 19:38 16,9 C 21,1 C 56 % 1017,9 hPa 0,0 l/m 12,6 km/h (3 Bft) W 275 0 min 0,000 mm 0,0 UV-I 19 W/m 8,1 C 14,3 C 19,3 km/h (3 Bft) 96,43 %
24.05.2017 19:40 16,9 C 21,1 C 56 % 1017,9 hPa 0,0 l/m 10,5 km/h (2 Bft) W-NW 284 0 min 0,000 mm 0,0 UV-I 20 W/m 8,1 C 15,0 C 19,3 km/h (3 Bft) 94,74 %
24.05.2017 19:42 16,8 C 21,1 C 57 % 1017,9 hPa 0,0 l/m 10,5 km/h (2 Bft) S-SW 211 0 min 0,000 mm 0,0 UV-I 25 W/m 8,2 C 14,9 C 17,7 km/h (3 Bft) 97,87 %
24.05.2017 19:44 16,8 C 21,1 C 57 % 1018,0 hPa 0,0 l/m 8,8 km/h (2 Bft) W-SW 252 0 min 0,000 mm 0,0 UV-I 30 W/m 8,2 C 15,6 C 14,5 km/h (3 Bft) 94,00 %
24.05.2017 19:46 16,9 C 21,1 C 57 % 1017,9 hPa 0,0 l/m 13,8 km/h (3 Bft) W-SW 240 0 min 0,000 mm 0,0 UV-I 32 W/m 8,3 C 13,9 C 22,5 km/h (4 Bft) 97,87 %
24.05.2017 19:48 16,8 C 21,1 C 57 % 1017,9 hPa 0,0 l/m 6,6 km/h (2 Bft) SW 228 0 min 0,000 mm 0,0 UV-I 32 W/m 8,2 C 16,7 C 12,9 km/h (3 Bft) 92,68 %
24.05.2017 19:50 16,8 C 21,1 C 57 % 1017,9 hPa 0,0 l/m 7,9 km/h (2 Bft) W 275 0 min 0,000 mm 0,0 UV-I 30 W/m 8,2 C 16,0 C 12,9 km/h (3 Bft) 96,23 %
24.05.2017 19:52 16,8 C 21,1 C 57 % 1017,9 hPa 0,0 l/m 7,7 km/h (2 Bft) W-SW 255 0 min 0,000 mm 0,0 UV-I 26 W/m 8,2 C 16,1 C 17,7 km/h (3 Bft) 97,37 %
24.05.2017 19:54 16,8 C 21,1 C 57 % 1018,0 hPa 0,0 l/m 8,2 km/h (2 Bft) W 264 0 min 0,000 mm 0,0 UV-I 25 W/m 8,2 C 15,9 C 16,1 km/h (3 Bft) 96,49 %
24.05.2017 19:56 16,8 C 21,1 C 58 % 1018,0 hPa 0,0 l/m 7,5 km/h (2 Bft) W-SW 246 0 min 0,000 mm 0,0 UV-I 25 W/m 8,5 C 16,2 C 14,5 km/h (3 Bft) 98,00 %
24.05.2017 19:58 16,7 C 21,1 C 58 % 1018,0 hPa 0,0 l/m 8,3 km/h (2 Bft) W 267 0 min 0,000 mm 0,0 UV-I 24 W/m 8,4 C 15,7 C 19,3 km/h (3 Bft) 97,73 %
24.05.2017 20:00 16,7 C 21,1 C 58 % 1018,0 hPa 0,0 l/m 5,7 km/h (1 Bft) W-NW 298 0 min 0,000 mm 0,0 UV-I 20 W/m 8,4 C 16,7 C 16,1 km/h (3 Bft) 97,44 %
24.05.2017 20:02 16,7 C 21,1 C 59 % 1017,9 hPa 0,0 l/m 4,4 km/h (1 Bft) W 267 0 min 0,076 mm 0,0 UV-I 19 W/m 8,6 C 16,7 C 11,3 km/h (2 Bft) 98,00 %
24.05.2017 20:04 16,6 C 21,1 C 59 % 1018,0 hPa 0,0 l/m 5,1 km/h (1 Bft) W-SW 257 0 min 0,000 mm 0,0 UV-I 19 W/m 8,6 C 16,6 C 8,0 km/h (2 Bft) 93,18 %
24.05.2017 20:06 16,6 C 21,1 C 59 % 1018,0 hPa 0,0 l/m 7,9 km/h (2 Bft) W-SW 247 0 min 0,000 mm 0,0 UV-I 18 W/m 8,6 C 15,8 C 16,1 km/h (3 Bft) 98,00 %
24.05.2017 20:08 16,6 C 21,1 C 59 % 1017,9 hPa 0,0 l/m 8,1 km/h (2 Bft) NW 304 0 min 0,000 mm 0,0 UV-I 16 W/m 8,6 C 15,7 C 16,1 km/h (3 Bft) 98,11 %
24.05.2017 20:10 16,6 C 21,1 C 59 % 1017,9 hPa 0,0 l/m 9,9 km/h (2 Bft) W 267 0 min 0,000 mm 0,0 UV-I 16 W/m 8,6 C 14,9 C 17,7 km/h (3 Bft) 100,00 %
24.05.2017 20:12 16,6 C 21,1 C 59 % 1017,9 hPa 0,0 l/m 4,5 km/h (1 Bft) SW 236 0 min 0,000 mm 0,0 UV-I 16 W/m 8,6 C 16,6 C 6,4 km/h (2 Bft) 100,00 %
24.05.2017 20:14 16,6 C 21,1 C 59 % 1017,9 hPa 0,0 l/m 2,2 km/h (1 Bft) SW 236 0 min 0,000 mm 0,0 UV-I 16 W/m 8,6 C 16,6 C 4,8 km/h (1 Bft) 100,00 %
24.05.2017 20:16 16,5 C 21,1 C 60 % 1017,9 hPa 0,0 l/m 4,2 km/h (1 Bft) W-SW 240 0 min 0,000 mm 0,0 UV-I 14 W/m 8,7 C 16,5 C 6,4 km/h (2 Bft) 100,00 %
24.05.2017 20:18 16,5 C 21,1 C 60 % 1017,9 hPa 0,0 l/m 4,7 km/h (1 Bft) W 259 0 min 0,000 mm 0,0 UV-I 13 W/m 8,7 C 16,5 C 11,3 km/h (2 Bft) 94,34 %
24.05.2017 20:20 16,4 C 21,1 C 60 % 1017,9 hPa 0,0 l/m 6,2 km/h (2 Bft) W-SW 245 0 min 0,000 mm 0,0 UV-I 11 W/m 8,6 C 16,4 C 12,9 km/h (3 Bft) 97,73 %
24.05.2017 20:22 16,4 C 21,1 C 60 % 1017,9 hPa 0,0 l/m 4,2 km/h (1 Bft) SW 236 0 min 0,000 mm 0,0 UV-I 10 W/m 8,6 C 16,4 C 6,4 km/h (2 Bft) 97,87 %
24.05.2017 20:24 16,4 C 21,1 C 60 % 1017,9 hPa 0,0 l/m 5,5 km/h (1 Bft) W 264 0 min 0,000 mm 0,0 UV-I 7 W/m 8,6 C 16,4 C 12,9 km/h (3 Bft) 96,00 %
24.05.2017 20:26 16,4 C 21,1 C 61 % 1018,0 hPa 0,0 l/m 4,6 km/h (1 Bft) W-SW 244 0 min 0,000 mm 0,0 UV-I 7 W/m 8,9 C 16,4 C 6,4 km/h (2 Bft) 100,00 %
24.05.2017 20:28 16,4 C 21,1 C 61 % 1018,0 hPa 0,0 l/m 6,8 km/h (2 Bft) W-SW 240 0 min 0,000 mm 0,0 UV-I 7 W/m 8,9 C 16,2 C 9,7 km/h (2 Bft) 100,00 %
24.05.2017 20:30 16,3 C 21,1 C 61 % 1017,9 hPa 0,0 l/m 4,7 km/h (1 Bft) W-SW 244 0 min 0,000 mm 0,0 UV-I 6 W/m 8,8 C 16,3 C 6,4 km/h (2 Bft) 98,11 %
24.05.2017 20:32 16,3 C 21,1 C 61 % 1017,9 hPa 0,0 l/m 7,0 km/h (2 Bft) W 267 0 min 0,000 mm 0,0 UV-I 7 W/m 8,8 C 16,0 C 12,9 km/h (3 Bft) 100,00 %
24.05.2017 20:34 16,3 C 21,1 C 62 % 1017,9 hPa 0,0 l/m 5,4 km/h (1 Bft) W-SW 252 0 min 0,000 mm 0,0 UV-I 7 W/m 9,0 C 16,3 C 8,0 km/h (2 Bft) 97,62 %
24.05.2017 20:36 16,3 C 21,1 C 62 % 1017,9 hPa 0,0 l/m 6,1 km/h (2 Bft) W-SW 248 0 min 0,000 mm 0,0 UV-I 8 W/m 9,0 C 16,3 C 8,0 km/h (2 Bft) 100,00 %
24.05.2017 20:38 16,2 C 21,1 C 62 % 1017,9 hPa 0,0 l/m 6,1 km/h (2 Bft) W-SW 255 0 min 0,000 mm 0,0 UV-I 7 W/m 8,9 C 16,2 C 12,9 km/h (3 Bft) 100,00 %
24.05.2017 20:40 16,2 C 21,1 C 62 % 1018,0 hPa 0,0 l/m 11,0 km/h (2 Bft) W-SW 255 0 min 0,000 mm 0,0 UV-I 7 W/m 8,9 C 14,0 C 16,1 km/h (3 Bft) 100,00 %
24.05.2017 20:42 16,2 C 21,1 C 62 % 1018,0 hPa 0,0 l/m 10,6 km/h (2 Bft) W-SW 257 0 min 0,000 mm 0,0 UV-I 7 W/m 8,9 C 14,2 C 16,1 km/h (3 Bft) 94,44 %
24.05.2017 20:44 16,2 C 21,1 C 62 % 1018,0 hPa 0,0 l/m 8,1 km/h (2 Bft) W-SW 244 0 min 0,000 mm 0,0 UV-I 7 W/m 8,9 C 15,3 C 12,9 km/h (3 Bft) 96,61 %
24.05.2017 20:46 16,2 C 21,1 C 62 % 1018,0 hPa 0,0 l/m 11,6 km/h (2 Bft) W-SW 248 0 min 0,000 mm 0,0 UV-I 5 W/m 8,9 C 13,8 C 17,7 km/h (3 Bft) 95,45 %
24.05.2017 20:48 16,2 C 21,1 C 62 % 1018,0 hPa 0,0 l/m 8,3 km/h (2 Bft) W-SW 252 0 min 0,000 mm 0,0 UV-I 5 W/m 8,9 C 15,2 C 12,9 km/h (3 Bft) 95,12 %
24.05.2017 20:50 16,2 C 21,1 C 62 % 1017,9 hPa 0,0 l/m 8,4 km/h (2 Bft) W 263 0 min 0,000 mm 0,0 UV-I 4 W/m 8,9 C 15,2 C 12,9 km/h (3 Bft) 96,43 %
24.05.2017 20:52 16,2 C 21,1 C 62 % 1017,9 hPa 0,0 l/m 9,1 km/h (2 Bft) W-SW 240 0 min 0,000 mm 0,0 UV-I 0 W/m 8,9 C 14,8 C 14,5 km/h (3 Bft) 95,83 %
24.05.2017 20:54 16,2 C 21,1 C 62 % 1017,9 hPa 0,0 l/m 8,0 km/h (2 Bft) W-SW 247 0 min 0,000 mm 0,0 UV-I 0 W/m 8,9 C 15,4 C 14,5 km/h (3 Bft) 100,00 %
24.05.2017 20:56 16,2 C 21,1 C 62 % 1017,9 hPa 0,0 l/m 7,8 km/h (2 Bft) W 262 0 min 0,000 mm 0,0 UV-I 0 W/m 8,9 C 15,5 C 11,3 km/h (2 Bft) 97,87 %
24.05.2017 20:58 16,2 C 21,1 C 62 % 1017,9 hPa 0,0 l/m 11,9 km/h (2 Bft) W-SW 252 0 min 0,000 mm 0,0 UV-I 0 W/m 8,9 C 13,7 C 16,1 km/h (3 Bft) 97,37 %
24.05.2017 21:00 16,1 C 21,1 C 63 % 1017,9 hPa 0,0 l/m 10,8 km/h (2 Bft) W-SW 248 0 min 0,051 mm 0,0 UV-I 0 W/m 9,1 C 14,0 C 16,1 km/h (3 Bft) 98,00 %
24.05.2017 21:02 16,1 C 21,1 C 64 % 1017,9 hPa 0,0 l/m 11,8 km/h (2 Bft) W-SW 246 0 min 0,000 mm 0,0 UV-I 0 W/m 9,3 C 13,6 C 17,7 km/h (3 Bft) 95,83 %
24.05.2017 21:04 16,0 C 21,1 C 64 % 1017,9 hPa 0,0 l/m 15,8 km/h (3 Bft) W-SW 243 0 min 0,000 mm 0,0 UV-I 0 W/m 9,2 C 12,2 C 27,4 km/h (4 Bft) 100,00 %
24.05.2017 21:06 15,9 C 21,1 C 65 % 1017,9 hPa 0,0 l/m 16,3 km/h (3 Bft) SW 230 0 min 0,000 mm 0,0 UV-I 0 W/m 9,3 C 11,9 C 24,1 km/h (4 Bft) 98,11 %
24.05.2017 21:08 15,8 C 21,1 C 66 % 1017,9 hPa 0,0 l/m 14,0 km/h (3 Bft) SW 219 0 min 0,000 mm 0,0 UV-I 0 W/m 9,5 C 12,5 C 20,9 km/h (4 Bft) 100,00 %
24.05.2017 21:10 15,7 C 21,1 C 66 % 1017,9 hPa 0,0 l/m 14,0 km/h (3 Bft) SW 231 0 min 0,000 mm 0,0 UV-I 0 W/m 9,4 C 12,4 C 22,5 km/h (4 Bft) 96,43 %
24.05.2017 21:12 15,7 C 21,1 C 67 % 1017,8 hPa 0,0 l/m 9,7 km/h (2 Bft) W-SW 239 0 min 0,000 mm 0,0 UV-I 0 W/m 9,6 C 14,0 C 14,5 km/h (3 Bft) 95,56 %
24.05.2017 21:14 15,6 C 21,1 C 67 % 1017,9 hPa 0,0 l/m 11,5 km/h (2 Bft) S 186 0 min 0,000 mm 0,0 UV-I 0 W/m 9,5 C 13,2 C 17,7 km/h (3 Bft) 98,00 %
24.05.2017 21:16 15,5 C 21,1 C 67 % 1017,8 hPa 0,0 l/m 12,4 km/h (3 Bft) W-SW 243 0 min 0,000 mm 0,0 UV-I 0 W/m 9,4 C 12,7 C 17,7 km/h (3 Bft) 97,56 %
24.05.2017 21:18 15,4 C 21,1 C 68 % 1017,8 hPa 0,0 l/m 12,6 km/h (3 Bft) SW 223 0 min 0,000 mm 0,0 UV-I 0 W/m 9,5 C 12,5 C 19,3 km/h (3 Bft) 96,23 %
24.05.2017 21:20 15,4 C 21,1 C 68 % 1017,7 hPa 0,0 l/m 15,8 km/h (3 Bft) SW 215 0 min 0,000 mm 0,0 UV-I 0 W/m 9,5 C 11,4 C 20,9 km/h (4 Bft) 100,00 %
24.05.2017 21:22 15,3 C 21,1 C 69 % 1017,7 hPa 0,0 l/m 15,9 km/h (3 Bft) W-SW 257 0 min 0,000 mm 0,0 UV-I 0 W/m 9,6 C 11,3 C 22,5 km/h (4 Bft) 98,00 %
24.05.2017 21:24 15,3 C 21,1 C 70 % 1017,8 hPa 0,0 l/m 13,0 km/h (3 Bft) SW 227 0 min 0,000 mm 0,0 UV-I 0 W/m 9,9 C 12,2 C 17,7 km/h (3 Bft) 95,12 %
24.05.2017 21:26 15,2 C 21,1 C 73 % 1017,6 hPa 0,0 l/m 12,4 km/h (3 Bft) SW 236 0 min 0,000 mm 0,0 UV-I 0 W/m 10,4 C 12,3 C 19,3 km/h (3 Bft) 96,23 %
24.05.2017 21:28 15,1 C 21,1 C 72 % 1017,6 hPa 0,0 l/m 12,2 km/h (2 Bft) SW 233 0 min 0,000 mm 0,0 UV-I 0 W/m 10,1 C 12,3 C 20,9 km/h (4 Bft) 92,68 %
24.05.2017 21:30 14,9 C 21,1 C 73 % 1017,8 hPa 0,0 l/m 14,2 km/h (3 Bft) W-SW 248 0 min 0,000 mm 0,0 UV-I 0 W/m 10,1 C 11,3 C 20,9 km/h (4 Bft) 94,34 %
24.05.2017 21:33 14,6 C 21,1 C 74 % 1018,4 hPa 0,2 l/m 12,5 km/h (3 Bft) W-NW 296 0 min 0,000 mm 0,0 UV-I 0 W/m 10,0 C 11,6 C 20,9 km/h (4 Bft) 98,57 %
24.05.2017 21:34 14,5 C 21,1 C 74 % 1018,4 hPa 0,0 l/m 11,1 km/h (2 Bft) N-NO 13 0 min 0,000 mm 0,0 UV-I 0 W/m 9,9 C 12,1 C 19,3 km/h (3 Bft) 83,33 %
24.05.2017 21:36 14,2 C 21,1 C 76 % 1018,6 hPa 0,0 l/m 12,2 km/h (2 Bft) N-NW 342 0 min 0,000 mm 0,0 UV-I 0 W/m 10,0 C 11,3 C 32,2 km/h (5 Bft) 94,34 %
24.05.2017 21:38 13,8 C 21,1 C 78 % 1018,6 hPa 1,2 l/m 12,4 km/h (3 Bft) NW 312 0 min 0,000 mm 0,0 UV-I 0 W/m 10,0 C 10,7 C 22,5 km/h (4 Bft) 98,00 %
24.05.2017 21:40 13,4 C 21,1 C 80 % 1018,6 hPa 0,0 l/m 8,0 km/h (2 Bft) NO 46 0 min 0,000 mm 0,0 UV-I 0 W/m 10,0 C 12,4 C 17,7 km/h (3 Bft) 95,12 %
24.05.2017 21:42 13,1 C 21,1 C 81 % 1018,8 hPa 0,0 l/m 8,0 km/h (2 Bft) NW 317 0 min 0,000 mm 0,0 UV-I 0 W/m 9,9 C 12,1 C 20,9 km/h (4 Bft) 94,00 %
24.05.2017 21:44 12,7 C 21,1 C 82 % 1018,9 hPa 0,2 l/m 7,2 km/h (2 Bft) NW 309 0 min 0,000 mm 0,0 UV-I 0 W/m 9,7 C 12,2 C 16,1 km/h (3 Bft) 95,12 %
24.05.2017 21:46 12,5 C 21,1 C 84 % 1019,0 hPa 0,0 l/m 8,5 km/h (2 Bft) N-NO 29 0 min 0,000 mm 0,0 UV-I 0 W/m 9,9 C 11,2 C 24,1 km/h (4 Bft) 96,43 %
24.05.2017 21:48 12,3 C 21,1 C 85 % 1019,0 hPa 0,2 l/m 6,0 km/h (2 Bft) NW 304 0 min 0,000 mm 0,0 UV-I 0 W/m 9,9 C 12,3 C 14,5 km/h (3 Bft) 95,45 %
24.05.2017 21:50 12,1 C 21,1 C 86 % 1019,0 hPa 0,2 l/m 8,0 km/h (2 Bft) N-NW 327 0 min 0,000 mm 0,0 UV-I 0 W/m 9,8 C 11,1 C 17,7 km/h (3 Bft) 95,12 %
24.05.2017 21:52 11,9 C 21,1 C 87 % 1019,0 hPa 0,4 l/m 10,6 km/h (2 Bft) NW 326 0 min 0,000 mm 0,0 UV-I 0 W/m 9,8 C 9,4 C 24,1 km/h (4 Bft) 93,62 %
24.05.2017 21:54 11,8 C 21,1 C 87 % 1018,9 hPa 0,2 l/m 6,8 km/h (2 Bft) W-SW 258 0 min 0,000 mm 0,0 UV-I 0 W/m 9,7 C 11,5 C 16,1 km/h (3 Bft) 96,00 %
24.05.2017 21:56 11,6 C 21,1 C 88 % 1018,8 hPa 0,0 l/m 5,6 km/h (1 Bft) NO 38 0 min 0,000 mm 0,0 UV-I 0 W/m 9,7 C 11,6 C 14,5 km/h (3 Bft) 96,23 %
24.05.2017 21:58 11,5 C 21,1 C 89 % 1018,8 hPa 0,2 l/m 6,9 km/h (2 Bft) SW 215 0 min 0,000 mm 0,0 UV-I 0 W/m 9,8 C 11,2 C 16,1 km/h (3 Bft) 97,62 %
24.05.2017 22:00 11,4 C 21,1 C 90 % 1018,8 hPa 0,0 l/m 4,9 km/h (1 Bft) W-SW 257 0 min 0,000 mm 0,0 UV-I 0 W/m 9,8 C 11,4 C 9,7 km/h (2 Bft) 98,08 %
24.05.2017 22:02 11,4 C 21,1 C 90 % 1018,8 hPa 0,0 l/m 4,3 km/h (1 Bft) W-SW 243 0 min 0,050 mm 0,0 UV-I 0 W/m 9,8 C 11,4 C 6,4 km/h (2 Bft) 97,44 %
24.05.2017 22:04 11,4 C 21,1 C 91 % 1018,9 hPa 0,0 l/m 4,7 km/h (1 Bft) W-NW 283 0 min 0,000 mm 0,0 UV-I 0 W/m 10,0 C 11,4 C 11,3 km/h (2 Bft) 100,00 %
24.05.2017 22:06 11,3 C 21,1 C 91 % 1019,1 hPa 0,2 l/m 5,4 km/h (1 Bft) W 259 0 min 0,000 mm 0,0 UV-I 0 W/m 9,9 C 11,3 C 12,9 km/h (3 Bft) 98,00 %
24.05.2017 22:08 11,3 C 21,1 C 91 % 1019,1 hPa 0,0 l/m 5,5 km/h (1 Bft) W-NW 286 0 min 0,000 mm 0,0 UV-I 0 W/m 9,9 C 11,3 C 9,7 km/h (2 Bft) 100,00 %
24.05.2017 22:10 11,3 C 21,1 C 92 % 1019,1 hPa 0,0 l/m 5,1 km/h (1 Bft) W-SW 248 0 min 0,000 mm 0,0 UV-I 0 W/m 10,0 C 11,3 C 9,7 km/h (2 Bft) 97,37 %
24.05.2017 22:12 11,3 C 21,1 C 92 % 1019,2 hPa 0,2 l/m 6,0 km/h (2 Bft) W 263 0 min 0,000 mm 0,0 UV-I 0 W/m 10,0 C 11,3 C 16,1 km/h (3 Bft) 98,21 %
24.05.2017 22:14 11,3 C 21,1 C 92 % 1019,2 hPa 0,2 l/m 3,5 km/h (1 Bft) NW 304 0 min 0,000 mm 0,0 UV-I 0 W/m 10,0 C 11,3 C 12,9 km/h (3 Bft) 100,00 %
24.05.2017 22:16 11,3 C 21,1 C 92 % 1019,2 hPa 0,0 l/m 5,0 km/h (1 Bft) W-NW 291 0 min 0,000 mm 0,0 UV-I 0 W/m 10,0 C 11,3 C 16,1 km/h (3 Bft) 94,34 %
24.05.2017 22:18 11,3 C 21,1 C 93 % 1019,2 hPa 0,2 l/m 4,2 km/h (1 Bft) W 268 0 min 0,000 mm 0,0 UV-I 0 W/m 10,2 C 11,3 C 11,3 km/h (2 Bft) 97,37 %
24.05.2017 22:20 11,3 C 21,1 C 93 % 1019,3 hPa 0,0 l/m 5,1 km/h (1 Bft) SW 223 0 min 0,000 mm 0,0 UV-I 0 W/m 10,2 C 11,3 C 17,7 km/h (3 Bft) 98,21 %
24.05.2017 22:22 11,3 C 20,6 C 93 % 1019,3 hPa 0,0 l/m 1,8 km/h (1 Bft) W 276 0 min 0,000 mm 0,0 UV-I 0 W/m 10,2 C 11,3 C 3,2 km/h (1 Bft) 94,00 %
24.05.2017 22:24 11,3 C 20,6 C 93 % 1019,2 hPa 0,2 l/m 3,1 km/h (1 Bft) W 276 0 min 0,000 mm 0,0 UV-I 0 W/m 10,2 C 11,3 C 12,9 km/h (3 Bft) 93,62 %
24.05.2017 22:26 11,3 C 20,6 C 93 % 1019,2 hPa 0,0 l/m 0,4 km/h (0 Bft) W 277 0 min 0,000 mm 0,0 UV-I 0 W/m 10,2 C 11,3 C 1,6 km/h (1 Bft) 92,11 %
24.05.2017 22:28 11,3 C 20,6 C 93 % 1019,2 hPa 0,2 l/m 2,9 km/h (1 Bft) N 5 0 min 0,000 mm 0,0 UV-I 0 W/m 10,2 C 11,3 C 4,8 km/h (1 Bft) 96,00 %
24.05.2017 22:30 11,2 C 20,6 C 93 % 1019,3 hPa 0,0 l/m 1,2 km/h (1 Bft) NW 324 0 min 0,000 mm 0,0 UV-I 0 W/m 10,1 C 11,2 C 3,2 km/h (1 Bft) 100,00 %
24.05.2017 22:33 11,2 C 20,6 C 93 % 1019,2 hPa 0,0 l/m 2,8 km/h (1 Bft) W 277 0 min 0,000 mm 0,0 UV-I 0 W/m 10,1 C 11,2 C 6,4 km/h (2 Bft) 94,59 %
24.05.2017 22:34 11,2 C 20,6 C 94 % 1019,2 hPa 0,0 l/m 2,7 km/h (1 Bft) W 277 0 min 0,000 mm 0,0 UV-I 0 W/m 10,3 C 11,2 C 3,2 km/h (1 Bft) 92,31 %
24.05.2017 22:36 11,3 C 20,6 C 94 % 1019,2 hPa 0,0 l/m 4,5 km/h (1 Bft) W 273 0 min 0,000 mm 0,0 UV-I 0 W/m 10,4 C 11,3 C 6,4 km/h (2 Bft) 98,00 %
24.05.2017 22:38 11,3 C 20,6 C 94 % 1019,2 hPa 0,0 l/m 2,2 km/h (1 Bft) W 271 0 min 0,000 mm 0,0 UV-I 0 W/m 10,4 C 11,3 C 4,8 km/h (1 Bft) 95,24 %
24.05.2017 22:40 11,4 C 20,6 C 94 % 1019,3 hPa 0,0 l/m 0,3 km/h (0 Bft) W 271 0 min 0,000 mm 0,0 UV-I 0 W/m 10,5 C 11,4 C 1,6 km/h (1 Bft) 93,62 %
24.05.2017 22:42 11,3 C 20,6 C 94 % 1019,3 hPa 0,0 l/m 4,2 km/h (1 Bft) W 269 0 min 0,000 mm 0,0 UV-I 0 W/m 10,4 C 11,3 C 6,4 km/h (2 Bft) 95,74 %
24.05.2017 22:44 11,3 C 20,6 C 94 % 1019,2 hPa 0,0 l/m 7,4 km/h (2 Bft) W-SW 248 0 min 0,000 mm 0,0 UV-I 0 W/m 10,4 C 10,6 C 8,0 km/h (2 Bft) 100,00 %
24.05.2017 22:46 11,3 C 20,6 C 94 % 1019,3 hPa 0,0 l/m 6,3 km/h (2 Bft) W-SW 242 0 min 0,000 mm 0,0 UV-I 0 W/m 10,4 C 11,3 C 9,7 km/h (2 Bft) 98,15 %
24.05.2017 22:48 11,3 C 20,6 C 94 % 1019,3 hPa 0,0 l/m 6,6 km/h (2 Bft) W 268 0 min 0,000 mm 0,0 UV-I 0 W/m 10,4 C 11,2 C 11,3 km/h (2 Bft) 94,74 %
24.05.2017 22:50 11,3 C 20,6 C 94 % 1019,4 hPa 0,0 l/m 6,1 km/h (2 Bft) W 279 0 min 0,000 mm 0,0 UV-I 0 W/m 10,4 C 11,3 C 9,7 km/h (2 Bft) 98,00 %
24.05.2017 22:52 11,3 C 20,6 C 94 % 1019,5 hPa 0,0 l/m 5,7 km/h (1 Bft) W-SW 256 0 min 0,000 mm 0,0 UV-I 0 W/m 10,4 C 11,3 C 11,3 km/h (2 Bft) 96,00 %
24.05.2017 22:54 11,3 C 20,6 C 94 % 1019,5 hPa 0,0 l/m 8,4 km/h (2 Bft) W-SW 244 0 min 0,000 mm 0,0 UV-I 0 W/m 10,4 C 10,0 C 16,1 km/h (3 Bft) 94,74 %
24.05.2017 22:56 11,2 C 20,6 C 94 % 1019,5 hPa 0,2 l/m 9,5 km/h (2 Bft) W 262 0 min 0,000 mm 0,0 UV-I 0 W/m 10,3 C 9,2 C 17,7 km/h (3 Bft) 92,86 %
24.05.2017 22:58 11,2 C 20,6 C 94 % 1019,6 hPa 0,0 l/m 7,7 km/h (2 Bft) W-SW 255 0 min 0,000 mm 0,0 UV-I 0 W/m 10,3 C 10,3 C 11,3 km/h (2 Bft) 100,00 %
24.05.2017 23:00 11,2 C 20,6 C 94 % 1019,7 hPa 0,0 l/m 6,3 km/h (2 Bft) W-SW 248 0 min 0,000 mm 0,0 UV-I 0 W/m 10,3 C 11,2 C 12,9 km/h (3 Bft) 95,52 %
24.05.2017 23:02 11,2 C 20,6 C 94 % 1019,7 hPa 0,2 l/m 9,0 km/h (2 Bft) W-SW 254 0 min 0,000 mm 0,0 UV-I 0 W/m 10,3 C 9,5 C 14,5 km/h (3 Bft) 97,22 %
24.05.2017 23:04 11,2 C 20,6 C 94 % 1019,8 hPa 0,0 l/m 7,8 km/h (2 Bft) W-SW 258 0 min 0,000 mm 0,0 UV-I 0 W/m 10,3 C 10,2 C 16,1 km/h (3 Bft) 96,00 %
24.05.2017 23:06 11,2 C 20,6 C 94 % 1019,8 hPa 0,2 l/m 6,0 km/h (2 Bft) W 262 0 min 0,000 mm 0,0 UV-I 0 W/m 10,3 C 11,2 C 11,3 km/h (2 Bft) 97,87 %
24.05.2017 23:08 11,2 C 20,6 C 94 % 1019,8 hPa 0,0 l/m 6,2 km/h (2 Bft) W 265 0 min 0,000 mm 0,0 UV-I 0 W/m 10,3 C 11,2 C 12,9 km/h (3 Bft) 93,62 %
24.05.2017 23:10 11,2 C 20,6 C 94 % 1019,8 hPa 0,2 l/m 7,1 km/h (2 Bft) W-NW 284 0 min 0,000 mm 0,0 UV-I 0 W/m 10,3 C 10,7 C 11,3 km/h (2 Bft) 98,11 %
24.05.2017 23:12 11,2 C 20,6 C 94 % 1019,8 hPa 0,0 l/m 4,5 km/h (1 Bft) W-SW 240 0 min 0,000 mm 0,0 UV-I 0 W/m 10,3 C 11,2 C 8,0 km/h (2 Bft) 95,12 %
24.05.2017 23:14 11,2 C 20,6 C 94 % 1019,8 hPa 0,2 l/m 6,6 km/h (2 Bft) W-SW 254 0 min 0,000 mm 0,0 UV-I 0 W/m 10,3 C 11,1 C 14,5 km/h (3 Bft) 98,11 %
24.05.2017 23:16 11,1 C 20,6 C 94 % 1019,8 hPa 0,0 l/m 7,6 km/h (2 Bft) SW 236 0 min 0,000 mm 0,0 UV-I 0 W/m 10,2 C 10,3 C 12,9 km/h (3 Bft) 97,56 %
24.05.2017 23:18 11,2 C 20,6 C 94 % 1019,8 hPa 0,0 l/m 8,5 km/h (2 Bft) W-NW 284 0 min 0,000 mm 0,0 UV-I 0 W/m 10,3 C 9,8 C 12,9 km/h (3 Bft) 98,00 %
24.05.2017 23:20 11,2 C 20,6 C 94 % 1019,9 hPa 0,2 l/m 7,8 km/h (2 Bft) W-SW 257 0 min 0,000 mm 0,0 UV-I 0 W/m 10,3 C 10,2 C 12,9 km/h (3 Bft) 100,00 %
24.05.2017 23:22 11,2 C 20,6 C 94 % 1019,9 hPa 0,0 l/m 10,6 km/h (2 Bft) W-SW 249 0 min 0,000 mm 0,0 UV-I 0 W/m 10,3 C 8,6 C 14,5 km/h (3 Bft) 100,00 %
24.05.2017 23:24 11,2 C 20,6 C 94 % 1019,9 hPa 0,0 l/m 10,8 km/h (2 Bft) W 259 0 min 0,000 mm 0,0 UV-I 0 W/m 10,3 C 8,5 C 16,1 km/h (3 Bft) 100,00 %
24.05.2017 23:26 11,2 C 20,6 C 94 % 1019,9 hPa 0,2 l/m 9,1 km/h (2 Bft) W-SW 245 0 min 0,000 mm 0,0 UV-I 0 W/m 10,3 C 9,4 C 14,5 km/h (3 Bft) 96,43 %
24.05.2017 23:28 11,1 C 20,6 C 94 % 1019,9 hPa 0,0 l/m 10,1 km/h (2 Bft) W-SW 250 0 min 0,000 mm 0,0 UV-I 0 W/m 10,2 C 8,8 C 14,5 km/h (3 Bft) 97,73 %
24.05.2017 23:30 11,1 C 20,6 C 94 % 1019,8 hPa 0,2 l/m 8,4 km/h (2 Bft) W-SW 258 0 min 0,000 mm 0,0 UV-I 0 W/m 10,2 C 9,8 C 12,9 km/h (3 Bft) 97,56 %
24.05.2017 23:32 11,1 C 20,6 C 94 % 1019,8 hPa 0,0 l/m 8,6 km/h (2 Bft) SW 230 0 min 0,000 mm 0,0 UV-I 0 W/m 10,2 C 9,6 C 19,3 km/h (3 Bft) 92,00 %
24.05.2017 23:34 11,1 C 20,6 C 94 % 1019,8 hPa 0,0 l/m 10,9 km/h (2 Bft) W 259 0 min 0,000 mm 0,0 UV-I 0 W/m 10,2 C 8,3 C 17,7 km/h (3 Bft) 100,00 %
24.05.2017 23:36 11,1 C 20,6 C 94 % 1019,7 hPa 0,2 l/m 7,6 km/h (2 Bft) S-SW 211 0 min 0,000 mm 0,0 UV-I 0 W/m 10,2 C 10,3 C 12,9 km/h (3 Bft) 94,34 %
24.05.2017 23:38 11,1 C 20,6 C 94 % 1019,7 hPa 0,0 l/m 12,0 km/h (2 Bft) W 263 0 min 0,000 mm 0,0 UV-I 0 W/m 10,2 C 7,8 C 17,7 km/h (3 Bft) 95,12 %
24.05.2017 23:40 11,1 C 20,6 C 94 % 1019,7 hPa 0,0 l/m 11,8 km/h (2 Bft) W-SW 247 0 min 0,000 mm 0,0 UV-I 0 W/m 10,2 C 7,9 C 16,1 km/h (3 Bft) 98,21 %
24.05.2017 23:42 11,1 C 20,6 C 94 % 1019,7 hPa 0,0 l/m 9,3 km/h (2 Bft) W-SW 244 0 min 0,000 mm 0,0 UV-I 0 W/m 10,2 C 9,2 C 12,9 km/h (3 Bft) 89,47 %
24.05.2017 23:44 11,1 C 20,6 C 94 % 1019,8 hPa 0,0 l/m 7,6 km/h (2 Bft) W-SW 252 0 min 0,000 mm 0,0 UV-I 0 W/m 10,2 C 10,3 C 11,3 km/h (2 Bft) 94,64 %
24.05.2017 23:46 11,1 C 20,6 C 94 % 1019,7 hPa 0,0 l/m 7,8 km/h (2 Bft) W-SW 240 0 min 0,000 mm 0,0 UV-I 0 W/m 10,2 C 10,1 C 12,9 km/h (3 Bft) 97,44 %
24.05.2017 23:48 11,0 C 20,6 C 94 % 1019,7 hPa 0,0 l/m 6,3 km/h (2 Bft) SW 223 0 min 0,000 mm 0,0 UV-I 0 W/m 10,1 C 11,0 C 12,9 km/h (3 Bft) 96,23 %
24.05.2017 23:50 11,1 C 20,6 C 94 % 1019,7 hPa 0,0 l/m 8,3 km/h (2 Bft) W-SW 239 0 min 0,000 mm 0,0 UV-I 0 W/m 10,2 C 9,8 C 12,9 km/h (3 Bft) 97,37 %
24.05.2017 23:52 11,1 C 20,6 C 94 % 1019,7 hPa 0,0 l/m 7,3 km/h (2 Bft) W-NW 287 0 min 0,000 mm 0,0 UV-I 0 W/m 10,2 C 10,5 C 9,7 km/h (2 Bft) 92,68 %
24.05.2017 23:54 11,1 C 20,6 C 94 % 1019,8 hPa 0,0 l/m 5,9 km/h (2 Bft) W-SW 255 0 min 0,000 mm 0,0 UV-I 0 W/m 10,2 C 11,1 C 9,7 km/h (2 Bft) 94,34 %
24.05.2017 23:56 11,1 C 20,6 C 94 % 1019,8 hPa 0,0 l/m 6,8 km/h (2 Bft) SW 221 0 min 0,000 mm 0,0 UV-I 0 W/m 10,2 C 10,8 C 11,3 km/h (2 Bft) 96,43 %
24.05.2017 23:58 11,1 C 20,6 C 94 % 1019,9 hPa 0,0 l/m 9,0 km/h (2 Bft) SW 232 0 min 0,000 mm 0,0 UV-I 0 W/m 10,2 C 9,4 C 14,5 km/h (3 Bft) 97,56 %
_ Min-Zeit 23:48 07:24 15:40 03:26 - 22:40 - - - - - - 15:48 23:38 22:26 21:34
Minimum _ 11,0 C 20,6 C 44 % 1015,2 hPa - 0,3 km/h (0 Bft) - - - - - - 6,3 C 7,8 C 1,6 km/h (1 Bft) 83,33 %
_ Max-Zeit 15:24 00:00 22:34 23:20 21:38 14:00 - - 11:18 15:00 13:24 14:52 08:42 15:36 15:46 00:30
Maximum _ 20,3 C 21,7 C 94 % 1019,9 hPa 1,2 l/m 30,7 km/h
W-SW (5 Bft)
- - 3 min 0,508 mm 5,2 UV-I 1127 W/m 14,1 C 18,2 C 54,7 km/h
W (7 Bft)
100,00 %
Durchschnitt _ 16,6 C 21,2 C 69 % 1017,1 hPa #6,4 l/m 12,2 km/h (2 Bft) W-SW - #4:06 h #3,708 mm 2,2 UV-I 277 W/m 10,7 C 14,4 C 20,1 km/h (4 Bft) 97,07 %